GFSSW_con_sbcape_000.txt.gz
CAPE
3 2 2 0 0 0 0 1 1 0 0 0 1 3 0 0 0 0 0 0 0 0 686 663 101 2 354 0 0 0 0 0 0 35 25 174 639 554 666 582 490 482 316 498 891
2 2 3 3 1 0 0 0 0 0 0 1 2 3 1 0 0 0 0 0 40 176 0 0 0 0 0 0 0 2 4 1 0 0 100 134 537 677 490 459 568 516 692 973 1060
2 2 1 3 3 1 0 0 0 0 1 2 2 3 1 1 0 0 0 0 18 26 0 0 0 0 0 0 0 0 0 0 0 0 102 87 497 302 266 420 553 489 830 1065 1087
3 2 2 1 3 2 1 0 0 0 2 2 3 3 1 0 0 0 0 65 19 0 0 0 0 0 0 0 0 0 0 0 0 0 36 69 135 440 219 276 481 473 781 1070 1113
2 3 3 2 1 1 1 0 1 1 1 3 3 1 0 0 0 0 0 12 0 0 0 0 0 0 0 0 0 0 0 0 5 0 0 7 195 382 180 365 563 586 872 951 992
3 4 6 4 1 0 1 4 3 2 2 4 2 0 0 0 0 0 0 0 0 0 0 0 0 0 0 0 0 0 0 3 7 0 0 88 220 317 306 624 845 714 808 880 906
4 4 5 4 1 0 2 4 3 2 2 3 0 0 0 0 0 0 0 0 0 0 0 0 0 0 0 0 0 0 0 0 1 5 223 135 250 213 352 636 954 1005 998 981 1053
6 5 2 1 0 1 5 5 3 1 3 1 0 0 0 0 0 0 0 0 0 0 0 0 0 0 0 0 0 0 0 14 2 13 128 50 103 398 347 453 799 1065 1082 1105 1134
12 9 7 5 6 6 2 5 1 0 2 1 0 0 0 0 0 0 0 0 0 0 0 0 0 0 0 0 0 0 0 2 9 0 54 57 70 360 272 317 620 932 916 963 1032
13 12 9 6 7 4 3 0 0 0 0 0 0 0 0 0 0 0 0 0 0 0 0 0 0 0 0 0 0 0 0 0 22 21 47 34 77 311 202 187 314 422 402 625 661
10 6 7 6 4 1 0 0 0 0 0 0 0 0 0 0 0 0 0 0 0 0 0 0 0 0 0 0 0 0 0 11 8 6 29 36 75 312 189 138 147 127 156 280 300
14 9 9 7 2 1 0 0 0 0 0 0 0 0 0 0 0 0 0 0 0 0 0 0 0 0 0 0 0 0 0 0 0 0 18 43 82 229 199 152 103 94 101 110 171
11 7 9 2 0 0 0 0 0 0 0 0 0 0 0 0 0 0 0 0 0 0 0 0 0 0 0 0 0 0 0 0 0 0 10 45 56 77 169 164 122 84 75 65 79
9 7 5 6 0 0 0 0 0 0 0 0 0 0 0 0 0 0 0 0 0 0 0 0 0 0 0 0 0 0 0 0 0 2 1 20 0 19 63 107 107 92 73 63 63
10 1 4 6 0 0 0 0 0 0 0 0 0 0 0 0 0 0 0 0 0 0 0 0 0 0 0 0 0 0 0 0 0 0 1 15 0 0 30 43 79 95 73 74 52
7 0 7 0 0 0 0 0 0 0 0 0 0 0 0 0 0 0 0 0 0 0 0 0 0 0 0 0 0 0 0 0 0 0 0 0 0 0 4 87 125 129 133 129 92
0 0 3 1 0 0 0 0 0 0 0 0 0 0 0 0 0 0 0 0 0 0 0 0 0 0 0 0 0 0 0 0 0 0 0 0 0 0 0 55 99 116 144 176 165
0 0 0 0 0 0 0 0 0 0 0 0 0 0 0 0 0 0 0 0 0 0 0 0 0 0 0 0 0 0 0 0 0 0 0 0 0 0 0 1 41 46 110 121 180
0 0 0 0 0 0 0 0 0 0 0 0 0 0 0 0 0 0 0 0 0 0 0 0 0 0 0 0 0 0 0 0 0 0 0 0 0 0 0 0 0 25 66 74 145
0 0 0 0 0 0 0 0 0 0 0 0 0 0 0 0 0 0 0 0 0 0 0 0 0 0 0 0 0 0 0 0 0 0 0 0 0 0 0 0 0 0 12 39 82
0 0 0 0 0 0 0 0 0 0 0 0 0 0 0 0 0 0 0 0 0 0 0 0 0 0 0 0 0 0 0 0 0 0 0 0 0 0 0 0 0 0 1 2 17
0 0 0 0 0 0 0 0 0 0 0 0 0 0 0 0 0 0 0 0 0 0 0 0 0 0 0 0 0 0 0 0 0 0 0 0 0 0 0 0 0 0 0 0 2
0 0 0 0 0 0 0 0 0 0 0 0 0 0 0 0 0 0 0 0 0 0 0 0 0 0 0 0 0 0 0 0 0 0 0 0 0 0 0 0 0 0 0 0 2
0 0 0 0 0 0 0 0 0 0 0 0 0 0 0 0 0 0 0 0 0 12 197 0 0 0 0 0 0 0 0 0 0 0 0 0 0 0 0 0 0 0 0 0 0
0 0 0 0 0 0 0 0 0 0 0 0 0 0 0 0 0 0 0 0 7 3 0 0 0 0 0 0 0 0 0 0 0 0 0 0 0 0 0 0 0 0 0 0 0
6 0 0 0 0 0 0 0 0 0 0 0 0 0 0 0 0 0 0 0 20 30 0 0 0 0 0 0 0 0 0 0 0 0 0 0 0 0 0 0 0 0 0 0 0
0 0 8 0 0 0 0 0 0 0 0 0 0 0 0 0 0 0 0 0 4 4 0 0 0 0 0 0 0 0 0 0 0 0 0 0 0 0 0 0 0 0 0 0 0

GFSSW_con_sbcape_003.txt.gz
CAPE
3 2 2 0 1 1 2 1 1 0 0 0 0 2 4 3 0 0 0 0 0 1326 804 481 16 614 827 371 219 2 23 21 22 251 251 497 367 696 633 672 516 505 507 288 483
3 3 3 3 0 0 0 1 1 0 1 2 2 2 2 1 0 0 0 0 16 1025 0 0 0 17 0 0 0 2 41 11 4 99 263 466 498 772 843 595 489 665 684 641 756
5 3 2 2 2 1 0 0 0 1 2 2 3 3 2 0 0 0 0 0 31 165 0 0 0 0 0 0 0 12 45 14 4 3 277 534 525 696 619 490 493 776 1002 875 887
5 5 4 3 2 1 0 0 0 2 4 2 3 4 1 0 0 0 0 0 0 0 0 0 0 0 0 0 0 0 1 10 7 86 260 477 624 499 470 160 359 811 1019 998 914
6 4 4 3 2 1 0 0 0 1 2 3 4 2 0 0 0 0 0 80 0 0 0 0 0 0 0 0 0 0 0 0 8 91 177 424 573 501 526 255 610 930 1060 1028 958
8 9 8 6 6 1 2 5 3 2 2 3 0 0 0 0 0 0 0 0 0 0 0 0 0 0 0 0 0 0 0 0 26 71 121 318 429 352 351 749 886 1019 1095 1084 1065
9 9 10 7 2 0 2 5 5 3 4 0 1 1 0 0 0 0 0 0 0 0 0 0 0 0 0 0 0 0 18 31 41 26 171 345 506 469 409 901 903 913 1042 1115 1181
9 9 7 6 4 4 5 7 4 4 1 0 1 0 0 0 0 0 0 0 0 0 0 0 0 0 0 0 0 0 26 27 35 162 284 152 71 452 661 907 824 741 904 1057 1098
10 11 11 9 7 3 4 5 3 0 0 2 0 0 0 0 0 0 0 0 0 0 0 0 0 0 0 0 0 0 2 31 48 127 337 210 124 394 675 825 847 824 883 1023 1116
12 10 9 7 4 5 4 0 0 0 1 2 0 0 0 0 0 0 0 0 0 0 0 0 0 0 0 0 0 0 9 38 90 61 302 204 211 560 575 683 786 970 1020 1123 1257
11 9 11 6 4 2 0 0 0 0 0 0 0 0 0 0 0 0 0 0 0 0 0 0 0 0 0 0 0 0 24 72 65 45 89 188 160 462 539 512 632 976 1136 1174 1172
8 6 8 4 1 1 0 0 0 0 0 0 0 0 0 0 0 0 0 0 0 0 0 0 0 0 0 0 0 0 11 52 23 38 67 78 94 238 576 512 507 636 849 938 1042
9 6 8 4 0 0 0 0 0 0 0 0 0 0 0 0 0 0 0 0 0 0 0 0 0 0 0 0 0 0 0 27 30 6 54 101 75 168 494 516 420 408 491 574 674
8 5 6 3 0 0 0 0 0 0 0 0 0 0 0 0 0 0 0 0 0 0 0 0 0 0 0 0 0 0 0 5 65 49 39 60 27 79 269 570 514 486 426 432 484
7 2 7 2 0 0 0 0 0 0 0 0 0 0 0 0 0 0 0 0 0 0 0 0 0 0 0 0 0 0 0 0 20 49 5 47 3 4 160 344 619 599 532 455 410
3 0 9 0 1 0 0 0 0 0 0 0 0 0 0 0 0 0 0 0 0 0 0 0 0 0 0 0 0 0 0 0 0 0 0 0 4 0 128 210 296 421 473 494 453
0 0 2 1 0 0 0 0 0 0 0 0 0 0 0 0 0 0 0 0 0 0 0 0 0 0 0 0 0 0 0 0 0 0 0 0 0 5 17 110 151 191 304 361 410
0 0 0 0 0 0 0 0 0 0 0 0 0 0 0 0 0 0 0 0 0 0 0 0 0 0 0 0 0 0 0 0 0 0 0 0 0 0 40 32 59 137 217 233 272
0 0 0 0 0 0 0 0 0 0 0 0 0 0 0 0 0 0 0 0 0 0 0 0 0 0 0 0 0 0 0 0 0 0 0 0 0 0 0 3 4 58 138 317 366
0 0 0 0 0 0 0 0 0 0 0 0 0 0 0 0 0 0 0 0 0 0 0 0 0 0 0 0 0 0 0 0 0 0 0 0 0 0 0 13 67 42 134 326 561
0 0 0 0 0 0 0 0 0 0 0 0 0 0 0 0 0 0 0 0 0 0 0 0 0 0 0 0 0 0 0 0 0 0 0 0 0 0 13 257 77 83 115 294 614
1 0 0 0 0 0 0 0 0 0 0 0 0 0 0 0 0 0 0 0 0 0 0 0 0 0 0 0 0 0 0 0 0 0 0 0 0 0 0 0 2 24 43 105 650
0 0 0 0 0 0 0 0 0 0 0 0 0 0 0 0 0 0 0 0 0 0 0 0 0 0 0 0 0 0 0 0 0 0 0 0 0 0 0 0 0 31 87 119 395
1 0 0 0 0 0 0 0 0 0 0 0 0 0 0 0 0 0 0 0 0 0 23 0 0 0 0 0 0 0 0 0 0 0 0 0 0 0 0 3 23 34 149 127 189
1 0 2 0 0 0 0 0 0 0 0 0 0 0 0 0 0 0 0 0 0 0 17 9 0 0 0 0 0 0 0 0 0 0 0 0 0 0 57 218 230 226 318 109 166
8 16 1 5 0 0 0 0 0 0 0 0 0 0 0 0 0 0 0 0 0 59 131 0 51 0 0 0 0 0 0 0 0 0 0 0 0 0 0 66 148 134 297 207 220
0 2 9 0 0 0 0 0 0 0 0 0 0 0 0 0 0 0 0 0 2 38 277 349 61 104 2 0 0 0 0 0 0 0 0 0 0 0 0 9 123 210 331 503 493

GFSSW_con_sbcape_006.txt.gz
CAPE
3 3 2 2 1 1 1 0 0 0 0 0 0 3 3 2 0 0 0 0 0 962 1395 2 45 184 197 55 98 150 177 83 74 138 127 141 183 405 370 570 529 543 378 483 394
5 3 2 2 2 1 1 1 0 0 0 0 0 1 3 0 0 0 0 0 28 1499 0 0 0 32 0 0 0 31 205 92 31 70 277 194 199 561 603 538 476 679 462 404 421
5 5 3 2 1 1 1 1 0 1 1 1 1 1 2 0 0 0 0 0 301 904 0 0 0 0 0 0 0 0 81 72 46 23 226 261 291 467 263 440 370 687 676 523 545
3 3 4 4 2 1 1 1 2 1 2 2 1 1 0 0 0 0 0 0 443 0 0 0 0 0 0 0 0 0 0 0 27 43 162 336 345 390 248 175 274 490 709 705 727
2 3 2 3 3 2 1 3 3 2 2 2 2 1 0 0 0 0 0 0 0 0 0 0 0 0 0 0 0 0 0 0 0 1 22 344 410 360 358 346 408 659 857 767 775
6 7 6 4 3 1 2 5 5 3 1 2 3 1 0 0 0 0 0 0 0 0 0 0 0 0 0 0 0 0 0 0 0 0 69 416 527 564 429 283 797 873 985 857 844
11 9 7 6 2 0 1 2 4 2 3 2 0 0 0 0 0 0 0 0 0 0 0 0 0 0 0 0 0 0 0 0 1 49 289 379 665 610 538 605 1102 1050 1027 935 922
7 4 2 2 2 4 4 6 2 2 0 1 1 0 0 0 0 0 0 0 0 0 0 0 0 0 0 0 0 0 0 19 72 202 399 452 245 541 728 799 1203 1051 1047 948 992
7 4 4 6 7 6 3 3 1 0 1 1 0 0 0 0 0 0 0 0 0 0 0 0 0 0 0 0 0 0 1 9 220 264 515 520 203 550 790 831 991 986 825 897 1046
14 9 5 4 5 2 1 0 0 0 0 0 0 0 0 0 0 0 0 0 0 0 0 0 0 0 0 0 0 1 0 29 39 287 433 447 270 627 822 766 691 1066 846 811 870
8 5 5 3 3 0 0 0 0 0 0 0 0 0 0 0 0 0 0 0 0 0 0 0 0 0 0 0 0 3 25 43 46 238 354 258 229 356 849 793 724 930 1018 912 726
6 7 4 1 0 0 0 0 0 0 0 0 0 0 0 0 0 0 0 0 0 0 0 0 0 0 0 0 0 0 3 36 85 145 204 162 226 256 420 861 648 664 962 1170 966
3 5 3 2 0 0 0 0 0 0 0 0 0 0 0 0 0 0 0 0 0 0 0 0 0 0 0 0 0 0 0 17 88 133 170 119 212 159 144 578 674 564 580 978 1068
4 2 2 0 0 0 0 0 0 0 0 0 0 0 0 0 0 0 0 0 0 0 0 0 0 0 0 0 0 0 0 3 41 91 111 145 133 65 136 507 639 807 625 526 984
2 0 0 0 0 0 0 0 0 0 0 0 0 0 0 0 0 0 0 0 0 0 0 0 0 0 0 0 0 0 0 0 3 68 100 136 136 63 89 135 479 796 799 503 353
3 0 1 0 0 0 0 0 0 0 0 0 0 0 0 0 0 0 0 0 0 0 0 0 0 0 0 0 0 0 0 4 16 31 80 91 70 10 21 88 82 267 627 700 307
0 0 0 0 0 0 0 0 0 0 0 0 0 0 0 0 0 0 0 0 0 0 0 0 0 0 0 0 0 0 0 14 35 40 41 60 58 1 1 12 30 16 147 679 487
0 0 0 0 0 0 0 0 0 0 0 0 0 0 0 0 0 0 0 0 0 0 0 0 0 0 0 0 0 0 0 8 40 26 29 13 6 0 16 17 0 3 52 407 639
0 0 0 0 0 0 0 0 0 0 0 0 0 0 0 0 0 0 0 0 0 0 0 0 0 0 0 0 0 0 0 0 27 48 28 2 1 0 1 16 3 29 82 199 623
0 0 0 0 0 0 0 0 0 0 0 0 0 0 0 0 0 0 0 0 0 0 0 0 0 0 0 0 0 0 0 0 7 77 47 8 16 0 16 0 0 13 98 239 555
0 0 0 0 0 0 0 0 0 0 0 0 0 0 0 0 0 0 0 0 0 0 0 0 0 0 0 0 0 0 0 0 1 10 17 34 3 0 0 0 0 0 110 150 453
0 0 0 0 0 0 0 0 0 0 0 0 0 0 0 0 0 0 0 0 0 0 0 0 0 0 0 0 0 0 0 0 6 4 12 17 1 2 0 0 0 0 5 9 240
0 0 0 0 0 0 0 0 0 0 0 0 0 0 0 0 0 0 0 0 0 0 0 1 0 9 0 0 0 0 0 0 0 1 110 27 1 0 0 0 0 48 102 114 443
1 0 0 1 0 0 0 0 0 0 0 0 0 0 0 0 0 0 0 0 0 0 17 0 0 0 0 0 0 0 0 0 0 3 3 8 36 16 0 0 0 1 112 195 728
14 0 1 0 72 72 55 42 2 0 0 0 0 0 0 0 0 0 0 0 0 0 0 21 23 28 0 0 0 0 0 0 0 0 4 0 13 17 6 0 0 0 3 213 851
36 51 37 0 0 0 0 0 36 2 5 0 0 0 0 0 0 0 0 0 0 0 0 7 102 47 43 8 7 3 0 0 0 0 0 0 0 1 2 0 0 0 0 244 960
28 24 28 1 0 0 0 3 11 41 4 0 0 0 0 0 0 0 0 0 0 0 0 33 188 326 158 91 65 57 11 8 0 0 0 0 0 0 0 0 0 7 128 276 914

GFSSW_con_sbcape_009.txt.gz
CAPE
2 2 2 1 0 0 0 0 0 0 0 1 1 2 1 0 0 0 0 0 0 467 1318 17 53 0 17 4 2 0 56 178 85 66 12 0 8 8 138 179 241 409 714 797 915
3 2 2 1 1 0 0 0 0 0 0 1 2 2 1 0 0 0 0 30 437 499 0 0 0 0 0 0 0 17 28 49 41 114 86 24 28 15 74 120 244 295 752 824 966
5 4 3 2 1 0 0 0 0 0 0 1 1 2 0 0 0 0 0 0 723 333 0 0 0 0 0 0 0 3 156 67 66 48 90 36 53 30 76 76 200 328 634 741 988
7 5 4 3 2 1 1 1 1 1 1 1 0 0 0 0 0 0 0 0 578 0 0 0 0 0 0 0 0 0 6 20 72 10 98 67 89 41 6 57 99 331 483 628 951
6 4 2 2 1 1 1 3 3 1 1 0 1 1 0 0 0 0 0 1 0 0 0 0 0 0 0 0 0 0 5 5 4 10 23 189 145 35 11 7 97 366 409 542 856
4 6 5 3 1 0 2 5 4 1 1 1 1 0 0 0 0 0 0 0 0 0 0 0 0 0 0 0 0 1 2 0 3 10 5 141 76 135 25 10 202 517 468 526 658
4 2 4 3 0 0 1 3 1 1 2 2 1 0 0 0 0 0 0 0 0 0 0 0 0 0 0 0 0 0 0 1 0 4 3 22 57 5 90 210 268 514 565 486 585
3 3 3 1 0 0 2 2 0 1 1 0 1 0 0 0 0 0 0 0 0 0 0 0 0 0 0 0 0 0 0 16 65 6 6 5 107 136 169 176 233 400 614 536 552
5 6 4 2 1 1 0 0 0 0 0 0 0 0 0 0 0 0 0 0 0 0 0 0 0 0 0 0 0 0 0 7 14 19 103 59 43 215 344 116 280 285 489 564 605
6 3 5 3 0 0 0 0 0 0 0 0 0 0 0 0 0 0 0 0 0 0 0 0 0 0 0 0 0 4 11 78 194 13 191 79 143 353 471 325 85 167 230 448 519
6 6 3 0 0 0 0 0 0 0 0 0 0 0 0 0 0 0 0 0 0 0 0 0 0 0 0 0 0 12 64 38 60 23 85 163 173 312 529 494 229 176 110 267 398
5 5 2 0 0 0 0 0 0 0 0 0 0 0 0 0 0 0 0 0 0 0 0 0 0 0 0 0 0 0 27 69 41 30 46 139 195 342 734 491 506 340 186 145 237
4 7 0 0 0 0 0 0 0 0 0 0 0 0 0 0 0 0 0 0 0 0 0 0 0 0 0 0 0 0 7 45 79 144 108 155 128 176 246 685 554 405 395 254 180
5 4 0 0 0 0 0 0 0 0 0 0 0 0 0 0 0 0 0 0 0 0 0 0 0 0 0 0 0 0 0 14 62 44 129 42 170 169 146 208 627 608 510 355 247
11 1 0 0 0 0 0 0 0 0 0 0 0 0 0 0 0 0 0 0 0 0 0 0 0 0 0 0 0 0 0 14 35 141 174 63 111 75 74 158 266 571 676 470 286
1 0 0 0 0 0 0 0 0 0 0 0 0 0 0 0 0 0 0 0 0 0 0 0 0 0 0 0 0 0 0 23 30 70 102 155 112 149 36 142 206 243 572 761 517
0 0 0 0 0 0 0 0 0 0 0 0 0 0 0 0 0 0 0 0 0 0 0 0 0 0 0 0 0 0 0 16 59 66 40 84 149 145 166 117 88 95 139 459 785
0 0 0 0 0 0 0 0 0 0 0 0 0 0 0 0 0 0 0 0 0 0 0 0 0 0 0 0 0 0 0 0 24 46 47 43 64 79 118 45 86 69 44 94 560
0 0 0 0 0 0 0 0 0 0 0 0 0 0 0 0 0 0 0 0 0 0 0 0 0 0 0 0 0 0 0 0 29 77 69 62 58 34 41 90 75 45 25 42 175
0 0 0 0 0 0 0 0 0 0 0 0 0 0 0 0 0 0 0 0 0 0 0 0 0 0 0 0 0 0 0 0 13 104 88 78 79 61 71 37 8 40 14 22 52
0 0 0 0 0 0 0 0 0 0 0 0 0 0 0 0 0 0 0 0 0 0 0 0 0 0 0 0 0 0 0 0 4 44 69 85 85 69 130 44 14 8 12 38 58
0 0 0 0 2 0 0 0 0 0 0 0 0 0 0 0 0 0 0 0 0 0 0 0 0 0 0 0 0 0 0 0 23 45 28 120 81 28 22 21 28 12 5 6 49
3 0 0 0 0 0 0 0 0 0 0 0 0 0 0 0 0 0 0 0 0 0 0 0 0 0 0 0 0 0 0 0 0 4 138 84 7 52 47 38 81 63 10 43 69
35 11 10 10 0 0 0 0 1 0 0 0 0 0 0 0 0 0 0 0 0 0 0 0 0 0 0 0 0 0 0 0 0 0 3 12 50 97 78 37 13 7 0 22 88
61 47 49 64 62 6 1 12 28 19 27 7 1 0 0 0 0 0 0 0 0 0 0 0 0 0 0 1 9 2 0 0 0 0 0 0 46 51 168 105 43 21 3 0 13
104 104 69 91 102 6 4 2 0 0 2 0 3 2 0 0 0 0 0 0 0 0 0 0 0 10 1 0 0 2 4 1 0 0 0 0 0 28 44 102 64 2 6 0 0
92 191 155 17 103 108 5 7 11 5 1 0 0 0 24 3 0 1 19 1 0 21 12 6 31 179 85 40 67 77 0 0 2 2 0 0 0 0 23 89 124 23 4 8 26

GFSSW_con_sbcape_012.txt.gz
CAPE
4 3 3 2 1 1 1 1 1 0 0 0 0 1 0 1 0 0 0 0 0 1145 387 0 4 0 0 0 1 54 33 120 14 3 0 0 0 72 192 234 577 493 380 534 600
4 4 1 1 0 0 0 1 1 0 0 0 0 1 0 0 0 0 0 12 137 487 0 0 0 0 0 0 2 96 42 9 2 18 2 11 0 0 0 16 246 604 508 535 713
2 2 1 0 0 0 0 0 0 0 0 0 0 1 0 0 0 0 62 416 451 73 0 0 0 0 0 0 7 6 25 1 14 24 10 6 4 0 0 4 79 704 640 556 859
2 2 1 0 0 0 0 0 0 0 0 0 0 0 0 0 0 0 26 27 471 0 0 0 0 0 0 0 0 10 5 32 8 98 61 11 20 7 6 22 77 711 784 682 746
4 4 4 0 0 0 0 0 0 0 0 0 0 1 0 0 0 0 30 0 0 0 0 0 0 0 0 0 0 0 24 20 11 9 35 16 11 27 21 30 42 266 701 790 693
1 4 4 4 4 1 0 0 0 0 0 0 1 1 0 0 0 0 0 0 0 0 0 0 0 0 0 0 0 0 0 0 1 1 6 147 57 1 5 16 38 167 405 705 720
3 6 6 4 2 1 1 0 0 0 0 1 2 0 0 0 0 0 0 0 0 0 0 0 0 0 0 0 0 0 0 2 0 0 26 9 36 41 4 3 72 80 233 465 657
3 5 4 3 1 1 0 0 0 0 0 2 1 0 0 0 0 0 0 0 0 0 0 0 0 0 0 0 0 0 0 0 0 1 1 2 122 0 35 2 4 133 160 298 418
4 4 4 3 1 0 0 0 0 0 0 0 0 0 0 0 0 0 0 0 0 0 0 0 0 0 0 0 0 0 0 0 0 1 7 13 40 141 144 56 17 105 164 173 508
6 5 3 2 0 0 0 0 0 0 0 0 0 0 0 0 0 0 0 0 0 0 0 0 0 0 0 0 0 0 0 1 17 37 28 151 114 64 98 85 116 19 104 260 219
7 5 2 0 0 0 0 0 0 0 0 0 0 0 0 0 0 0 0 0 0 0 0 0 0 0 0 0 0 0 1 0 0 45 14 252 3 0 0 186 73 118 85 172 283
5 4 1 0 0 0 0 0 0 0 0 0 0 0 0 0 0 0 0 0 0 0 0 0 0 0 0 0 0 0 0 5 14 60 65 193 202 40 184 391 139 85 34 52 47
2 2 0 0 0 0 0 0 0 0 0 0 0 0 0 0 0 0 0 0 0 0 0 0 0 0 0 0 0 0 0 0 1 25 23 59 123 454 321 180 226 73 67 20 65
1 1 0 0 0 0 0 0 0 0 0 0 0 0 0 0 0 0 0 0 0 0 0 0 0 0 0 0 0 0 0 0 0 34 31 33 28 70 114 434 203 204 110 97 65
3 1 0 0 0 0 0 0 0 0 0 0 0 0 0 0 0 0 0 0 0 0 0 0 0 0 0 0 0 0 0 0 0 19 37 189 106 319 333 406 578 240 290 241 220
2 0 0 0 0 0 0 0 0 0 0 0 0 0 0 0 0 0 0 0 0 0 0 0 0 0 0 0 0 0 0 0 0 1 9 64 47 84 238 78 35 381 396 440 406
0 0 0 0 0 0 0 0 0 0 0 0 0 0 0 0 0 0 0 0 0 0 0 0 0 0 0 0 0 0 0 0 0 18 6 40 100 185 237 178 61 25 89 595 637
0 0 0 0 0 0 0 0 0 0 0 0 0 0 0 0 0 0 0 0 0 0 0 0 0 0 0 0 0 0 0 0 0 3 12 13 31 96 193 68 42 65 10 424 746
0 0 0 0 0 0 0 0 0 0 0 0 0 0 0 0 0 0 0 0 0 0 0 0 0 0 0 0 0 0 0 0 0 1 21 24 29 19 125 144 26 1 48 197 709
0 0 0 0 0 0 0 0 0 0 0 0 0 0 0 0 0 0 0 0 0 0 0 0 0 0 0 0 0 0 0 0 0 3 23 18 86 113 132 353 78 94 60 64 43
0 0 0 0 0 0 0 0 0 0 0 0 0 0 0 0 0 0 0 0 0 0 0 0 0 0 0 0 0 0 0 0 0 0 13 38 29 148 417 729 401 163 72 41 32
2 0 0 7 4 9 0 0 0 0 0 0 0 0 0 0 0 0 0 0 0 0 0 0 0 0 0 0 0 0 0 0 0 0 0 0 7 29 333 167 266 92 95 53 49
14 0 0 0 1 0 0 0 0 0 0 0 0 0 0 0 0 0 0 0 0 0 0 0 0 0 0 0 0 0 0 0 0 0 0 21 0 2 90 5 361 136 99 200 205
38 3 0 0 0 11 13 0 0 0 0 0 0 0 0 0 0 0 0 0 0 0 29 2 0 0 0 0 0 0 0 0 0 0 0 0 5 33 300 259 141 378 96 188 523
58 27 20 11 0 3 4 24 7 9 0 1 4 0 0 0 0 0 0 0 0 6 5 0 0 0 0 0 0 0 0 0 0 0 0 0 0 27 199 379 111 282 272 155 604
34 83 73 48 14 1 0 2 0 6 29 0 0 0 0 0 0 0 0 0 0 0 0 0 2 0 0 0 0 0 10 0 0 0 0 0 0 0 8 111 242 209 88 276 259
24 64 125 51 27 45 6 6 12 11 9 11 5 4 0 0 0 0 0 0 0 0 26 27 0 17 0 0 1 42 0 3 3 0 0 0 0 0 14 96 415 649 472 408 339

GFSSW_con_sbcape_018.txt.gz
CAPE
1 1 0 0 0 0 0 0 0 0 0 0 0 1 2 4 0 0 0 0 0 1267 942 181 174 85 479 844 259 299 5 0 0 6 203 238 314 429 371 291 333 348 206 193 143
2 1 1 0 0 0 0 0 0 0 0 0 0 0 2 3 0 0 0 0 0 235 0 10 4 0 60 244 531 172 0 2 8 20 69 247 344 501 298 269 349 341 251 186 195
3 1 0 0 0 0 0 0 0 0 0 0 0 0 1 2 0 0 0 0 0 115 0 0 0 0 0 0 0 18 0 0 1 49 147 363 468 429 327 283 382 331 294 234 253
3 1 0 0 1 0 0 0 0 0 0 0 0 0 1 0 0 0 88 198 0 0 0 0 0 0 0 0 0 0 0 0 63 55 9 257 532 540 459 444 364 441 345 271 249
1 0 1 0 0 0 0 0 1 0 0 0 0 1 0 0 0 0 0 80 0 0 0 0 0 0 0 0 0 0 0 5 63 41 10 11 256 666 522 424 481 436 438 352 255
3 4 4 4 3 3 3 2 2 0 0 0 0 1 0 0 0 0 0 0 0 0 0 0 0 0 0 0 0 0 0 0 5 21 20 1 24 98 354 445 763 620 548 466 321
8 6 4 3 3 3 2 1 1 0 0 0 0 0 0 0 0 0 0 0 0 0 0 0 0 0 0 0 0 0 0 0 0 0 0 33 31 489 554 503 843 751 625 527 437
8 9 5 2 3 2 1 0 0 0 0 0 0 0 0 0 0 0 0 0 0 0 0 0 0 0 0 0 0 0 0 0 0 0 0 4 19 519 684 581 542 797 690 526 455
5 5 4 3 1 0 0 0 0 0 0 0 0 0 0 0 0 0 0 0 0 0 0 0 0 0 0 0 0 0 0 0 0 0 39 20 7 2 717 606 506 448 714 718 646
6 4 3 1 0 0 0 0 0 0 0 0 0 0 0 0 0 0 0 0 0 0 0 0 0 0 0 0 0 0 0 0 0 0 11 4 2 0 739 651 611 530 430 438 439
7 6 3 1 0 0 0 0 0 0 0 0 0 0 0 0 0 0 0 0 0 0 0 0 0 0 0 0 0 0 0 0 0 0 2 3 1 0 238 548 608 561 509 446 430
6 4 3 0 0 0 0 0 0 0 0 0 0 0 0 0 0 0 0 0 0 0 0 0 0 0 0 0 0 0 0 0 0 0 0 4 2 0 17 109 348 377 405 441 382
5 3 1 1 0 0 0 0 0 0 0 0 0 0 0 0 0 0 0 0 0 0 0 0 0 0 0 0 0 0 0 0 0 0 0 5 42 0 0 0 9 96 155 227 243
4 2 1 2 0 0 0 0 0 0 0 0 0 0 0 0 0 0 0 0 0 0 0 0 0 0 0 0 0 0 0 0 0 0 0 2 7 34 0 0 0 0 2 80 106
3 1 0 0 0 0 0 0 0 0 0 0 0 0 0 0 0 0 0 0 0 0 0 0 0 0 0 0 0 0 0 0 0 0 0 0 0 0 2 2 0 0 0 35 42
2 0 0 0 0 0 0 0 0 0 0 0 0 0 0 0 0 0 0 0 0 0 0 0 0 0 0 0 0 0 0 0 0 0 0 0 0 0 0 3 15 0 34 2 17
0 0 0 0 0 0 0 0 0 0 0 0 0 0 0 0 0 0 0 0 0 0 0 0 0 0 0 0 0 0 0 0 0 0 0 0 0 0 0 0 0 18 0 0 3
0 0 0 0 0 0 0 0 0 0 0 0 0 0 0 0 0 0 0 0 0 0 0 0 0 0 0 0 0 0 0 0 0 0 0 0 0 0 0 0 0 10 0 0 0
0 0 0 0 0 0 0 0 0 0 0 0 0 0 0 0 0 0 0 0 0 0 0 0 0 0 0 0 0 0 0 0 0 0 0 0 0 0 0 0 0 3 0 0 0
0 0 0 0 0 0 0 0 0 0 0 0 0 0 0 0 0 0 0 0 0 0 0 0 0 0 0 0 0 0 0 0 0 0 0 0 0 0 0 0 0 13 5 2 1
0 0 0 0 0 0 0 0 0 0 0 0 0 0 0 0 0 0 0 0 0 0 0 0 0 0 0 0 0 0 0 0 0 0 0 0 0 0 0 0 0 0 25 33 32
0 0 0 0 0 0 0 0 0 0 0 0 0 0 0 0 0 0 0 0 0 0 0 0 0 0 0 0 0 0 0 0 0 0 0 0 0 0 0 0 0 5 33 71 72
0 0 0 0 0 0 0 0 0 0 0 0 0 0 0 0 0 0 0 0 0 0 0 0 0 0 0 0 0 0 0 0 0 0 0 0 0 0 0 0 0 10 5 33 48
0 0 0 0 0 0 0 0 0 0 0 0 0 0 0 0 0 0 0 0 0 0 0 0 0 0 0 0 0 0 0 0 0 0 0 0 0 0 0 0 0 0 4 0 0
0 0 0 0 0 0 1 2 0 0 0 0 0 0 0 0 0 0 0 0 0 0 0 0 0 0 0 0 0 0 0 0 0 0 0 0 0 0 0 0 0 0 0 9 0
7 8 0 0 0 0 0 2 0 0 0 0 1 0 0 0 0 5 0 0 0 0 0 0 0 0 0 0 0 0 0 0 0 0 0 0 0 0 0 0 0 0 0 0 0
25 23 12 9 0 0 0 0 0 0 0 11 5 3 0 0 0 0 0 0 0 0 0 0 0 0 0 0 0 0 0 0 0 0 0 0 0 0 0 0 0 0 0 0 0

GFSSW_con_sbcape_021.txt.gz
CAPE
5 3 3 2 1 1 1 1 0 0 0 0 0 0 1 4 1 0 0 0 0 1490 1946 1581 760 768 804 1097 420 69 4 0 0 0 254 291 350 289 248 170 104 209 108 74 145
5 4 2 2 1 1 1 0 0 0 0 0 0 0 1 3 0 0 0 0 0 1110 910 831 296 592 557 635 687 313 4 15 0 0 323 360 389 334 294 256 264 161 170 194 179
6 4 3 3 2 1 1 1 0 0 0 0 0 0 1 2 0 0 0 0 17 896 0 8 3 14 44 0 572 253 200 0 1 5 350 429 438 342 345 306 238 155 220 220 145
4 3 4 4 3 2 2 1 1 0 0 0 0 0 0 0 0 0 417 44 2 0 0 0 0 0 0 0 0 0 13 12 1 61 346 423 502 375 342 276 279 193 182 164 163
1 2 1 1 1 1 1 1 1 0 0 0 0 0 0 0 0 0 17 0 0 0 0 0 0 0 0 0 0 0 0 0 0 0 318 404 562 528 379 513 339 272 198 187 210
3 7 6 6 7 3 4 4 2 1 0 1 0 0 0 0 0 0 0 0 0 0 0 0 0 0 0 0 0 0 0 0 0 0 38 517 612 626 490 533 488 369 248 257 237
9 7 6 6 6 5 4 1 3 1 0 2 2 0 0 0 0 0 0 0 0 0 0 0 0 0 0 0 0 0 0 0 0 0 14 417 462 625 561 577 592 472 341 319 260
11 8 6 8 7 5 0 1 2 0 0 0 3 0 0 0 0 0 0 0 0 0 0 0 0 0 0 0 0 0 0 0 0 0 0 0 8 571 445 638 599 505 460 369 266
6 5 5 5 4 2 0 1 0 0 0 1 0 0 0 0 0 0 0 0 0 0 0 0 0 0 0 0 0 0 0 0 0 0 0 0 0 406 435 701 633 596 575 467 343
9 6 4 5 3 0 0 0 0 0 0 0 0 0 0 0 0 0 0 0 0 0 0 0 0 0 0 0 0 0 0 0 0 0 0 0 0 403 439 746 758 697 667 601 461
12 8 4 3 1 0 0 0 0 0 0 0 0 0 0 0 0 0 0 0 0 0 0 0 0 0 0 0 0 0 0 0 0 0 0 0 0 277 444 464 766 732 704 638 477
7 5 3 4 0 0 0 0 0 0 0 0 0 0 0 0 0 0 0 0 0 0 0 0 0 0 0 0 0 0 0 0 0 0 0 0 0 11 394 403 473 621 720 667 628
5 3 2 3 0 0 0 0 0 0 0 0 0 0 0 0 0 0 0 0 0 0 0 0 0 0 0 0 0 0 0 0 0 0 0 0 0 0 371 411 460 458 450 487 491
3 1 0 3 0 0 0 0 0 0 0 0 0 0 0 0 0 0 0 0 0 0 0 0 0 0 0 0 0 0 0 0 0 0 0 0 0 0 0 396 426 434 435 396 284
3 0 0 0 0 0 0 0 0 0 0 0 0 0 0 0 0 0 0 0 0 0 0 0 0 0 0 0 0 0 0 0 0 0 0 0 0 0 0 0 29 153 240 313 242
0 0 0 0 0 0 0 0 0 0 0 0 0 0 0 0 0 0 0 0 0 0 0 0 0 0 0 0 0 0 0 0 0 0 0 0 0 0 0 0 0 0 24 75 113
0 0 0 0 0 0 0 0 0 0 0 0 0 0 0 0 0 0 0 0 0 0 0 0 0 0 0 0 0 0 0 0 0 0 0 0 0 0 0 0 0 0 0 2 1
0 0 0 0 0 0 0 0 0 0 0 0 0 0 0 0 0 0 0 0 0 0 0 0 0 0 0 0 0 0 0 0 0 0 0 0 0 0 0 0 0 0 0 0 0
0 0 0 0 0 0 0 0 0 0 0 0 0 0 0 0 0 0 0 0 0 0 0 0 0 0 0 0 0 0 0 0 0 0 0 0 0 0 0 0 0 0 0 0 0
0 0 0 0 0 0 0 0 0 0 0 0 0 0 0 0 0 0 0 0 0 0 0 0 0 0 0 0 0 0 0 0 0 0 0 0 0 0 0 0 0 0 0 0 0
0 0 0 0 0 0 0 0 0 0 0 0 0 0 0 0 0 0 0 0 0 0 0 0 0 0 0 0 0 0 0 0 0 0 0 0 0 0 0 0 0 0 0 0 0
0 0 0 0 0 0 0 0 0 0 0 0 0 0 0 0 0 0 0 0 0 0 0 0 0 0 0 0 0 0 0 0 0 0 0 0 0 0 0 0 0 0 0 0 0
0 0 0 0 0 0 0 0 0 0 0 0 0 0 0 0 0 0 0 0 0 0 0 0 0 0 0 0 0 0 0 0 0 0 0 0 0 0 0 0 0 0 0 0 0
0 0 0 0 0 0 0 0 1 0 0 0 0 0 0 0 0 0 0 0 0 0 0 0 0 0 0 0 0 0 0 0 0 0 0 0 0 0 0 0 0 0 0 0 0
0 0 0 0 0 0 0 0 2 0 0 0 0 0 4 0 0 0 0 0 0 0 0 0 0 0 0 0 0 0 0 0 0 0 0 0 0 0 0 0 0 0 0 0 0
5 15 15 0 0 3 0 0 16 0 0 0 9 0 0 0 0 0 0 0 0 0 0 0 0 0 0 0 0 0 0 0 0 0 0 0 0 0 0 0 0 0 0 0 0
3 8 15 16 8 3 0 0 0 0 1 0 0 0 0 0 0 0 0 0 0 0 0 0 0 0 0 0 0 0 0 0 0 0 0 0 0 0 0 0 0 0 0 0 0

GFSSW_con_sbcape_024.txt.gz
CAPE
7 6 4 4 4 4 4 3 3 2 1 0 0 0 1 3 1 0 0 0 0 146 1326 866 608 373 771 973 566 162 24 0 0 60 57 210 206 150 88 47 72 93 63 44 93
4 4 4 5 3 3 2 3 3 2 1 1 0 1 1 4 0 0 0 0 140 1391 932 468 668 669 719 687 922 418 2 0 0 0 167 299 294 221 110 50 136 62 47 101 97
5 4 3 4 4 3 2 1 0 1 1 0 1 1 1 2 0 0 0 0 1180 1586 721 351 540 684 434 154 783 540 489 0 0 0 207 363 332 245 157 106 184 113 109 136 116
3 2 2 4 3 2 2 1 1 0 1 2 2 1 0 0 0 0 86 0 936 233 198 8 96 141 0 145 194 66 4 207 2 83 317 419 303 322 185 213 236 121 134 166 150
2 3 3 3 3 3 3 2 3 0 1 2 3 1 0 0 0 0 0 0 258 0 0 0 0 0 0 0 0 24 3 0 0 0 298 330 402 389 323 366 234 156 201 192 173
8 11 11 10 9 6 6 10 9 2 1 2 4 1 0 0 0 0 0 0 0 0 0 0 0 0 0 0 0 0 0 0 0 0 0 277 404 425 377 298 207 279 221 191 149
12 13 11 10 10 7 3 4 4 3 3 4 4 0 0 0 0 0 0 0 0 0 0 0 0 0 0 0 0 0 0 0 0 0 0 185 381 506 360 307 271 268 209 175 136
9 7 8 7 9 4 0 1 3 0 0 3 5 0 0 0 0 0 0 0 0 0 0 0 0 0 0 0 0 0 0 0 0 0 0 252 233 519 396 368 384 297 202 202 180
11 9 7 5 3 0 0 0 0 1 1 4 0 0 0 0 0 0 0 0 0 0 0 0 0 0 0 0 0 0 0 0 0 0 0 139 45 145 392 429 441 396 253 246 213
9 8 6 8 3 0 0 0 0 1 0 0 0 0 0 0 0 0 0 0 0 0 0 0 0 0 0 0 0 0 0 0 0 0 0 75 0 24 355 448 460 468 347 284 235
8 6 3 3 0 0 0 0 0 0 0 0 0 0 0 0 0 0 0 0 0 0 0 0 0 0 0 0 0 0 0 0 0 0 0 0 0 200 294 412 469 466 411 331 291
3 3 3 0 0 0 0 0 0 0 0 0 0 0 0 0 0 0 0 0 0 0 0 0 0 0 0 0 0 0 0 0 0 0 0 0 0 107 267 431 481 471 452 421 370
3 2 3 1 0 0 0 0 0 0 0 0 0 0 0 0 0 0 0 0 0 0 0 0 0 0 0 0 0 0 0 0 0 0 0 0 0 0 223 303 462 453 495 499 458
2 1 3 2 0 0 0 0 0 0 0 0 0 0 0 0 0 0 0 0 0 0 0 0 0 0 0 0 0 0 0 0 0 0 0 0 0 0 4 263 294 399 508 516 506
2 1 0 0 0 0 0 0 0 0 0 0 0 0 0 0 0 0 0 0 0 0 0 0 0 0 0 0 0 0 0 0 0 0 0 0 0 0 0 206 258 272 283 469 489
2 0 1 0 0 0 0 0 0 0 0 0 0 0 0 0 0 0 0 0 0 0 0 0 0 0 0 0 0 0 0 0 0 0 0 0 0 0 0 21 277 308 321 307 256
0 0 0 0 0 0 0 0 0 0 0 0 0 0 0 0 0 0 0 0 0 0 0 0 0 0 0 0 0 0 0 0 0 0 0 0 0 0 0 0 3 168 250 253 276
0 0 0 0 0 0 0 0 0 0 0 0 0 0 0 0 0 0 0 0 0 0 0 0 0 0 0 0 0 0 0 0 0 0 0 0 0 0 0 0 0 0 0 20 63
0 0 0 0 0 0 0 0 0 0 0 0 0 0 0 0 0 0 0 0 0 0 0 0 0 0 0 0 0 0 0 0 0 0 0 0 0 0 0 0 0 0 0 0 0
0 0 0 0 0 0 0 0 0 0 0 0 0 0 0 0 0 0 0 0 0 0 0 0 0 0 0 0 0 0 0 0 0 0 0 0 0 0 0 0 0 0 0 0 0
0 0 0 0 0 0 0 0 0 0 0 0 0 0 0 0 0 0 0 0 0 0 0 0 0 0 0 0 0 0 0 0 0 0 0 0 0 0 0 0 0 0 0 0 0
0 0 0 0 0 0 0 0 0 0 0 0 0 0 0 0 0 0 0 0 0 0 0 0 0 0 0 0 0 0 0 0 0 0 0 0 0 0 0 0 0 0 0 0 0
0 0 0 0 0 0 0 0 0 0 0 0 0 0 0 0 0 0 0 0 0 0 0 0 0 0 0 0 0 0 0 0 0 0 0 0 0 0 0 0 0 0 0 0 0
0 0 0 0 0 0 1 0 0 0 0 0 0 0 0 0 0 0 0 0 0 0 0 0 0 0 0 0 0 0 0 0 0 0 0 0 0 0 0 0 0 0 0 0 0
0 0 0 0 0 1 0 0 2 0 0 0 2 3 0 0 0 0 0 0 0 0 0 0 0 0 0 0 0 0 0 0 0 0 0 0 0 0 0 0 0 0 0 0 0
1 24 2 1 0 4 0 0 0 0 0 0 22 10 0 0 0 0 0 0 0 0 0 0 0 0 0 0 0 0 0 0 0 0 0 0 0 0 0 0 0 0 0 0 0
4 3 7 30 3 2 0 0 0 0 0 5 0 0 0 0 0 0 0 0 0 0 0 0 0 0 0 0 0 0 0 0 0 0 0 0 0 0 0 0 0 0 0 0 0

GFSSW_con_sbcape_027.txt.gz
CAPE
4 2 2 2 2 2 1 2 1 0 1 0 1 1 2 4 1 0 0 0 0 148 415 158 159 272 785 848 911 314 346 127 11 231 92 439 504 227 134 97 74 92 54 78 181
4 2 3 3 2 2 2 3 2 1 0 0 1 2 2 3 0 0 0 0 0 971 37 4 67 287 586 793 1047 1000 443 114 4 15 62 474 537 366 217 107 125 167 110 131 205
4 3 4 4 3 3 2 2 1 1 1 0 2 3 1 2 0 0 0 0 78 787 0 8 179 246 436 468 1007 1049 312 231 9 0 100 544 515 407 310 153 201 244 189 205 206
5 5 5 5 4 3 2 1 2 2 3 2 2 3 0 0 0 0 196 0 472 13 0 102 280 184 173 315 747 492 322 90 11 0 381 573 572 487 302 110 135 301 198 249 262
6 5 5 4 3 3 4 7 10 5 3 3 3 3 0 0 0 0 0 44 469 0 0 0 204 60 14 121 36 419 31 0 6 0 0 514 620 619 501 315 337 361 234 228 218
7 10 10 10 8 6 6 10 6 2 1 3 4 1 0 0 0 0 0 1 18 0 0 0 50 0 0 0 0 0 0 0 0 0 0 274 305 573 637 508 479 364 295 219 207
8 9 11 10 5 4 7 5 2 1 1 2 3 0 0 0 0 0 0 0 0 0 0 0 0 0 0 0 0 0 0 0 0 0 0 0 123 477 578 549 492 373 367 304 269
4 4 7 9 8 3 2 1 0 0 0 0 4 0 0 0 0 0 0 0 0 0 0 0 0 0 0 0 0 0 0 0 0 0 0 0 0 75 627 654 631 400 396 398 356
6 6 8 9 3 0 0 0 0 1 4 3 0 0 0 0 0 0 0 0 0 0 0 0 0 0 0 0 0 0 0 0 0 0 0 10 0 19 658 703 743 496 458 471 471
8 8 7 4 0 0 0 0 0 0 0 1 0 0 0 0 0 0 0 0 0 0 0 0 0 0 0 0 0 0 0 0 0 0 0 13 1 17 638 702 777 661 529 521 469
8 8 8 0 0 0 0 0 0 0 0 0 0 0 0 0 0 0 0 0 0 0 0 0 0 0 0 0 0 0 0 0 0 0 0 0 0 53 611 735 800 748 642 573 578
7 6 6 0 0 0 0 0 0 0 0 0 0 0 0 0 0 0 0 0 0 0 0 0 0 0 0 0 0 0 0 0 0 0 0 0 0 7 448 732 830 855 754 649 688
9 7 1 3 0 0 0 0 0 0 0 0 0 0 0 0 0 0 0 0 0 0 0 0 0 0 0 0 0 0 0 0 0 0 0 0 0 0 165 468 734 859 834 693 760
6 5 0 4 0 0 0 0 0 0 0 0 0 0 0 0 0 0 0 0 0 0 0 0 0 0 0 0 0 0 0 0 0 0 0 0 0 0 0 324 510 742 826 844 809
6 2 0 0 0 0 0 0 0 0 0 0 0 0 0 0 0 0 0 0 0 0 0 0 0 0 0 0 0 0 0 0 0 0 0 0 0 0 0 23 356 606 786 803 823
2 0 0 0 0 0 0 0 0 0 0 0 0 0 0 0 0 0 0 0 0 0 0 0 0 0 0 0 0 0 0 0 0 0 0 0 0 0 0 0 162 459 671 863 834
0 0 0 0 0 0 0 0 0 0 0 0 0 0 0 0 0 0 0 0 0 0 0 0 0 0 0 0 0 0 0 0 0 0 0 0 0 0 0 0 0 120 521 681 860
0 0 0 0 0 0 0 0 0 0 0 0 0 0 0 0 0 0 0 0 0 0 0 0 0 0 0 0 0 0 0 0 0 0 0 0 0 0 0 0 0 0 179 519 659
0 0 0 0 0 0 0 0 0 0 0 0 0 0 0 0 0 0 0 0 0 0 0 0 0 0 0 0 0 0 0 0 0 0 0 0 0 0 0 0 0 0 0 235 603
0 0 0 0 0 0 0 0 0 0 0 0 0 0 0 0 0 0 0 0 0 0 0 0 0 0 0 0 0 0 0 0 0 0 0 0 0 0 0 0 0 0 0 0 33
0 0 0 0 0 0 0 0 0 0 0 0 0 0 0 0 0 0 0 0 0 0 0 0 0 0 0 0 0 0 0 0 0 0 0 0 0 0 0 0 0 0 0 0 0
0 0 0 0 0 0 0 0 0 0 0 0 0 0 0 0 0 0 0 0 0 0 0 0 0 0 0 0 0 0 0 0 0 0 0 0 0 0 0 0 0 0 0 0 22
3 0 0 0 0 3 0 0 0 3 3 8 0 0 0 0 0 0 0 0 0 0 0 0 0 0 0 0 0 0 0 0 0 0 0 0 0 0 0 0 0 0 0 0 0
0 0 0 0 0 2 3 0 0 0 28 14 14 0 0 0 0 0 0 0 0 0 0 0 0 0 0 0 0 0 0 0 0 0 0 0 0 0 0 0 0 0 0 0 0
0 0 3 0 3 5 10 0 0 6 0 10 24 11 7 0 0 0 0 0 0 0 0 0 0 0 0 0 0 0 0 0 0 0 0 0 0 0 0 0 0 0 0 0 0
11 28 19 7 4 4 1 0 2 10 6 1 22 25 8 24 3 5 0 0 0 0 0 0 0 0 0 0 0 0 0 0 0 0 0 0 0 0 0 0 0 0 0 0 0
43 27 14 9 39 23 10 19 14 17 2 16 20 15 2 1 0 0 0 0 0 0 0 0 0 0 0 0 0 0 0 0 0 0 0 0 0 0 0 0 0 0 0 0 0

GFSSW_con_sbcape_030.txt.gz
CAPE
6 4 4 4 5 3 2 2 2 2 1 1 1 2 1 3 0 0 0 0 0 80 421 36 471 574 669 748 1040 992 754 275 190 254 337 666 648 472 251 248 229 242 301 415 438
6 4 5 4 3 3 3 3 2 2 2 2 2 1 2 0 0 0 0 0 0 1218 0 1 398 316 435 487 871 934 535 156 43 10 67 583 655 627 367 261 288 341 374 458 545
4 3 2 2 2 3 3 1 2 2 2 3 3 1 0 0 0 0 0 0 0 493 0 0 11 42 33 261 648 614 357 72 9 0 33 582 724 744 373 261 360 592 592 586 598
3 2 2 2 1 1 1 2 3 3 3 3 4 1 0 0 0 0 24 0 98 0 0 0 0 7 1 100 269 377 115 76 27 0 0 255 687 751 572 198 343 623 610 689 696
3 3 5 4 1 1 4 8 6 1 2 3 4 1 0 0 0 0 0 0 0 0 0 0 0 0 0 13 58 330 23 0 7 0 0 0 366 501 650 490 434 623 598 681 753
3 6 11 8 5 5 8 8 4 0 2 3 4 1 0 0 0 0 0 0 0 0 0 0 0 0 0 0 8 0 1 0 0 0 0 0 96 327 463 703 684 700 671 684 695
5 8 8 5 5 7 7 3 0 0 1 3 3 0 0 0 0 0 0 0 0 0 0 0 0 0 0 0 0 0 0 0 0 0 0 0 9 158 283 881 906 762 725 703 724
5 8 7 4 5 2 1 1 0 0 0 2 3 0 0 0 0 0 0 0 0 0 0 0 0 0 0 0 0 0 0 0 0 0 0 0 12 44 280 901 1034 920 728 658 664
7 6 3 3 2 1 0 0 0 1 1 5 0 0 0 0 0 0 0 0 0 0 0 0 0 0 0 0 0 0 0 0 0 0 0 0 2 9 202 741 956 1046 797 713 706
8 5 2 1 1 0 0 0 0 0 0 0 0 0 0 0 0 0 0 0 0 0 0 0 0 0 0 0 0 0 0 0 0 0 0 0 0 4 284 464 766 1035 936 900 835
6 2 2 0 0 0 0 0 0 0 0 0 0 0 0 0 0 0 0 0 0 0 0 0 0 0 0 0 0 0 0 0 0 0 0 0 0 0 100 437 645 1055 1027 1012 984
4 1 0 0 0 0 0 0 0 0 0 0 0 0 0 0 0 0 0 0 0 0 0 0 0 0 0 0 0 0 0 0 0 0 0 0 0 1 34 478 586 967 1088 1143 1106
4 1 0 0 0 0 0 0 0 0 0 0 0 0 0 0 0 0 0 0 0 0 0 0 0 0 0 0 0 0 0 0 0 0 0 0 0 0 1 248 522 762 956 1074 1180
3 0 0 0 0 0 0 0 0 0 0 0 0 0 0 0 0 0 0 0 0 0 0 0 0 0 0 0 0 0 0 0 0 0 0 0 0 17 6 50 192 504 887 973 1219
1 0 0 0 0 0 0 0 0 0 0 0 0 0 0 0 0 0 0 0 0 0 0 0 0 0 0 0 0 0 0 0 0 0 0 0 0 0 0 0 0 104 440 853 1041
0 0 0 0 0 0 0 0 0 0 0 0 0 0 0 0 0 0 0 0 0 0 0 0 0 0 0 0 0 0 0 0 0 0 0 0 0 0 0 0 0 27 238 764 949
0 0 0 0 0 0 0 0 0 0 0 0 0 0 0 0 0 0 0 0 0 0 0 0 0 0 0 0 0 0 0 0 0 0 0 0 0 0 0 0 0 0 17 643 973
0 0 0 0 0 0 0 0 0 0 0 0 0 0 0 0 0 0 0 0 0 0 0 0 0 0 0 0 0 0 0 0 0 0 0 0 0 0 0 0 0 0 0 171 724
0 0 0 0 0 0 0 0 0 1 1 0 0 0 0 0 0 0 0 0 0 0 0 0 0 0 0 0 0 0 0 0 0 0 0 0 0 0 0 0 0 0 0 0 349
0 0 0 0 0 0 0 0 5 5 2 0 0 0 0 0 0 0 0 0 0 0 0 0 0 0 0 0 0 0 0 0 0 0 0 0 0 0 0 0 0 0 0 0 207
0 0 0 0 0 0 0 0 0 2 9 1 6 8 4 1 0 0 0 0 0 0 0 0 0 0 0 0 0 0 0 0 0 0 0 0 0 0 0 0 0 0 0 0 94
0 0 0 0 1 0 1 0 0 15 33 32 20 5 17 13 1 1 2 0 0 0 0 0 0 0 0 0 0 0 0 0 0 0 0 0 0 0 0 0 0 0 0 0 22
0 0 0 0 1 2 3 7 5 24 52 41 61 72 17 24 9 7 11 0 0 0 0 0 0 0 0 0 0 0 0 0 0 0 0 0 0 0 0 0 0 0 0 0 0
4 7 10 10 11 23 19 68 62 40 45 24 75 55 62 16 12 5 11 0 0 0 0 0 0 0 0 0 0 0 0 0 0 0 0 0 0 0 0 0 0 0 0 0 0
26 20 19 42 56 54 41 101 73 55 55 52 85 23 43 34 28 16 10 1 0 0 0 0 0 0 0 0 0 0 0 0 0 0 0 0 0 0 0 0 0 0 0 0 0
16 18 32 34 23 23 24 105 80 27 17 52 40 12 8 40 15 15 10 17 7 0 0 0 0 0 0 0 0 0 0 0 0 0 0 0 0 0 0 0 0 0 0 0 0
35 37 42 8 38 49 36 40 17 13 49 33 40 50 51 18 10 16 15 5 1 0 0 0 0 0 0 0 0 0 0 0 0 0 0 0 0 0 0 0 0 0 0 0 0

GFSSW_con_sbcape_033.txt.gz
CAPE
5 4 2 2 2 2 2 2 1 1 3 2 2 1 0 1 0 0 0 0 0 0 0 0 14 289 361 429 618 739 605 452 54 27 135 67 12 94 236 408 456 427 715 643 402
3 2 1 2 1 1 0 1 2 1 2 3 3 2 0 0 0 0 0 0 0 0 0 0 27 236 334 204 363 484 77 320 69 36 109 207 39 28 193 279 399 605 818 562 595
2 1 1 0 0 0 1 1 1 1 3 2 2 2 0 0 0 0 0 0 0 109 0 0 0 127 81 44 216 326 255 292 37 17 205 208 144 46 90 249 409 798 870 674 708
2 1 0 0 0 1 0 1 1 1 1 1 2 1 0 0 0 0 0 0 0 0 0 0 0 15 3 7 79 123 175 125 35 9 36 194 236 292 112 57 404 722 843 815 731
1 2 3 2 1 2 4 5 1 0 1 1 2 0 0 0 0 0 9 0 0 0 0 0 0 0 0 1 15 72 138 94 86 24 24 61 329 381 372 105 265 695 876 940 907
3 4 5 6 4 6 6 5 2 0 0 1 4 0 0 0 0 0 0 0 0 0 0 0 0 0 0 2 17 50 62 99 27 31 4 1 182 323 628 426 578 670 856 913 919
3 4 4 2 3 4 3 1 0 0 0 5 5 0 0 0 0 0 0 0 0 0 0 0 0 0 0 0 0 51 0 14 30 0 0 0 64 254 539 780 741 711 824 884 965
2 3 1 2 2 0 0 0 0 0 0 1 3 0 0 0 0 0 0 0 0 0 0 0 0 0 0 0 0 0 1 0 0 0 0 0 46 74 266 761 945 843 697 774 908
3 4 2 0 0 0 0 0 0 0 0 1 0 0 0 0 0 0 0 0 0 0 0 0 0 0 0 0 0 0 0 0 7 0 0 0 6 37 183 512 858 1008 841 675 819
2 1 0 0 0 0 0 0 0 0 0 0 0 0 0 0 0 0 0 0 0 0 0 0 0 0 0 0 0 0 0 4 15 55 1 4 4 10 107 372 588 1016 1021 842 710
2 1 0 0 0 0 0 0 0 0 0 0 0 0 0 0 0 0 0 0 0 0 0 0 0 0 0 0 0 0 0 1 55 64 25 40 73 42 103 229 409 873 1075 981 856
1 0 0 0 0 0 0 0 0 0 0 0 0 0 0 0 0 0 0 0 0 0 0 0 0 0 0 0 0 0 0 1 10 51 17 56 56 66 70 150 301 755 943 1022 1056
1 0 0 0 0 0 0 0 0 0 0 0 0 0 0 0 0 0 0 0 0 0 0 0 0 0 0 0 0 0 0 0 0 11 25 10 26 33 51 88 244 568 972 909 1104
0 0 0 0 0 0 0 0 0 0 0 0 0 0 0 0 0 0 0 0 0 0 0 0 0 0 0 0 0 0 0 0 0 1 26 0 12 18 13 40 186 369 865 924 1001
0 0 0 0 0 0 0 0 0 0 0 0 0 0 0 0 0 0 0 0 0 0 0 0 0 0 0 0 0 0 0 0 0 0 1 0 27 28 37 31 60 168 579 746 974
0 0 0 0 0 0 0 0 0 0 0 0 0 0 0 0 0 0 0 0 0 0 0 0 0 0 0 0 0 0 0 0 0 0 0 0 0 0 18 35 56 64 135 449 630
0 0 0 0 0 0 0 0 0 0 0 0 0 0 0 0 0 0 0 0 0 0 0 0 0 0 0 0 0 0 0 0 0 0 0 0 0 0 1 6 20 26 69 132 424
0 0 0 0 0 0 0 0 0 0 0 0 0 0 0 0 0 0 0 0 0 0 0 0 0 0 0 0 0 0 0 0 0 0 0 0 0 0 0 0 4 41 37 75 239
0 0 0 0 0 0 0 10 15 26 0 0 0 0 0 0 0 0 0 0 0 0 0 0 0 0 0 0 0 0 0 0 0 0 0 0 0 0 0 0 0 1 0 25 199
0 0 0 0 0 0 21 59 27 1 0 0 0 1 0 7 0 0 0 0 0 0 0 0 0 0 0 0 0 0 0 0 0 0 0 0 0 0 0 0 0 0 0 0 47
0 0 0 0 0 14 38 52 0 0 0 1 0 0 0 1 0 4 2 0 0 0 0 0 0 0 0 0 0 0 0 0 0 0 0 0 0 0 0 0 0 0 0 0 0
0 1 0 0 6 22 42 14 8 35 34 54 39 15 0 7 3 0 0 0 0 0 0 0 0 0 0 0 0 0 0 0 0 0 0 0 0 0 0 0 0 0 0 0 0
0 0 4 0 14 34 31 48 51 89 64 72 45 49 41 35 6 6 5 0 0 0 0 0 0 0 4 0 0 0 0 0 0 0 0 0 0 0 0 0 0 0 0 0 0
9 12 5 19 32 49 72 91 106 91 99 98 117 47 12 7 3 3 7 0 0 0 0 0 0 0 0 0 0 0 0 0 0 0 0 0 0 0 0 0 0 0 0 0 0
21 14 8 15 27 32 61 87 97 140 125 110 130 89 49 36 3 16 9 19 1 0 0 0 0 0 0 4 0 0 0 0 0 0 0 0 0 0 0 0 0 0 0 0 0
49 18 11 40 16 21 64 122 127 145 126 133 144 80 49 53 55 8 24 7 7 1 0 0 0 0 0 0 0 0 0 0 0 0 0 0 0 0 0 0 0 0 0 0 0
97 49 43 11 24 28 75 71 35 79 58 164 146 77 49 38 38 26 16 12 3 11 2 2 0 11 6 0 0 0 0 0 0 0 0 0 0 0 0 0 0 0 0 0 0

GFSSW_con_sbcape_036.txt.gz
CAPE
2 1 1 1 0 0 1 1 1 1 1 1 2 2 2 4 1 0 0 0 0 13 0 0 0 0 123 437 262 274 230 300 191 40 8 16 115 265 306 447 652 801 380 349 335
2 0 0 0 0 0 0 1 1 1 1 2 2 1 1 2 0 0 0 0 0 0 0 0 0 0 67 180 119 226 14 1 119 22 143 17 7 84 177 232 808 624 480 290 275
0 0 0 0 0 0 0 0 1 1 1 0 0 1 0 0 0 0 0 0 0 0 0 0 0 0 32 57 43 128 122 11 22 50 91 13 10 94 57 217 858 677 460 339 313
0 0 0 0 0 0 0 0 0 1 1 1 1 1 0 0 0 0 0 0 0 0 0 0 0 0 27 17 22 132 34 70 35 49 48 27 14 26 54 164 873 715 485 474 402
0 1 3 2 0 0 0 1 0 0 0 1 1 2 0 0 0 0 7 0 0 0 0 0 0 0 1 0 2 42 78 92 17 64 199 25 117 110 105 370 658 766 625 589 612
4 5 4 2 3 2 1 0 0 0 0 3 3 2 0 0 0 0 0 0 0 0 0 0 0 0 0 0 4 45 135 75 91 104 16 48 118 48 34 126 470 764 708 667 598
3 4 2 1 1 0 0 0 0 0 0 2 6 0 0 0 0 0 0 0 0 0 0 0 0 0 0 0 0 10 31 70 70 43 30 2 46 240 140 213 400 692 806 773 644
3 2 1 0 0 0 0 0 0 0 0 0 2 0 0 0 0 0 0 0 0 0 0 0 0 0 0 0 10 7 24 39 55 65 17 0 0 87 366 446 474 556 661 877 821
2 2 2 1 0 0 0 0 0 0 0 1 0 0 0 0 0 0 0 0 0 0 0 0 0 0 0 0 5 15 11 37 65 27 5 0 0 19 377 412 662 560 516 610 976
2 1 0 0 0 0 0 0 0 0 0 0 0 0 0 0 0 0 0 0 0 0 0 0 0 0 0 0 0 2 0 10 21 16 1 2 0 34 27 364 690 851 622 675 690
1 0 0 0 0 0 0 0 0 0 0 0 0 0 0 0 0 0 0 0 0 0 0 0 0 0 0 0 0 0 0 0 10 13 8 0 0 34 49 54 442 884 903 713 677
0 0 0 0 0 0 0 0 0 0 0 0 0 0 0 0 0 0 0 0 0 0 0 0 0 0 0 0 0 0 0 0 0 25 19 34 24 53 56 52 18 620 963 869 615
0 0 0 0 0 0 0 0 0 0 0 0 0 0 0 0 0 0 0 0 0 0 0 0 0 0 0 0 0 0 0 0 1 2 10 12 40 96 63 41 110 487 834 945 892
0 0 0 0 0 0 0 0 0 0 0 0 0 0 0 0 0 0 0 0 0 0 0 0 0 0 0 0 0 0 0 0 0 12 29 65 69 99 56 52 103 133 702 796 1042
0 0 0 0 0 0 0 0 0 0 0 0 0 0 0 0 0 0 0 0 0 0 0 0 0 0 0 0 0 0 0 0 0 0 3 4 35 62 41 44 67 216 569 720 996
0 0 0 0 0 0 0 0 0 0 0 0 0 0 0 0 0 0 0 0 0 0 0 0 0 0 0 0 0 0 0 0 0 0 0 0 7 34 35 35 72 109 246 883 914
0 0 0 0 0 0 0 0 0 0 0 0 0 0 0 0 0 0 0 0 0 0 0 0 0 0 0 0 0 0 0 0 0 0 0 0 0 0 1 37 48 54 270 850 951
0 0 0 0 0 0 0 0 0 0 0 0 0 0 0 0 0 0 0 0 0 0 0 0 0 0 0 0 0 0 0 0 0 0 0 0 0 0 0 0 2 60 110 324 700
0 0 0 0 0 0 0 0 2 0 0 0 0 0 0 0 0 0 0 0 0 0 0 0 0 0 0 0 0 0 0 0 0 0 0 0 0 0 0 0 0 11 95 174 341
0 0 1 0 0 0 0 0 2 0 0 0 0 0 0 0 0 0 0 0 0 0 0 0 0 0 0 0 0 0 0 0 0 0 0 0 0 0 0 0 0 0 8 82 218
0 0 0 0 0 0 9 1 0 0 0 0 0 0 0 8 5 11 0 0 0 3 0 0 0 0 0 0 0 0 0 0 0 0 0 0 0 26 0 0 0 0 0 62 230
0 2 1 0 0 4 15 0 2 3 13 50 24 5 25 8 9 27 36 14 0 0 0 0 0 0 1 0 0 0 0 0 0 0 0 0 13 0 0 0 0 0 0 8 206
0 0 3 0 15 12 10 11 3 1 40 68 64 22 3 9 11 34 10 6 2 0 0 0 0 0 0 2 0 0 0 0 0 0 0 0 0 0 0 0 0 0 19 82 457
14 16 11 1 2 10 18 14 2 42 81 20 85 75 41 29 3 8 16 6 0 0 0 0 0 0 0 0 0 0 0 0 0 0 0 0 0 0 0 0 0 33 75 126 568
19 34 17 28 18 34 28 52 35 143 40 127 98 77 75 42 5 2 2 0 0 18 0 0 0 0 0 2 20 0 0 0 0 0 0 0 0 0 0 0 0 0 152 312 641
45 68 13 47 36 26 35 54 91 79 35 123 136 150 47 37 24 30 6 2 9 0 0 0 0 0 0 0 0 0 0 0 0 0 0 0 7 0 0 23 4 41 57 200 158
32 9 24 12 15 13 54 65 66 52 105 109 92 77 40 52 42 33 1 0 1 0 0 0 0 0 0 0 0 4 0 1 0 0 0 0 29 15 14 11 9 0 0 0 0

GFSSW_con_sbcape_039.txt.gz
CAPE
1 0 0 0 0 0 0 0 0 1 1 1 2 1 3 7 2 0 0 0 0 0 0 0 0 0 59 382 542 99 41 88 5 33 27 68 332 539 596 418 427 348 212 25 4
0 0 0 0 0 0 0 0 1 1 1 1 1 1 2 6 0 0 0 0 0 0 0 0 0 0 1 230 358 158 65 13 18 19 10 40 265 369 573 391 347 380 249 98 27
0 0 1 0 0 0 0 0 1 0 0 1 2 1 1 0 0 0 0 0 0 0 0 0 0 0 0 3 96 120 88 4 23 20 24 28 75 144 550 374 277 264 262 309 162
0 0 1 0 0 0 0 0 0 0 0 0 3 3 1 0 0 0 0 0 0 0 0 0 0 0 0 0 39 98 101 63 57 38 8 4 7 32 685 531 356 360 333 267 206
1 3 4 4 1 1 2 1 0 0 0 0 1 2 0 0 0 0 0 0 0 0 0 0 0 0 0 0 11 28 176 168 69 20 23 21 11 452 713 571 411 277 262 202 298
5 4 4 2 1 0 0 0 0 0 0 1 2 0 0 0 0 0 0 0 0 0 0 0 0 0 0 0 0 4 64 101 25 48 79 51 80 146 718 473 390 329 206 213 243
4 3 2 1 0 0 0 0 0 0 0 1 2 1 0 0 0 0 0 0 0 0 0 0 0 0 0 0 0 0 29 169 125 67 45 47 31 23 669 577 427 420 278 241 240
3 2 0 0 0 0 0 0 0 0 0 1 2 2 0 0 0 0 0 0 0 0 0 0 0 0 0 0 0 0 0 4 36 8 39 59 109 110 349 618 480 524 416 410 337
1 0 0 0 0 0 0 0 0 0 0 0 0 0 0 0 0 0 0 0 0 0 0 0 0 0 0 0 0 0 0 0 10 29 61 0 3 65 91 409 552 523 523 442 410
1 0 0 0 0 0 0 0 0 0 0 0 0 0 0 0 0 0 0 0 0 0 0 0 0 0 0 0 0 0 0 0 0 30 30 0 0 146 100 341 343 481 592 499 446
1 0 0 0 0 0 0 0 0 0 0 0 0 0 0 0 0 0 0 0 0 0 0 0 0 0 0 0 0 0 0 0 0 2 14 8 0 230 314 254 368 310 397 631 522
0 0 0 0 0 0 0 0 0 0 0 0 0 0 0 0 0 0 0 0 0 0 0 0 0 0 0 0 0 0 0 0 0 0 1 0 0 2 218 399 360 461 390 348 557
0 0 0 0 0 0 0 0 0 0 0 0 0 0 0 0 0 0 0 0 0 0 0 0 0 0 0 0 0 0 0 0 0 0 0 2 0 5 204 154 168 360 718 631 470
0 0 0 0 0 0 0 0 0 0 0 0 0 0 0 0 0 0 0 0 0 0 0 0 0 0 0 0 0 0 0 0 0 0 0 2 0 0 57 115 303 292 114 376 341
0 0 0 0 0 0 0 0 0 0 0 0 0 0 0 0 0 0 0 0 0 0 0 0 0 0 0 0 0 0 0 0 0 0 0 0 2 2 3 61 68 138 9 418 211
0 0 0 0 0 0 0 0 0 0 0 0 0 0 0 0 0 0 0 0 0 0 0 0 0 0 0 0 0 0 0 0 0 0 0 0 1 0 0 0 5 70 320 467 443
0 0 0 0 0 0 0 0 0 0 0 0 0 0 0 0 0 0 0 0 0 0 0 0 0 0 0 0 0 0 0 0 0 0 0 0 0 0 0 1 6 25 220 570 579
0 0 0 0 0 0 0 0 0 0 0 0 0 0 0 0 0 0 0 0 0 0 0 0 0 0 0 0 0 0 0 0 0 0 0 0 0 0 0 0 1 22 171 491 563
0 0 0 0 0 0 0 0 0 0 0 0 0 0 0 0 0 0 0 0 0 0 0 0 0 0 0 0 0 0 0 0 0 0 0 0 0 0 0 0 0 0 27 497 563
0 0 0 0 0 0 0 0 0 0 0 0 0 0 0 0 0 0 0 0 0 0 0 0 0 0 0 0 0 0 0 0 0 0 0 0 0 0 0 0 0 0 0 241 479
0 0 0 0 0 0 0 0 0 0 0 0 0 0 0 5 0 0 0 0 0 0 0 0 0 0 0 0 0 0 0 0 0 0 0 0 0 0 0 0 0 0 0 15 466
0 0 0 0 0 0 0 0 0 0 0 0 0 1 0 0 1 0 0 25 6 2 0 0 0 0 0 0 0 0 0 0 0 0 0 0 0 0 0 0 0 0 0 0 174
0 0 0 0 0 0 0 0 0 0 0 0 0 2 0 42 20 18 28 9 1 0 1 0 0 0 0 0 0 0 0 0 0 0 0 0 0 0 0 0 0 0 0 0 24
0 0 0 0 0 0 0 0 0 12 9 19 34 8 39 46 49 35 14 16 0 0 15 20 0 0 0 0 0 0 0 0 0 0 0 0 0 0 0 0 0 0 2 0 273
0 0 1 0 0 0 0 6 3 24 22 8 3 46 36 6 10 25 11 1 0 4 0 0 0 0 0 0 0 0 0 0 0 0 0 0 0 0 1 24 14 0 3 64 227
4 4 0 3 0 0 1 9 11 3 55 5 24 56 48 23 0 2 0 0 4 0 0 0 0 0 0 0 0 0 0 0 0 0 0 0 0 0 0 14 2 0 0 0 2
10 9 3 5 3 2 0 15 14 22 41 77 29 4 1 25 31 6 1 0 0 0 0 0 0 0 0 0 0 0 0 1 0 0 0 0 0 0 1 6 0 0 0 0 0

GFSSW_con_sbcape_042.txt.gz
CAPE
1 0 0 1 1 0 0 1 2 2 2 1 1 3 3 5 5 0 0 0 0 0 110 0 0 0 132 262 50 0 0 72 22 10 5 36 304 512 275 163 162 143 0 0 0
0 0 1 0 0 0 0 1 1 1 1 1 1 4 4 3 0 0 0 0 0 0 0 0 0 0 67 150 289 175 90 60 25 1 16 23 183 446 345 396 253 10 0 0 0
0 0 0 0 0 0 0 0 0 0 0 1 1 2 5 0 0 0 0 0 0 0 0 0 0 0 0 8 187 248 102 22 9 24 50 3 573 401 463 341 186 25 44 5 0
0 0 0 0 0 0 0 0 0 0 0 0 2 2 0 0 0 0 0 0 0 0 0 0 0 0 0 0 0 51 225 51 0 16 64 21 42 479 470 375 258 97 100 73 105
1 3 2 2 0 0 0 0 0 0 0 0 1 0 0 0 0 0 0 0 0 0 0 0 0 0 0 0 0 9 11 28 22 0 1 2 28 444 496 406 266 143 102 126 235
4 2 1 0 0 0 0 0 0 0 0 0 2 0 0 0 0 0 0 0 0 0 0 0 0 0 0 0 0 0 0 21 1 0 1 0 88 592 404 340 346 280 138 183 197
1 1 0 0 0 0 0 0 0 0 0 0 6 0 0 0 0 0 0 0 0 0 0 0 0 0 0 0 0 0 0 26 0 4 10 4 103 607 424 384 372 339 262 236 239
0 0 0 0 0 0 0 0 0 0 0 0 3 1 0 0 0 0 0 0 0 0 0 0 0 0 0 0 0 0 0 6 6 5 37 7 103 656 372 341 323 294 258 284 315
2 0 0 0 0 0 0 0 0 0 0 0 0 0 0 0 0 0 0 0 0 0 0 0 0 0 0 0 0 0 0 0 12 62 43 12 75 631 375 271 267 249 211 253 246
2 1 0 0 0 0 0 0 0 0 0 0 0 0 0 0 0 0 0 0 0 0 0 0 0 0 0 0 0 0 0 0 0 0 34 40 130 549 441 368 358 296 218 239 247
1 0 0 0 0 0 0 0 0 0 0 0 0 0 0 0 0 0 0 0 0 0 0 0 0 0 0 0 0 0 0 0 0 0 0 13 245 615 526 409 449 415 323 293 302
0 0 0 0 0 0 0 0 0 0 0 0 0 0 0 0 0 0 0 0 0 0 0 0 0 0 0 0 0 0 0 0 0 0 0 0 170 222 397 514 474 519 532 503 380
0 0 0 0 0 0 0 0 0 0 0 0 0 0 0 0 0 0 0 0 0 0 0 0 0 0 0 0 0 0 0 0 0 0 0 0 33 128 225 411 148 208 641 609 514
0 0 0 0 0 0 0 0 0 0 0 0 0 0 0 0 0 0 0 0 0 0 0 0 0 0 0 0 0 0 0 0 0 0 0 0 0 117 255 203 30 145 394 504 461
0 0 0 0 0 0 0 0 0 0 0 0 0 0 0 0 0 0 0 0 0 0 0 0 0 0 0 0 0 0 0 0 0 0 0 0 0 17 184 176 190 99 184 304 354
0 0 0 0 0 0 0 0 0 0 0 0 0 0 0 0 0 0 0 0 0 0 0 0 0 0 0 0 0 0 0 0 0 0 0 0 0 0 102 286 211 42 3 30 155
0 0 0 0 0 0 0 0 0 0 0 0 0 0 0 0 0 0 0 0 0 0 0 0 0 0 0 0 0 0 0 0 0 0 0 0 0 0 1 159 156 74 111 138 77
0 0 0 0 0 0 0 0 0 0 0 0 0 0 0 0 0 0 0 0 0 0 0 0 0 0 0 0 0 0 0 0 0 0 0 0 0 0 0 3 35 104 351 113 69
0 0 0 0 0 0 0 0 0 0 0 0 0 0 0 0 0 0 0 0 0 0 0 0 0 0 0 0 0 0 0 0 0 0 0 0 0 0 0 0 0 0 169 64 299
0 0 0 0 0 0 0 0 0 0 0 0 0 0 0 0 0 0 0 0 0 0 0 0 0 0 0 0 0 0 0 0 0 0 0 0 0 0 0 0 0 0 3 25 555
0 0 0 0 0 0 0 0 0 0 0 0 0 0 0 0 0 0 0 0 0 0 0 0 0 0 0 0 0 0 0 0 0 0 0 0 0 0 0 0 0 0 8 252 525
0 0 0 0 0 0 0 0 0 0 0 0 0 0 0 0 0 0 0 0 0 0 0 0 3 0 0 0 0 0 0 0 0 0 0 0 0 0 0 0 0 0 0 270 660
0 0 0 0 0 0 0 0 0 0 0 0 0 0 0 0 0 0 0 0 1 0 3 15 6 0 0 0 0 0 0 0 0 0 0 0 0 0 0 0 0 0 0 0 401
0 0 0 0 0 0 0 0 0 0 0 0 0 0 0 0 0 0 0 1 10 3 21 18 0 0 0 0 0 0 0 0 0 0 0 0 0 0 0 0 0 0 0 0 150
0 0 0 0 0 0 0 0 0 0 0 0 0 0 2 0 0 0 0 0 4 10 1 7 0 0 0 0 0 0 0 0 0 0 0 0 0 0 0 0 0 0 0 0 112
0 0 0 0 0 0 0 0 7 0 0 1 19 32 3 0 1 0 0 0 17 0 0 2 2 0 0 0 0 0 0 0 0 0 0 0 0 0 0 0 0 0 0 0 0
0 0 0 9 5 8 0 0 1 8 2 13 6 1 0 12 6 0 0 0 2 7 12 0 0 0 0 0 0 0 0 0 0 0 0 0 0 0 40 76 30 0 0 0 0

GFSSW_con_sbcape_045.txt.gz
CAPE
1 0 0 0 0 1 1 1 0 0 0 1 1 2 4 4 3 0 0 0 0 0 0 0 0 0 12 157 102 0 0 6 58 39 64 86 135 447 222 113 108 7 0 0 0
0 0 0 0 0 0 0 0 0 0 0 0 1 3 1 2 0 0 0 0 0 0 0 0 0 0 59 174 238 85 5 6 22 19 11 55 394 401 188 218 2 0 0 0 0
0 0 0 0 0 0 0 0 0 0 0 0 1 3 1 1 0 0 0 0 0 0 0 0 0 0 8 49 195 281 31 0 2 5 12 14 437 353 237 239 11 0 0 0 0
0 0 0 0 0 0 0 0 0 0 0 0 1 2 0 0 0 0 0 0 0 0 0 0 0 0 0 0 0 142 153 266 14 6 67 28 427 438 380 322 30 0 0 0 0
0 1 1 0 0 0 0 0 0 0 0 0 0 2 0 0 0 0 0 0 0 0 0 0 0 0 0 0 0 38 46 57 301 281 19 1 362 440 357 243 0 0 0 0 0
1 3 2 2 1 0 0 0 0 0 0 0 0 1 0 0 0 0 0 0 0 0 0 0 0 0 0 0 0 0 0 0 2 2 0 0 4 388 332 79 4 0 0 0 0
4 3 1 0 0 0 0 0 0 0 0 0 3 0 0 0 0 0 0 0 0 0 0 0 0 0 0 0 0 0 0 0 0 0 0 51 368 446 274 80 77 16 1 0 18
3 2 1 0 0 0 0 0 0 0 0 0 9 0 0 0 0 0 0 0 0 0 0 0 0 0 0 0 0 0 0 0 0 12 0 1 0 392 221 124 88 52 41 14 86
4 3 2 0 0 0 0 0 0 0 0 0 0 0 0 0 0 0 0 0 0 0 0 0 0 0 0 0 0 0 0 0 0 0 11 3 241 371 240 208 154 79 62 102 61
1 1 1 0 0 0 0 0 0 0 0 0 0 0 0 0 0 0 0 0 0 0 0 0 0 0 0 0 0 0 0 0 0 0 12 1 45 394 266 246 237 185 122 134 119
0 0 0 0 0 0 0 0 0 0 0 0 0 0 0 0 0 0 0 0 0 0 0 0 0 0 0 0 0 0 0 0 0 0 4 25 21 491 281 201 222 196 162 179 175
0 0 0 0 0 0 0 0 0 0 0 0 0 0 0 0 0 0 0 0 0 0 0 0 0 0 0 0 0 0 0 0 0 0 0 0 0 530 341 197 220 234 184 177 180
0 0 0 0 0 0 0 0 0 0 0 0 0 0 0 0 0 0 0 0 0 0 0 0 0 0 0 0 0 0 0 0 0 0 0 1 48 288 471 293 220 205 191 159 180
0 0 0 0 0 0 0 0 0 0 0 0 0 0 0 0 0 0 0 0 0 0 0 0 0 0 0 0 0 0 0 0 0 0 0 0 5 339 468 382 284 330 252 190 196
0 0 0 0 0 0 0 0 0 0 0 0 0 0 0 0 0 0 0 0 0 0 0 0 0 0 0 0 0 0 0 0 0 0 0 0 0 5 155 277 343 385 406 372 297
0 0 0 0 0 0 0 0 0 0 0 0 0 0 0 0 0 0 0 0 0 0 0 0 0 0 0 0 0 0 0 0 0 0 0 0 0 0 11 73 326 238 192 269 469
0 0 0 0 0 0 0 0 0 0 0 0 0 0 0 0 0 0 0 0 0 0 0 0 0 0 0 0 0 0 0 0 0 0 0 0 0 0 0 4 157 174 137 94 323
0 0 0 0 0 0 0 0 0 0 0 0 0 0 0 0 0 0 0 0 0 0 0 0 0 0 0 0 0 0 0 0 0 0 0 0 0 0 0 7 87 106 134 129 233
0 0 0 0 0 0 0 0 0 0 0 0 0 0 0 0 0 0 0 0 0 0 0 0 0 0 0 0 0 0 0 0 0 0 0 0 0 0 0 0 12 107 146 114 57
0 0 0 0 0 0 0 0 0 0 0 0 0 0 0 0 0 0 0 0 0 0 0 0 0 0 0 0 0 0 0 0 0 0 0 0 0 0 0 0 0 116 144 125 88
0 0 0 0 0 0 0 0 0 0 0 0 0 0 0 0 0 0 0 0 0 0 0 0 0 0 0 0 0 0 0 0 0 0 0 0 0 0 0 0 0 0 31 63 176
0 0 0 0 0 0 0 0 0 0 0 0 0 0 0 0 0 0 2 0 0 0 0 0 5 6 0 0 0 0 0 0 0 0 0 0 0 0 0 0 0 0 0 0 142
0 0 0 0 0 0 0 0 0 0 0 0 0 0 0 0 0 8 11 0 0 1 0 3 13 0 0 0 0 0 0 0 0 0 0 0 0 0 0 0 0 0 0 0 6
0 0 0 0 0 0 0 0 0 0 0 0 0 0 0 0 0 0 9 33 0 0 39 3 8 0 0 0 0 0 0 0 0 0 0 0 0 0 0 0 0 0 0 0 0
0 0 0 0 0 0 0 0 0 0 0 0 0 0 0 0 0 0 0 0 0 13 0 1 1 0 0 0 0 0 0 0 0 0 0 0 0 0 0 0 0 0 0 0 0
0 0 0 0 0 2 0 0 1 0 0 0 0 0 0 0 0 0 0 0 0 0 0 8 0 0 0 0 0 0 0 0 0 0 0 0 0 0 3 20 21 0 0 0 49
0 0 0 4 2 10 8 13 15 15 8 21 11 14 4 1 0 0 0 0 0 0 0 1 4 0 0 0 0 0 0 0 0 0 0 0 0 0 105 117 79 58 0 0 0

GFSSW_con_sbcape_048.txt.gz
CAPE
0 0 1 1 2 1 0 0 0 0 0 0 0 3 3 0 0 0 0 0 0 0 0 175 0 0 0 58 265 0 0 1 63 53 146 178 239 386 192 14 0 0 0 0 8
1 0 1 1 0 0 0 0 0 0 0 0 1 2 2 0 0 0 0 0 0 0 0 13 0 0 16 165 384 4 0 0 41 58 13 140 262 450 162 62 0 0 0 0 0
1 0 1 1 0 0 0 0 0 0 0 1 2 2 0 0 0 0 0 0 0 0 0 0 0 10 36 120 227 156 55 5 15 11 55 50 410 247 137 122 0 0 0 1 0
1 0 0 1 0 0 0 0 0 0 1 1 2 2 0 0 0 0 0 0 0 0 0 0 0 0 0 4 79 177 186 201 52 45 27 35 395 318 189 262 0 0 0 0 0
0 0 1 0 0 0 0 0 0 0 0 0 0 1 0 0 0 0 0 0 0 0 0 0 0 0 0 0 0 111 168 72 170 246 200 46 144 349 248 0 0 0 0 0 0
1 2 1 1 2 1 0 1 0 0 0 0 0 0 0 0 0 0 0 0 0 0 0 0 0 0 0 0 0 0 8 8 0 0 3 28 30 352 59 0 0 0 0 0 0
1 3 2 0 2 0 0 0 0 0 0 0 0 0 0 0 0 0 0 0 0 0 0 0 0 0 0 0 0 0 0 0 0 0 0 1 210 239 0 0 0 0 0 0 0
2 2 2 1 1 0 0 0 0 0 0 0 2 0 0 0 0 0 0 0 0 0 0 0 0 0 0 0 0 0 0 0 0 0 0 6 0 351 0 0 0 0 0 0 0
3 2 0 0 0 0 0 0 0 0 0 1 0 0 0 0 0 0 0 0 0 0 0 0 0 0 0 0 0 0 0 0 0 0 14 0 106 310 45 2 0 0 0 0 0
1 0 0 0 0 0 0 0 0 0 0 0 0 0 0 0 0 0 0 0 0 0 0 0 0 0 0 0 0 0 0 0 0 0 9 13 63 268 102 36 4 0 0 0 0
0 0 0 0 0 0 0 0 0 0 0 0 0 0 0 0 0 0 0 0 0 0 0 0 0 0 0 0 0 0 0 0 0 0 0 20 74 331 190 91 29 13 1 0 0
1 0 0 0 0 0 0 0 0 0 0 0 0 0 0 0 0 0 0 0 0 0 0 0 0 0 0 0 0 0 0 0 0 0 0 0 1 341 226 179 127 69 32 32 41
1 0 0 0 0 0 0 0 0 0 0 0 0 0 0 0 0 0 0 0 0 0 0 0 0 0 0 0 0 0 0 0 0 0 0 0 0 120 282 148 125 122 51 21 44
0 0 0 0 0 0 0 0 0 0 0 0 0 0 0 0 0 0 0 0 0 0 0 0 0 0 0 0 0 0 0 0 0 0 0 0 0 0 257 194 125 75 86 83 85
0 0 0 0 0 0 0 0 0 0 0 0 0 0 0 0 0 0 0 0 0 0 0 0 0 0 0 0 0 0 0 0 0 0 0 0 0 0 129 189 160 100 71 76 103
0 0 0 0 0 0 0 0 0 0 0 0 0 0 0 0 0 0 0 0 0 0 0 0 0 0 0 0 0 0 0 0 0 0 0 0 0 0 2 272 273 230 151 113 107
0 0 0 0 0 0 0 0 0 0 0 0 0 0 0 0 0 0 0 0 0 0 0 0 0 0 0 0 0 0 0 0 0 0 0 0 0 0 0 5 179 318 259 241 177
0 0 0 0 0 0 0 0 0 0 0 0 0 0 0 0 0 0 0 0 0 0 0 0 0 0 0 0 0 0 0 0 0 0 0 0 0 0 0 0 49 156 319 277 266
0 0 0 0 0 0 0 0 0 0 0 0 0 0 0 0 0 0 0 0 0 0 0 0 0 0 0 0 0 0 0 0 0 0 0 0 0 0 0 0 0 61 119 183 155
0 0 0 0 0 0 0 0 0 0 0 0 0 0 0 0 0 0 0 0 0 0 0 0 0 0 0 0 0 0 0 0 0 0 0 0 0 0 0 0 0 3 61 96 161
0 0 0 0 0 0 0 0 0 0 0 0 0 0 0 0 0 0 0 0 0 0 0 0 0 0 0 0 0 0 0 0 0 0 0 0 0 0 0 0 0 0 55 123 158
0 0 0 0 0 0 0 0 0 0 0 0 0 0 0 0 0 0 0 0 0 0 0 0 0 1 0 0 0 0 0 0 0 0 0 0 0 0 0 0 0 0 0 127 192
0 0 0 0 0 0 0 0 0 0 0 0 0 0 0 0 0 0 0 0 0 0 0 1 11 0 0 0 0 0 0 0 0 0 0 0 0 0 0 0 0 0 0 0 54
0 0 0 0 0 0 0 0 0 0 0 0 0 0 0 0 0 0 0 10 0 0 42 13 0 0 0 0 0 0 0 0 0 0 0 0 0 0 0 0 0 0 0 0 0
0 0 0 0 0 0 4 0 0 1 0 0 0 0 0 0 0 0 0 1 0 61 0 0 0 0 0 0 0 0 0 0 0 0 0 0 0 0 0 0 0 0 0 0 0
0 0 0 0 0 0 1 0 3 7 0 0 2 7 3 0 0 0 0 0 0 0 0 0 0 0 0 0 0 0 0 0 0 0 0 0 0 0 0 0 27 20 13 0 0
0 0 0 0 2 6 6 18 16 19 5 15 27 14 3 3 10 3 0 0 0 0 0 0 0 2 0 0 0 0 0 0 0 0 0 0 0 0 12 8 0 0 0 1 74

GFSSW_con_sbcape_051.txt.gz
CAPE
1 1 1 1 2 1 0 0 0 0 1 1 2 3 2 1 0 1 0 0 0 0 0 115 1 2 1 108 268 16 6 9 58 115 90 70 268 434 272 0 0 0 0 0 35
1 1 1 1 1 1 1 1 1 0 0 1 2 4 0 0 0 0 0 0 0 0 0 0 0 1 3 62 292 27 86 31 30 50 75 163 329 451 232 31 0 0 0 5 39
0 0 0 0 0 0 2 1 0 0 0 1 3 2 0 1 0 0 0 0 0 0 0 0 0 0 0 114 259 212 122 54 57 41 122 94 290 664 428 221 7 0 6 8 56
0 0 0 0 0 0 2 1 1 0 0 1 1 1 0 0 0 0 0 0 0 0 0 0 0 0 0 16 155 233 254 235 126 35 32 173 425 578 438 395 122 0 0 2 24
0 0 1 0 0 0 1 1 1 0 0 0 0 0 0 0 0 0 0 0 0 0 0 0 0 0 0 0 31 166 311 225 200 165 140 152 138 210 471 71 1 0 0 4 5
0 3 2 1 1 0 0 0 0 0 0 0 0 0 0 0 0 0 0 0 0 0 0 0 0 0 0 0 0 8 37 145 33 24 49 31 32 275 225 0 0 0 0 1 0
2 2 1 2 1 0 0 0 0 0 0 0 0 0 0 0 0 0 0 0 0 0 0 0 0 0 0 0 0 0 0 0 0 0 1 4 63 393 41 0 0 0 0 0 0
0 1 0 0 0 0 0 0 0 0 0 0 0 0 0 0 0 0 0 0 0 0 0 0 0 0 0 0 0 0 0 0 1 0 0 7 128 524 0 0 0 0 0 0 0
1 1 0 0 0 0 0 0 0 0 0 0 0 0 0 0 0 0 0 0 0 0 0 0 0 0 0 0 0 0 0 0 4 2 37 64 95 641 14 9 0 0 0 0 0
0 0 0 0 0 0 0 0 0 0 0 0 0 0 0 0 0 0 0 0 0 0 0 0 0 0 0 0 0 0 0 0 46 28 37 122 132 584 124 35 0 0 0 0 0
0 0 0 0 0 0 0 0 0 0 0 0 0 0 0 0 0 0 0 0 0 0 0 0 0 0 0 0 0 0 0 0 0 12 28 181 197 677 436 234 32 0 0 0 0
3 1 0 1 0 0 0 0 0 0 0 0 0 0 0 0 0 0 0 0 0 0 0 0 0 0 0 0 0 0 0 0 0 0 0 17 106 454 609 496 275 26 0 0 0
3 1 0 0 0 0 0 0 0 0 0 0 0 0 0 0 0 0 0 0 0 0 0 0 0 0 0 0 0 0 0 0 0 0 0 0 1 99 633 582 442 230 67 10 6
2 1 0 0 0 0 0 0 0 0 0 0 0 0 0 0 0 0 0 0 0 0 0 0 0 0 0 0 0 0 0 0 0 0 1 0 38 8 206 639 594 490 338 169 64
2 1 0 0 0 0 0 0 0 0 0 0 0 0 0 0 0 0 0 0 0 0 0 0 0 0 0 0 0 0 0 0 0 0 0 0 0 7 95 321 617 641 580 425 220
0 0 1 0 0 0 0 0 0 0 0 0 0 0 0 0 0 0 0 0 0 0 0 0 0 0 0 0 0 0 0 0 0 0 0 0 0 0 11 180 520 627 611 606 480
0 0 0 0 0 0 0 0 0 0 0 0 0 0 0 0 0 0 0 0 0 0 0 0 0 0 0 0 0 0 0 0 0 0 0 0 0 0 0 22 194 560 659 658 634
0 0 0 0 0 0 0 0 0 0 0 0 0 0 0 0 0 0 0 0 0 0 0 0 0 0 0 0 0 0 0 0 0 0 0 0 0 0 0 0 0 142 488 570 614
0 0 0 0 0 0 0 0 0 0 0 0 0 0 0 0 0 0 0 0 0 0 0 0 0 0 0 0 0 0 0 0 0 0 0 0 0 0 0 0 0 1 192 509 657
0 0 0 0 0 0 0 0 0 0 0 0 0 0 0 0 0 0 0 0 0 0 0 0 0 0 0 0 0 0 0 0 0 0 0 0 0 0 0 0 0 0 34 315 647
0 0 0 0 0 0 0 0 0 0 0 0 0 0 0 0 0 0 0 0 0 0 0 0 0 0 0 0 0 0 0 0 0 0 0 0 0 0 0 0 0 0 2 85 489
0 0 0 0 0 0 0 0 0 0 0 0 0 0 0 0 0 0 0 0 0 0 0 0 2 0 0 0 0 0 0 0 11 0 0 0 0 0 0 0 0 0 0 29 209
0 0 0 0 0 0 0 0 0 0 0 0 0 0 0 0 0 0 0 0 0 0 0 0 6 0 0 0 0 0 0 0 0 0 1 0 0 0 0 0 0 0 0 0 158
0 0 0 0 0 1 0 0 0 0 0 0 0 0 0 0 0 0 0 2 0 0 13 0 0 0 0 0 0 0 0 0 0 1 0 3 0 0 0 0 0 0 0 0 0
0 0 0 0 0 2 2 0 2 3 3 3 7 0 0 0 0 0 0 7 18 10 17 0 0 0 0 0 0 0 0 0 0 0 0 0 0 0 0 0 0 0 0 5 1
0 0 0 0 0 0 0 0 4 9 1 1 5 14 32 42 2 0 0 0 20 28 18 0 0 0 0 0 0 0 0 0 0 0 0 0 0 0 0 6 0 76 97 148 202
0 0 2 3 7 3 10 23 22 22 7 2 19 13 14 3 7 10 12 2 1 5 56 9 0 0 0 1 1 0 0 0 0 0 0 0 0 0 1 203 2 0 0 0 63

GFSSW_con_sbcape_054.txt.gz
CAPE
0 0 0 0 0 0 1 1 0 0 0 0 3 4 1 1 0 0 0 0 0 0 0 0 6 8 32 138 517 232 52 212 299 174 344 192 180 429 428 70 94 116 157 206 131
0 0 0 0 0 1 2 1 0 0 0 1 2 2 1 1 0 0 0 0 0 0 0 0 1 0 8 124 464 257 248 188 63 98 29 159 471 865 754 223 74 22 58 132 126
0 0 0 0 0 1 2 1 0 0 0 1 2 0 0 0 0 0 0 0 0 0 0 0 0 0 0 24 343 442 208 178 49 25 128 293 487 924 828 532 252 168 98 150 195
0 0 0 0 0 1 1 0 0 1 0 1 1 0 0 0 0 0 0 0 0 0 0 0 0 0 0 0 29 124 181 357 81 141 98 119 422 724 746 824 626 242 139 204 155
0 1 2 0 0 0 0 0 0 0 0 1 0 0 0 0 0 0 0 0 0 0 0 0 0 0 0 0 0 27 184 257 214 134 264 261 333 325 605 659 380 270 144 137 123
1 2 1 1 2 0 0 0 0 0 0 0 0 0 0 0 0 0 0 0 0 0 0 0 0 0 0 0 0 0 10 518 227 179 230 331 265 153 575 549 466 310 185 112 87
1 1 1 1 1 0 0 0 0 0 0 0 0 0 0 0 0 0 0 0 0 0 0 0 0 0 0 0 0 0 0 4 40 49 27 157 165 253 680 553 575 435 255 76 94
1 1 1 1 0 0 0 0 0 0 0 0 0 0 0 0 0 0 0 0 0 0 0 0 0 0 0 0 0 0 0 17 180 0 8 101 224 572 573 676 649 486 263 105 104
2 2 0 2 1 1 0 0 0 0 0 0 0 0 0 0 0 0 0 0 0 0 0 0 0 0 0 0 0 0 0 0 114 69 101 204 348 819 493 624 597 514 299 167 135
1 0 0 1 0 0 0 0 0 0 0 0 0 0 0 0 0 0 0 0 0 0 0 0 0 0 0 0 0 0 0 0 0 308 331 313 366 762 475 524 620 540 339 204 137
1 0 0 1 0 0 0 0 0 0 0 0 0 0 0 0 0 0 0 0 0 0 0 0 0 0 0 0 0 0 0 0 64 200 315 355 362 840 653 582 620 536 398 243 164
2 1 1 1 0 0 0 0 0 0 0 0 0 0 0 0 0 0 0 0 0 0 0 0 0 0 0 0 0 0 0 0 7 30 210 312 361 441 932 771 619 510 410 273 198
4 1 0 0 0 0 0 0 0 0 0 0 0 0 0 0 0 0 0 0 0 0 0 0 0 0 0 0 0 0 0 0 0 0 1 186 298 291 766 942 863 488 357 256 228
6 1 0 1 0 0 0 0 0 0 0 0 0 0 0 0 0 0 0 0 0 0 0 0 0 0 0 0 0 0 0 0 0 0 15 125 228 212 347 1028 1008 955 519 291 160
3 1 0 1 0 0 0 0 0 0 0 0 0 0 0 0 0 0 0 0 0 0 0 0 0 0 0 0 0 0 0 0 0 0 0 1 126 117 208 581 992 1020 900 639 305
1 0 0 0 0 0 0 0 0 0 0 0 0 0 0 0 0 0 0 0 0 0 0 0 0 0 0 0 0 0 0 0 0 0 0 0 21 63 98 187 529 874 844 844 755
0 0 0 0 0 0 0 0 0 0 0 0 0 0 0 0 0 0 0 0 0 0 0 0 0 0 0 0 0 0 0 0 0 0 0 0 0 6 54 105 145 463 793 844 905
0 0 0 0 0 0 0 0 0 0 0 0 0 0 0 0 0 0 0 0 0 0 0 0 0 0 0 0 0 0 0 0 0 0 0 0 0 0 1 0 39 162 532 753 890
0 0 0 0 0 0 0 0 0 0 0 0 0 0 0 0 0 0 0 0 0 0 0 0 0 0 0 0 0 1 0 0 0 0 0 0 0 0 0 0 0 1 88 482 716
0 0 0 0 0 0 0 0 0 0 0 0 0 0 0 0 0 0 0 0 0 0 0 0 0 0 0 0 0 0 0 5 0 0 0 0 0 0 0 0 0 0 9 111 483
0 0 0 0 0 0 0 0 0 0 0 0 0 0 0 0 0 0 0 0 0 0 0 0 0 0 0 0 0 0 1 33 15 1 0 0 0 0 0 0 0 0 0 27 293
0 0 0 0 0 0 0 0 0 0 0 0 0 0 0 0 0 0 0 0 0 0 0 0 0 0 0 5 1 1 50 1 64 23 0 0 7 0 0 0 0 0 0 10 71
0 0 0 0 0 1 0 0 0 0 1 0 1 0 1 1 1 5 5 0 0 0 0 2 0 0 0 0 0 0 6 10 46 58 38 19 1 0 0 0 0 0 0 13 59
0 0 0 0 2 0 0 3 4 0 4 4 1 2 4 4 5 10 5 12 0 0 0 0 0 0 0 0 0 0 3 0 0 58 17 39 48 14 0 0 0 0 0 0 0
0 0 0 2 6 7 10 7 1 4 4 5 14 21 19 20 18 21 12 4 20 5 22 7 2 1 0 0 0 0 0 0 0 1 16 29 55 58 0 0 0 0 0 0 0
3 5 7 6 12 13 2 10 4 16 15 7 22 20 9 69 53 30 24 22 42 52 50 42 5 0 0 0 0 0 0 0 0 0 0 0 0 49 0 0 0 0 9 56 35
6 6 15 2 9 6 9 10 11 24 10 10 20 18 7 7 34 5 100 94 76 43 130 81 42 25 11 0 0 0 0 0 0 0 0 0 0 24 0 0 219 175 157 146 136

GFSSW_con_sbcape_057.txt.gz
CAPE
0 0 0 0 1 1 1 1 0 0 1 1 1 1 0 0 0 0 0 0 0 0 0 0 0 3 26 13 23 525 688 351 148 77 605 188 106 176 353 455 443 505 635 362 230
0 0 0 0 0 1 2 1 0 0 0 0 0 0 0 0 0 0 0 0 0 0 0 0 0 2 4 47 155 443 626 150 326 186 364 291 350 607 464 516 575 387 587 191 172
0 0 0 0 0 1 1 1 0 0 0 0 0 0 0 0 0 0 0 0 0 0 0 0 0 0 2 7 224 439 407 294 73 184 56 191 453 580 731 467 441 516 409 125 228
0 0 0 0 0 1 0 0 0 0 0 0 1 0 0 0 0 0 0 0 0 0 0 0 0 0 0 1 44 64 116 156 18 223 75 291 494 545 687 423 460 542 280 208 223
0 1 1 1 0 0 0 0 0 0 0 0 1 0 0 0 0 0 0 0 0 0 0 0 0 0 0 0 6 14 37 443 310 232 45 18 0 97 691 586 623 551 278 226 196
1 2 2 2 2 0 0 0 0 0 0 0 0 0 0 0 0 0 0 0 0 0 0 0 0 0 0 0 0 2 1 394 260 467 467 154 118 124 427 620 640 538 369 325 252
1 1 2 3 1 0 0 0 0 0 0 0 0 0 0 0 0 0 0 0 0 0 0 0 0 0 0 0 0 0 0 90 487 371 472 229 291 177 647 762 765 593 567 407 254
0 1 3 2 1 0 0 0 0 0 0 0 0 0 0 0 0 0 0 0 0 0 0 0 0 0 0 0 0 0 0 136 345 346 276 94 102 140 780 888 942 766 523 444 309
1 2 2 3 2 0 0 0 0 0 0 0 0 0 0 0 0 0 0 0 0 0 0 0 0 0 0 0 0 0 0 2 233 123 120 96 187 210 710 873 1000 947 519 402 358
1 1 2 1 0 0 0 0 0 0 0 0 0 0 0 0 0 0 0 0 0 0 0 0 0 0 0 0 0 0 0 0 103 371 171 136 243 331 636 732 871 912 548 437 314
3 1 2 0 0 0 0 0 0 0 0 0 0 0 0 0 0 0 0 0 0 0 0 0 0 0 0 0 0 0 0 0 16 191 213 136 190 342 654 676 964 899 626 522 389
3 1 1 0 0 0 0 0 0 0 0 0 0 0 0 0 0 0 0 0 0 0 0 0 0 0 0 0 0 0 0 0 0 81 235 249 193 401 624 603 931 1007 657 532 502
3 1 0 0 1 0 0 0 0 0 0 0 0 0 0 0 0 0 0 0 0 0 0 0 0 0 0 0 0 0 0 0 3 79 374 239 214 317 450 577 787 952 705 378 532
3 2 0 1 0 0 0 0 0 0 0 0 0 0 0 0 0 0 0 0 0 0 0 0 0 0 0 0 0 0 0 0 0 15 75 180 163 320 163 658 801 837 875 441 427
2 1 0 1 0 0 0 0 0 0 0 0 0 0 0 0 0 0 0 0 0 0 0 0 0 0 0 0 0 0 0 0 0 0 9 9 180 302 278 449 751 941 765 708 466
1 0 0 0 0 0 0 0 0 0 0 0 0 0 0 0 0 0 0 0 0 0 0 0 0 0 0 0 0 0 0 0 0 0 0 0 78 144 62 402 488 802 901 745 581
0 0 0 0 0 0 0 0 0 0 0 0 0 0 0 0 0 0 0 0 0 0 0 0 0 0 0 0 0 0 0 0 0 0 0 0 3 54 165 144 164 456 796 931 685
0 0 0 0 0 0 0 0 0 0 0 0 0 0 0 0 0 0 0 0 0 0 0 0 0 0 0 0 0 0 0 0 0 0 0 0 0 1 12 216 80 19 445 735 857
0 0 0 0 0 0 0 0 2 0 0 0 0 0 0 0 0 0 0 0 0 0 0 0 0 0 0 0 0 0 2 0 0 0 0 0 0 0 0 6 59 1 208 421 844
0 0 0 0 0 0 0 0 0 0 0 0 0 0 0 0 0 0 0 0 0 0 0 0 0 0 0 0 0 0 1 0 0 2 0 3 0 0 0 0 4 24 44 309 474
0 2 0 0 0 0 2 1 0 0 0 0 0 0 0 0 0 0 0 0 0 0 0 0 0 0 0 0 0 0 0 8 38 5 0 9 0 1 0 0 0 1 2 42 313
0 8 0 0 1 0 16 0 0 0 0 0 0 0 0 1 5 9 0 6 0 0 0 0 0 0 0 0 0 0 4 0 96 63 5 9 20 13 5 0 0 0 12 2 16
0 0 0 0 20 27 0 0 0 1 3 3 4 5 4 10 15 12 13 0 0 0 0 0 0 0 0 0 0 0 0 26 18 23 70 27 8 18 2 1 0 0 0 0 17
0 15 2 0 0 1 9 6 11 0 0 1 6 14 18 24 27 21 24 5 8 1 0 0 0 0 0 0 0 5 2 21 85 87 44 42 64 21 19 15 3 0 0 4 97
0 0 0 1 0 3 2 0 0 11 5 1 10 6 11 16 9 34 51 53 43 51 5 2 1 0 0 0 0 0 0 15 95 89 86 40 47 82 76 30 52 0 0 0 18
1 2 0 5 3 13 1 10 5 6 12 12 9 10 15 32 40 87 90 159 117 89 75 35 54 41 19 3 0 0 0 0 0 0 0 0 0 8 2 112 104 17 26 22 0
0 0 9 0 8 18 16 17 23 21 10 6 0 13 8 3 13 27 65 118 193 190 143 144 104 84 73 24 3 0 0 0 0 0 0 0 0 0 0 4 93 139 167 135 144

GFSSW_con_sbcape_060.txt.gz
CAPE
0 0 0 0 0 0 1 1 1 1 1 0 0 1 0 0 0 0 0 0 0 0 0 0 0 0 3 26 27 40 482 268 82 129 90 171 105 319 633 566 629 514 252 146 14
0 0 0 0 0 0 1 1 0 0 0 0 0 1 0 0 0 0 0 0 0 0 0 0 0 0 5 19 0 38 436 144 95 171 453 608 255 623 372 313 354 545 481 131 9
0 0 0 0 0 0 0 0 0 0 0 0 0 0 0 0 0 0 0 0 0 0 0 0 0 0 0 3 6 31 201 262 172 129 238 110 155 262 338 458 383 560 298 115 9
0 0 0 0 0 0 1 0 0 0 0 0 0 0 0 0 0 0 0 0 0 0 0 0 1 0 0 3 20 29 53 149 53 58 70 349 0 1 72 590 400 474 210 123 34
0 0 3 1 0 1 0 0 0 0 0 0 0 0 0 0 0 0 0 0 0 0 0 0 0 0 0 0 15 15 45 47 41 99 63 153 76 95 433 251 248 374 150 123 35
1 3 3 3 2 1 0 0 0 0 0 0 0 0 0 0 0 0 0 0 0 0 0 0 0 0 0 0 0 11 5 20 303 154 82 27 89 127 250 77 502 256 156 110 56
2 4 5 4 1 0 0 0 0 0 0 0 0 0 0 0 0 0 0 0 0 0 0 0 0 0 0 0 0 0 0 6 185 173 233 167 11 33 138 464 482 196 181 188 138
2 3 4 5 1 1 0 0 0 0 0 0 0 0 0 0 0 0 0 0 0 0 0 0 0 0 0 0 0 0 0 0 66 390 207 409 164 261 374 430 498 262 189 242 122
2 4 3 4 2 0 0 0 0 0 0 0 0 0 0 0 0 0 0 0 0 0 0 0 0 0 0 0 0 0 0 0 3 480 388 116 203 51 88 539 502 351 267 241 205
2 2 2 2 0 0 0 0 0 0 0 0 0 0 0 0 0 0 0 0 0 0 0 0 0 0 0 0 0 0 0 0 0 188 263 154 290 283 63 100 567 369 407 434 112
3 2 2 1 0 0 0 0 0 0 0 0 0 0 0 0 0 0 0 0 0 0 0 0 0 0 0 0 0 0 0 0 0 157 307 124 12 33 0 51 239 526 534 555 358
2 2 2 1 0 0 0 0 0 0 0 0 0 0 0 0 0 0 0 0 0 0 0 0 0 0 0 0 0 0 0 0 0 83 358 294 68 24 1 7 100 422 364 470 344
4 1 0 0 0 0 0 0 0 0 0 0 0 0 0 0 0 0 0 0 0 0 0 0 0 0 0 0 0 0 0 0 0 23 164 105 153 0 0 47 348 404 354 416 431
4 1 0 2 0 0 0 0 0 0 0 0 0 0 0 0 0 0 0 0 0 0 0 0 0 0 0 0 0 0 0 0 0 0 28 172 206 194 17 45 181 318 289 268 389
1 0 0 0 0 0 0 0 0 0 0 0 0 0 0 0 0 0 0 0 0 0 0 0 0 0 0 0 0 0 0 0 0 0 0 0 44 237 581 242 19 0 218 166 476
0 0 0 0 0 0 0 0 0 0 0 0 0 0 0 0 0 0 0 0 0 0 0 0 0 0 0 0 0 0 0 0 0 0 0 0 0 4 166 15 0 98 53 544 389
0 0 0 0 0 0 0 0 0 0 0 0 0 0 0 0 0 0 0 0 0 0 0 0 0 0 0 0 0 0 0 0 0 0 0 0 0 0 67 314 92 1 39 868 587
0 0 0 0 0 0 0 0 0 0 0 0 0 0 0 0 0 0 0 0 0 0 0 0 0 0 0 0 0 0 0 0 0 0 0 0 0 0 0 50 278 303 308 351 655
0 0 0 0 0 0 0 0 4 0 0 0 0 0 0 0 0 0 0 0 0 0 0 0 0 0 0 0 0 0 0 0 0 0 0 0 0 0 0 0 188 190 229 64 3
0 0 0 0 0 0 0 0 4 0 0 0 0 0 0 1 0 0 0 0 0 0 0 0 0 0 0 0 0 0 0 1 0 0 0 0 0 0 0 0 32 103 69 19 4
0 8 0 0 0 0 0 13 0 0 0 0 0 0 0 0 0 0 0 0 0 0 0 0 0 0 0 0 0 0 0 0 1 10 0 0 0 0 37 0 2 216 188 6 6
0 5 0 0 1 21 1 0 0 0 0 0 0 0 0 0 0 5 3 6 0 0 0 0 0 0 0 0 0 2 0 0 7 1 6 2 0 0 14 12 0 0 71 352 371
0 0 0 0 6 7 0 0 0 0 1 0 0 0 0 0 0 0 0 0 0 0 0 0 0 0 0 0 0 0 0 0 0 0 13 29 1 0 1 50 24 1 0 447 129
0 6 2 0 0 0 5 2 3 0 1 0 0 0 0 2 1 1 4 1 0 0 0 0 0 0 0 0 0 0 0 0 0 8 0 0 0 6 37 12 34 20 29 39 379
0 0 0 0 0 1 4 7 6 2 0 0 1 0 0 3 5 6 13 13 1 1 0 0 0 0 0 0 0 0 0 0 0 0 22 0 0 0 63 95 60 112 116 49 36
0 2 2 0 1 16 2 8 0 0 0 6 4 12 5 5 24 7 11 30 36 61 15 46 28 21 9 1 0 0 0 0 0 0 0 13 0 0 0 41 12 61 165 466 198
0 0 0 0 1 0 1 1 2 2 2 1 2 6 8 21 13 9 11 13 7 76 101 184 160 136 31 41 16 4 0 0 0 0 0 0 0 0 0 0 46 87 108 364 875

GFSSW_con_sbcape_063.txt.gz
CAPE
0 0 0 0 0 0 0 1 2 2 1 0 1 2 4 2 0 0 0 0 0 0 0 0 0 0 29 60 96 100 52 178 88 51 0 81 25 76 641 329 299 183 53 13 0
0 0 0 0 0 0 0 1 1 1 0 1 0 1 2 0 0 0 0 0 0 0 0 0 0 0 0 5 65 5 151 41 7 68 4 90 32 18 30 70 417 89 30 16 0
0 0 0 0 0 0 1 2 1 0 1 1 0 1 0 0 0 0 0 0 0 0 0 0 0 0 0 0 2 0 13 269 185 84 67 242 170 80 172 235 437 58 34 5 4
0 0 0 0 0 0 1 2 1 0 1 2 0 1 0 0 0 0 0 0 0 0 0 0 0 0 0 0 0 0 5 336 208 186 39 205 7 1 89 275 381 77 6 0 2
0 0 1 1 1 1 1 1 1 0 2 0 0 0 0 0 0 0 0 0 0 0 0 0 0 0 0 0 0 7 26 191 165 87 80 8 4 72 13 69 339 101 2 0 2
1 4 4 2 2 1 2 2 0 0 2 0 0 0 0 0 0 0 0 0 0 0 0 0 0 0 0 0 0 0 5 77 80 183 238 193 107 53 0 18 412 128 11 8 0
1 4 7 5 2 1 1 0 0 0 0 0 0 0 0 0 0 0 0 0 0 0 0 0 0 0 0 0 0 0 0 0 202 210 216 81 255 16 203 179 313 166 36 17 0
2 5 4 2 1 3 2 0 0 0 0 0 0 0 0 0 0 0 0 0 0 0 0 0 0 0 0 0 0 0 0 0 0 307 298 196 103 15 28 122 255 191 96 31 2
5 7 8 4 3 2 1 0 0 0 0 0 0 0 0 0 0 0 0 0 0 0 0 0 0 0 0 0 0 0 0 0 0 164 353 250 281 221 0 274 337 145 136 49 33
5 6 5 4 1 1 0 0 0 0 0 0 0 0 0 0 0 0 0 0 0 0 0 0 0 0 0 0 0 0 0 0 0 109 337 172 602 563 426 208 260 169 229 94 69
6 5 4 2 0 0 0 0 0 0 0 0 0 0 0 0 0 0 0 0 0 0 0 0 0 0 0 0 0 0 0 0 0 0 272 210 495 589 0 0 0 109 231 98 22
4 2 3 1 0 0 0 0 0 0 0 0 0 0 0 0 0 0 0 0 0 0 0 0 0 0 0 0 0 0 0 0 0 0 236 202 380 237 0 36 106 9 165 147 65
1 0 0 0 0 0 0 0 0 0 0 0 0 0 0 0 0 0 0 0 0 0 0 0 0 0 0 0 0 0 0 0 0 0 189 119 103 82 115 82 193 5 76 161 93
0 0 0 1 0 0 0 0 0 0 0 0 0 0 0 0 0 0 0 0 0 0 0 0 0 0 0 0 0 0 0 0 0 0 0 196 166 48 102 141 283 235 60 21 89
0 0 0 1 0 0 0 0 0 0 0 0 0 0 0 0 0 0 0 0 0 0 0 0 0 0 0 0 0 0 0 0 0 0 0 0 0 259 86 38 90 162 170 100 90
0 0 0 0 0 0 0 0 0 0 0 0 0 0 0 0 0 0 0 0 0 0 0 0 0 0 0 0 0 0 0 0 0 0 0 0 0 0 6 18 45 44 6 111 30
0 0 1 0 0 0 0 0 0 0 0 0 0 0 0 0 0 0 0 0 0 0 0 0 0 0 0 0 0 0 0 0 0 0 0 0 0 0 28 93 0 27 126 233 6
0 0 0 0 0 0 0 0 0 0 0 0 0 0 0 0 0 0 0 0 0 0 0 0 0 0 0 0 0 0 0 0 0 0 0 0 0 0 60 475 46 65 157 26 7
0 0 0 0 0 0 0 0 0 0 0 0 0 0 0 0 0 0 0 0 0 0 0 0 0 0 0 0 0 0 0 0 0 0 0 0 0 0 0 329 433 162 0 2 491
0 0 0 0 0 0 0 0 0 0 0 0 0 0 0 0 0 0 0 0 0 0 0 0 0 0 0 0 0 0 0 0 0 0 0 0 0 0 0 0 285 217 134 413 419
0 0 0 0 0 0 0 0 0 0 0 0 0 0 0 0 0 0 0 0 0 0 0 0 0 0 0 0 0 0 0 0 0 0 0 0 0 0 0 0 348 318 351 490 173
0 3 0 0 0 9 0 0 0 0 0 0 0 0 0 0 0 0 0 0 0 0 0 0 0 0 0 0 0 0 0 0 0 0 0 0 0 0 0 0 2 402 326 433 154
0 0 0 0 0 0 0 0 0 0 0 0 0 0 0 0 0 0 0 0 0 0 0 0 0 0 0 0 0 0 0 0 0 0 0 0 0 0 0 0 0 3 66 341 276
0 1 0 0 0 0 0 0 0 0 0 0 0 0 0 0 0 0 0 0 0 0 0 0 0 0 0 0 0 0 0 0 0 0 0 0 0 0 0 0 0 3 300 521 396
0 0 0 0 0 0 0 0 0 0 0 0 0 0 0 0 0 0 0 0 0 0 0 0 0 0 0 0 0 0 0 0 0 0 0 0 0 0 0 0 0 4 260 375 432
0 0 0 0 0 0 0 0 0 0 0 0 0 0 0 0 0 0 0 0 0 0 0 0 0 0 0 0 0 0 0 0 0 0 0 0 0 0 0 0 0 0 48 221 269
0 0 0 0 0 0 0 0 0 0 0 0 0 0 0 0 0 0 0 0 0 0 0 5 0 0 0 0 3 0 0 0 0 0 0 0 0 0 0 0 0 229 272 231 68

GFSSW_con_sbcape_066.txt.gz
CAPE
0 0 0 0 0 0 0 3 3 3 3 2 2 1 1 4 0 0 0 0 0 0 0 0 0 0 2 97 78 77 22 107 18 51 171 300 150 474 597 177 134 195 5 0 26
0 0 0 0 0 0 1 2 3 3 2 3 3 1 1 0 0 0 0 0 0 0 0 0 0 0 0 42 101 130 87 146 40 157 147 203 109 483 365 176 212 110 30 6 39
0 0 1 1 2 2 1 1 1 2 1 3 3 1 1 0 0 0 0 0 0 0 0 0 0 0 0 0 20 107 54 153 149 216 164 239 253 132 129 321 545 94 1 0 1
0 1 2 2 2 3 2 1 1 1 1 2 1 0 0 0 0 0 0 0 0 0 0 0 0 0 0 0 0 0 0 9 237 314 366 27 97 46 367 453 326 284 10 0 0
0 1 2 2 2 2 3 2 1 1 0 2 0 1 0 0 0 0 0 0 0 0 0 0 0 0 0 0 0 0 0 5 138 327 384 94 106 107 36 114 312 123 23 0 0
1 3 3 2 2 2 1 1 0 0 0 1 0 1 0 0 0 0 0 0 0 0 0 0 0 0 0 0 0 0 0 0 212 347 280 150 114 51 0 97 297 334 16 15 0
2 3 5 2 1 2 1 0 0 0 0 0 0 0 0 0 0 0 0 0 0 0 0 0 0 0 0 0 0 0 0 0 205 259 355 318 219 151 140 529 534 211 32 12 0
3 4 4 3 2 1 4 1 0 0 0 0 0 0 0 0 0 0 0 0 0 0 0 0 0 0 0 0 0 0 0 0 151 235 285 213 208 155 101 257 419 229 52 11 1
6 6 5 4 3 3 2 0 0 0 0 0 0 0 0 0 0 0 0 0 0 0 0 0 0 0 0 0 0 0 0 0 0 283 225 244 217 125 351 349 278 241 25 16 2
6 7 6 4 2 1 0 0 0 0 0 0 0 0 0 0 0 0 0 0 0 0 0 0 0 0 0 0 0 0 0 0 0 86 260 284 481 71 225 536 453 301 43 36 5
7 6 3 1 0 0 0 0 0 0 0 0 0 0 0 0 0 0 0 0 0 0 0 0 0 0 0 0 0 0 0 0 0 0 315 274 513 166 346 82 203 202 178 46 1
6 4 2 0 0 0 0 0 0 0 0 0 0 0 0 0 0 0 0 0 0 0 0 0 0 0 0 0 0 0 0 0 0 14 51 388 533 127 431 54 139 235 145 122 78
3 3 0 1 0 0 0 0 0 0 0 0 0 0 0 0 0 0 0 0 0 0 0 0 0 0 0 0 0 0 0 0 0 44 370 375 470 497 336 19 207 321 344 244 98
2 3 1 2 0 0 0 0 0 0 0 0 0 0 0 0 0 0 0 0 0 0 0 0 0 0 0 0 0 0 0 0 0 0 15 169 92 76 10 9 386 483 364 140 59
2 1 0 0 0 0 0 0 0 0 0 0 0 0 0 0 0 0 0 0 0 0 0 0 0 0 0 0 0 0 0 0 0 0 0 0 0 0 14 54 390 550 345 254 159
0 1 1 0 0 0 0 0 0 0 0 0 0 0 0 0 0 0 0 0 0 0 0 0 0 0 0 0 0 0 0 0 0 0 0 0 0 0 54 33 386 466 111 232 183
0 0 0 0 0 0 0 0 0 0 0 0 0 0 0 0 0 0 0 0 0 0 0 0 0 0 0 0 0 0 0 0 0 0 0 0 0 0 59 150 178 549 400 351 177
0 0 0 0 0 0 0 0 0 0 0 0 0 0 0 0 0 0 0 0 0 0 0 0 0 0 0 0 0 0 0 0 0 0 0 0 0 0 0 180 221 479 262 71 128
0 0 0 0 0 0 0 0 0 0 0 0 0 0 0 0 0 0 0 0 0 0 0 0 0 0 0 0 0 0 0 0 0 0 0 0 0 0 0 43 113 140 138 159 224
0 0 0 0 0 0 0 0 0 0 0 0 0 0 0 0 0 0 0 0 0 0 0 0 0 0 0 0 0 0 0 0 0 0 0 0 0 0 0 0 199 68 221 270 174
0 0 0 0 0 0 0 0 0 0 0 0 0 0 0 0 0 0 0 0 0 0 0 0 0 0 0 0 0 0 0 0 0 0 0 0 0 0 0 0 6 175 160 87 310
0 0 0 0 0 0 0 0 0 0 0 0 0 0 0 0 0 0 0 0 0 0 0 0 0 0 0 0 0 0 0 0 0 0 0 0 0 0 0 0 0 168 84 50 324
0 0 0 0 0 0 0 0 0 0 0 0 0 0 0 0 0 0 0 0 0 0 0 0 0 0 0 0 0 0 0 0 0 0 0 0 0 0 0 0 40 116 175 143 151
0 0 0 0 0 0 0 0 0 0 0 0 0 0 0 0 0 0 0 0 0 0 0 0 0 0 0 0 0 0 0 0 0 0 0 0 0 0 0 0 5 79 117 150 143
0 0 0 0 0 0 0 0 0 0 0 0 0 0 0 0 0 0 0 0 0 0 0 0 0 0 0 0 0 0 0 0 0 0 0 0 0 0 0 43 157 134 64 68 31
0 0 0 0 0 0 0 0 0 0 0 0 0 0 0 0 0 0 0 0 0 0 0 0 0 0 0 0 0 0 0 0 0 0 0 0 0 0 0 0 0 9 2 4 1
0 0 0 0 0 0 0 0 0 0 0 0 0 0 0 0 0 0 0 0 0 0 0 0 0 0 0 0 0 0 0 0 0 0 0 0 0 0 0 0 0 0 0 0 10

GFSSW_con_sbcape_069.txt.gz
CAPE
0 0 1 2 2 1 2 3 3 4 3 2 2 3 3 4 1 0 0 0 0 0 21 0 0 0 19 53 77 133 137 19 4 71 232 176 190 394 355 37 0 200 10 20 178
0 0 1 2 3 4 2 2 3 3 3 2 3 3 2 4 0 0 0 0 0 11 0 0 0 0 9 122 199 237 157 59 37 150 284 267 259 394 126 150 174 5 12 87 157
0 1 3 3 2 3 4 2 2 2 2 1 1 2 1 0 0 0 0 0 0 21 0 0 0 0 0 0 148 123 78 56 89 228 334 280 368 202 170 168 132 7 46 70 74
1 3 4 3 3 4 2 3 2 1 1 1 2 0 1 0 0 0 0 0 0 0 0 0 0 0 0 0 0 19 14 149 56 410 300 258 204 241 240 468 161 125 35 31 49
1 3 4 6 5 4 3 1 2 1 0 0 2 0 0 0 0 0 0 0 0 0 0 0 0 0 0 0 0 6 5 0 0 290 287 49 55 227 383 607 410 97 23 26 10
3 5 4 3 4 4 2 1 1 1 0 0 1 1 0 0 0 0 0 0 0 0 0 0 0 0 0 0 0 0 0 0 0 309 200 143 110 68 114 196 429 453 1 1 0
3 5 5 3 3 1 2 1 1 0 0 0 0 0 0 0 0 0 0 0 0 0 0 0 0 0 0 0 0 0 0 0 242 335 366 165 104 146 63 64 312 196 8 0 0
5 5 5 4 3 2 2 1 1 0 0 0 0 0 0 0 0 0 0 0 0 0 0 0 0 0 0 0 0 0 0 0 292 345 299 257 269 104 314 73 75 131 16 43 2
8 7 4 2 3 5 2 2 0 0 0 0 0 0 0 0 0 0 0 0 0 0 0 0 0 0 0 0 0 0 0 0 144 168 335 230 222 189 333 451 286 107 19 22 1
12 10 8 5 4 3 3 0 0 0 0 0 0 0 0 0 0 0 0 0 0 0 0 0 0 0 0 0 0 0 0 0 0 179 255 230 198 248 348 412 435 175 36 7 0
10 7 5 4 4 3 1 0 0 0 0 0 0 0 0 0 0 0 0 0 0 0 0 0 0 0 0 0 0 0 0 0 0 0 221 179 338 102 304 379 422 260 54 39 2
7 5 4 4 4 2 0 0 0 0 0 0 0 0 0 0 0 0 0 0 0 0 0 0 0 0 0 0 0 0 0 0 0 3 0 7 316 102 342 444 428 282 67 28 1
5 5 5 4 1 0 0 0 0 0 0 0 0 0 0 0 0 0 0 0 0 0 0 0 0 0 0 0 0 0 0 0 0 1 289 340 217 80 190 136 57 118 213 60 0
6 7 5 1 0 0 0 0 0 0 0 0 0 0 0 0 0 0 0 0 0 0 0 0 0 0 0 0 0 0 0 0 0 0 0 21 19 345 194 286 37 93 325 129 31
5 5 2 3 0 0 0 0 0 0 0 0 0 0 0 0 0 0 0 0 0 0 0 0 0 0 0 0 0 0 0 0 0 0 0 0 0 0 71 93 117 149 282 313 84
2 1 2 0 0 0 0 0 0 0 0 0 0 0 0 0 0 0 0 0 0 0 0 0 0 0 0 0 0 0 0 0 0 0 0 0 0 0 39 70 113 110 379 303 180
0 0 1 0 0 0 0 0 0 0 0 0 0 0 0 0 0 0 0 0 0 0 0 0 0 0 0 0 0 0 0 0 0 0 0 0 0 0 5 119 77 113 396 401 225
0 0 0 0 0 0 0 0 0 0 0 0 0 0 0 0 0 0 0 0 0 0 0 0 0 0 0 0 0 0 0 0 0 0 0 0 0 0 0 0 43 57 188 464 252
0 0 0 0 0 0 0 0 0 0 0 0 0 0 0 0 0 0 0 0 0 0 0 0 0 0 0 0 0 0 0 0 0 0 0 0 0 0 0 0 12 53 240 399 196
0 0 0 0 0 0 0 0 0 0 0 0 0 0 0 0 0 0 0 0 0 0 0 0 0 0 0 0 0 0 0 0 0 0 0 0 0 0 0 0 42 7 166 332 272
0 0 0 0 0 0 0 0 0 0 0 0 0 0 0 0 0 0 0 0 0 0 0 0 0 0 0 0 0 0 0 0 0 0 0 0 0 0 0 0 0 0 0 37 15
0 0 0 0 0 0 0 0 0 0 0 0 0 0 0 0 0 0 0 0 0 0 0 0 0 0 0 0 0 0 0 0 0 0 0 0 0 0 0 0 0 50 24 0 34
0 0 0 0 0 0 0 0 0 0 0 0 0 0 0 0 0 0 0 0 0 0 0 0 0 0 0 0 0 0 0 0 0 0 0 0 0 0 0 6 3 13 30 37 70
0 0 0 0 0 0 0 0 0 0 0 0 0 0 0 0 0 0 0 0 0 0 0 0 0 0 0 0 0 0 0 0 0 0 0 0 0 0 0 3 0 0 0 0 0
0 0 0 0 0 0 0 0 0 0 0 0 0 0 0 0 0 0 0 0 0 0 0 0 0 0 0 0 0 0 0 0 0 0 0 0 0 0 0 1 3 0 0 3 5
0 0 0 0 0 0 0 0 0 0 0 0 0 0 0 0 0 0 0 0 0 0 0 0 0 0 0 0 0 0 0 0 0 0 0 0 0 0 0 0 0 0 0 3 2
0 0 0 0 0 0 0 0 0 0 0 0 0 0 0 0 0 0 0 0 0 0 0 0 0 0 0 0 0 0 0 0 0 0 0 0 0 0 0 0 0 0 0 0 2

GFSSW_con_sbcape_072.txt.gz
CAPE
0 1 3 3 4 3 3 3 4 3 2 2 2 4 3 1 2 0 0 0 0 0 0 0 0 0 10 3 50 115 186 38 3 23 204 242 73 265 223 2 21 133 30 112 393
0 2 3 5 5 4 4 3 3 4 2 2 2 2 2 2 0 0 0 0 0 0 0 0 0 0 23 100 89 165 151 4 25 19 216 360 155 148 65 14 1 29 107 294 296
1 4 5 5 4 4 3 3 2 2 3 2 2 3 0 1 0 0 0 0 0 8 0 0 0 0 0 0 142 257 89 47 57 314 307 291 246 344 156 252 17 60 158 115 91
3 5 5 5 5 4 4 2 3 2 2 2 3 2 0 0 0 0 0 0 0 0 0 0 0 0 0 0 0 42 24 8 111 335 291 295 217 278 205 329 8 42 131 138 97
5 6 5 6 5 4 4 2 3 2 1 2 1 2 0 0 0 0 0 0 0 0 0 0 0 0 0 0 0 17 1 0 0 288 336 298 241 268 388 93 40 75 73 88 100
6 6 5 5 5 4 2 2 2 2 2 0 1 3 0 0 0 0 0 0 0 0 0 0 0 0 0 0 0 0 0 0 0 10 159 70 201 202 597 157 88 83 33 42 79
2 6 5 4 4 4 3 2 2 2 1 0 5 0 0 0 0 0 0 0 0 0 0 0 0 0 0 0 0 0 0 0 280 205 113 149 157 86 358 567 460 176 48 5 47
2 4 4 3 3 3 4 4 3 1 1 0 1 0 0 0 0 0 0 0 0 0 0 0 0 0 0 0 0 0 0 0 249 287 226 153 132 134 257 168 357 120 16 3 38
6 6 3 3 5 7 6 3 0 0 0 1 0 0 0 0 0 0 0 0 0 0 0 0 0 0 0 0 0 0 0 0 78 273 302 134 162 182 394 108 212 182 12 0 26
8 8 6 8 10 3 1 0 1 0 0 0 0 0 0 0 0 0 0 0 0 0 0 0 0 0 0 0 0 0 0 0 0 207 312 266 149 187 542 474 132 69 11 0 0
8 7 8 5 7 0 0 0 0 0 0 0 0 0 0 0 0 0 0 0 0 0 0 0 0 0 0 0 0 0 0 0 0 0 213 174 125 175 272 581 336 17 14 0 0
8 9 9 0 2 1 0 0 0 0 0 0 0 0 0 0 0 0 0 0 0 0 0 0 0 0 0 0 0 0 0 0 0 0 0 0 165 79 319 402 452 277 30 13 0
8 10 0 0 1 0 0 0 0 0 0 0 0 0 0 0 0 0 0 0 0 0 0 0 0 0 0 0 0 0 0 0 0 0 245 202 194 164 97 307 31 114 124 4 0
10 6 3 0 0 0 0 0 0 0 0 0 0 0 0 0 0 0 0 0 0 0 0 0 0 0 0 0 0 0 0 0 0 0 0 48 51 78 134 212 52 25 104 108 0
9 6 1 0 0 0 0 0 0 0 0 0 0 0 0 0 0 0 0 0 0 0 0 0 0 0 0 0 0 0 0 0 0 0 0 0 0 0 145 108 118 98 41 130 65
2 3 1 0 0 0 0 0 0 0 0 0 0 0 0 0 0 0 0 0 0 0 0 0 0 0 0 0 0 0 0 0 0 0 0 0 0 0 1 0 23 66 102 72 163
0 0 0 0 0 0 0 0 0 0 0 0 0 0 0 0 0 0 0 0 0 0 0 0 0 0 0 0 0 0 0 0 0 0 0 0 0 0 0 0 0 5 62 105 141
0 0 0 0 0 0 0 0 0 0 0 0 0 0 0 0 0 0 0 0 0 0 0 0 0 0 0 0 0 0 0 0 0 0 0 0 0 0 0 0 0 0 56 200 188
0 0 0 0 0 0 0 0 0 0 0 0 0 0 0 0 0 0 0 0 0 0 0 0 0 0 0 0 0 0 0 0 0 0 0 0 0 0 0 0 0 0 19 92 334
0 0 0 0 0 0 0 0 0 0 0 0 0 0 0 0 0 0 0 0 0 0 0 0 0 0 0 0 0 0 0 0 0 0 0 0 0 0 0 0 0 0 0 2 298
0 0 0 0 0 0 0 0 0 0 0 0 0 0 0 0 0 0 0 0 0 0 0 0 0 0 0 0 0 0 0 0 0 0 0 0 0 0 0 0 0 0 0 32 11
0 0 0 0 0 0 0 0 0 0 0 0 0 0 0 0 0 0 0 0 0 0 0 0 0 0 0 0 0 0 0 0 0 0 0 0 0 0 0 2 0 3 0 4 55
0 0 0 0 0 0 0 0 0 0 0 0 0 0 0 0 0 0 0 0 0 0 0 0 0 0 0 0 0 0 0 0 0 0 0 0 0 0 0 0 0 4 4 3 1
0 0 0 0 0 0 0 0 0 0 0 0 0 0 0 0 0 0 0 0 0 0 0 0 0 0 0 0 0 0 0 0 0 0 0 0 0 0 0 1 0 0 0 0 1
0 0 0 0 0 0 0 0 0 0 0 0 0 0 0 0 0 0 0 0 0 0 0 0 0 0 0 0 0 0 0 0 0 0 0 0 0 0 0 1 0 0 0 0 1
0 0 0 0 0 0 0 0 0 0 0 0 0 0 0 0 0 0 0 0 0 0 0 0 0 0 0 0 0 0 0 0 0 0 0 0 0 0 0 0 0 0 0 2 6
0 0 0 0 0 0 0 0 0 0 0 0 0 0 0 0 0 0 0 0 0 0 0 0 0 0 0 0 0 0 0 0 0 0 0 0 0 0 0 0 0 0 0 0 0

GFSSW_con_sbcape_075.txt.gz
CAPE
0 2 3 3 3 3 3 4 5 3 3 2 2 2 1 1 0 0 0 0 0 0 0 0 0 3 0 11 127 202 265 92 31 130 197 148 77 216 198 28 33 95 42 28 104
3 4 4 4 3 3 3 3 3 4 3 1 2 2 2 0 0 0 0 0 0 0 0 0 0 16 2 14 111 371 398 52 117 234 380 130 163 141 33 83 164 123 91 144 156
6 6 4 4 3 3 3 2 2 3 3 2 2 1 1 3 0 0 0 0 0 8 0 0 0 15 0 46 75 368 401 147 194 343 393 155 202 188 22 99 115 133 78 99 71
5 4 5 5 5 5 3 3 2 2 2 2 1 1 1 0 0 0 0 0 0 0 0 0 0 10 17 21 3 221 96 101 153 468 356 321 255 220 186 114 68 112 87 87 86
4 4 4 5 5 5 5 3 3 2 2 2 1 3 0 0 0 0 0 5 0 0 0 0 0 0 21 35 5 22 65 0 2 307 309 432 254 262 202 50 128 127 61 44 81
1 1 2 3 5 4 3 4 5 3 1 2 1 0 0 0 0 0 0 0 0 0 0 0 0 0 0 0 0 0 0 0 0 3 449 411 404 124 194 27 91 210 222 234 169
1 4 5 5 5 4 5 4 6 5 2 1 1 0 0 0 0 0 0 0 0 0 0 0 0 0 0 0 0 0 0 27 233 86 259 316 372 288 233 53 78 120 114 96 67
7 5 5 5 4 2 1 3 2 3 3 0 2 0 0 0 0 0 0 0 0 0 0 0 0 0 0 0 0 0 0 0 429 352 294 248 137 241 275 101 91 37 67 134 140
6 4 4 4 1 1 1 0 0 0 1 3 0 0 0 0 0 0 0 0 0 0 0 0 0 0 0 0 0 0 0 0 309 518 494 422 278 271 470 251 169 70 78 36 79
6 6 6 1 1 2 0 0 1 1 2 0 0 0 0 0 0 0 0 0 0 0 0 0 0 0 0 0 0 0 0 0 30 624 553 540 342 409 354 242 542 286 154 104 76
5 8 1 1 1 1 0 0 0 0 0 0 0 0 0 0 0 0 0 0 0 0 0 0 0 0 0 0 0 0 0 0 0 115 150 125 216 633 774 262 473 428 320 111 102
7 1 1 2 1 1 0 0 0 0 0 0 0 0 0 0 0 0 0 0 0 0 0 0 0 0 0 0 0 0 0 0 0 0 0 1 118 472 645 535 469 456 185 113 88
9 3 1 1 2 0 0 0 0 0 0 0 0 0 0 0 0 0 0 0 0 0 0 0 0 0 0 0 0 0 0 0 0 0 451 299 443 418 492 624 586 336 158 95 84
1 2 1 2 0 0 0 0 0 0 0 0 0 0 0 0 0 0 0 0 0 0 0 0 0 0 0 0 0 0 0 0 0 0 0 307 29 330 484 625 553 707 364 231 131
1 0 1 0 0 0 0 0 0 0 0 0 0 0 0 0 0 0 0 0 0 0 0 0 0 0 0 0 0 0 0 0 0 0 0 45 10 13 443 507 415 355 649 478 202
2 1 1 0 0 0 0 0 0 0 0 0 0 0 0 0 0 0 0 0 0 0 0 0 0 0 0 0 0 0 0 0 0 0 0 0 0 0 0 0 0 204 276 569 438
0 1 0 0 0 0 0 0 0 0 0 0 0 0 0 0 0 0 0 0 0 0 0 0 0 0 0 0 0 0 0 0 0 0 0 0 0 0 0 0 0 29 11 364 575
0 0 0 0 0 0 0 0 2 0 0 0 0 0 0 0 0 0 0 0 0 0 0 0 0 0 0 0 0 0 0 0 0 0 0 0 0 0 0 0 17 61 133 57 445
0 0 0 0 0 0 0 1 0 0 0 0 0 0 0 0 0 0 0 0 0 0 0 0 0 0 0 0 0 0 0 0 0 0 0 0 0 0 0 0 0 9 24 108 342
0 0 0 0 0 0 0 0 0 0 0 0 0 0 0 0 0 0 0 0 0 0 0 0 0 0 0 0 0 0 0 0 0 0 0 0 0 0 1 2 1 5 8 13 124
0 0 0 0 0 0 0 0 0 0 0 0 0 0 0 0 0 0 0 0 0 0 0 0 0 0 0 0 0 0 0 0 0 0 0 0 0 6 7 6 8 8 8 8 301
0 0 0 0 0 0 0 0 0 0 0 0 0 0 0 0 0 0 0 0 0 0 0 0 0 0 0 0 0 0 0 0 0 0 0 0 0 1 7 1 3 5 4 7 3
0 0 0 0 0 0 0 0 0 0 0 0 0 0 0 0 0 0 0 0 0 0 0 0 0 0 0 0 0 0 0 0 0 0 0 0 0 0 1 0 0 1 2 3 5
0 0 0 0 0 0 0 0 0 0 0 0 0 0 0 0 0 0 0 0 0 0 0 0 0 0 0 0 0 0 0 0 0 0 0 0 0 0 0 0 0 0 2 2 2
0 0 0 0 0 0 0 0 0 0 0 0 0 0 0 0 0 0 0 0 0 0 0 0 0 0 0 0 0 0 0 0 0 0 0 0 0 0 0 0 0 0 0 0 0
0 0 0 0 0 0 0 0 0 0 0 0 0 0 0 0 0 0 0 0 0 0 0 0 0 0 0 0 0 0 0 0 0 0 0 0 0 0 0 0 0 0 0 0 0
0 0 0 0 0 0 0 0 0 0 0 0 0 0 0 0 0 0 0 0 0 0 0 0 0 0 0 0 0 0 0 0 0 0 0 0 0 0 0 0 0 0 0 0 0

GFSSW_con_sbcape_078.txt.gz
CAPE
2 3 2 3 4 5 5 4 4 2 1 1 1 0 0 0 0 0 0 0 0 0 0 0 0 25 25 57 309 447 557 195 349 49 105 79 35 181 76 94 135 361 168 35 66
3 2 3 3 3 3 4 5 4 3 2 2 1 0 1 0 0 0 0 0 0 0 0 0 0 54 76 38 391 504 459 196 287 509 177 67 58 52 43 93 316 284 50 27 31
3 3 3 4 3 3 2 3 4 5 3 2 1 0 0 0 0 0 0 0 0 0 0 0 0 38 92 46 416 646 340 105 235 704 340 232 46 91 48 389 548 417 79 42 21
2 1 1 2 5 3 3 3 3 3 5 3 1 0 0 0 0 0 0 0 0 0 0 0 0 5 1 12 136 523 346 63 145 350 498 555 81 524 242 397 412 348 20 61 28
1 2 4 3 2 3 4 3 3 2 2 3 1 0 0 0 0 0 0 0 0 0 0 0 0 0 0 29 25 327 209 2 0 270 273 554 397 250 91 210 265 141 43 22 35
3 3 4 4 3 3 4 4 2 3 2 1 1 0 0 0 0 0 0 0 0 0 0 0 0 0 0 55 97 132 93 0 0 42 261 494 532 173 234 336 136 66 94 72 58
3 6 4 4 4 2 1 2 2 3 3 0 1 0 0 0 0 0 0 0 0 0 0 0 0 0 0 1 27 21 0 5 25 0 143 586 632 456 302 351 165 124 96 106 108
4 2 2 2 1 2 1 1 0 2 1 0 0 0 0 0 0 0 0 0 0 0 0 0 0 0 0 0 20 27 0 1 196 120 239 584 501 792 256 257 123 162 184 154 49
2 6 2 3 1 2 1 0 1 1 1 0 0 0 0 0 0 0 0 0 0 0 0 0 0 0 0 0 6 30 177 4 339 550 712 661 503 544 359 122 119 32 6 0 0
12 8 3 2 1 1 0 0 0 0 0 0 0 0 0 0 0 0 0 0 0 0 0 0 0 0 0 0 0 169 109 0 287 795 802 495 526 1015 184 206 102 52 70 1 54
10 2 6 4 2 3 0 0 0 0 0 0 0 0 0 0 0 0 0 0 0 0 0 0 0 0 0 0 0 87 63 44 61 659 550 183 139 895 906 611 212 128 146 156 101
9 5 3 2 1 0 0 0 0 0 0 0 0 0 0 0 0 0 0 0 0 0 0 0 0 0 0 0 0 0 0 2 0 0 0 0 9 356 760 797 794 658 508 511 217
8 5 2 1 0 0 0 0 0 0 0 0 0 0 0 0 0 0 0 0 0 0 0 0 0 0 0 0 0 0 44 4 2 0 43 90 453 504 707 650 857 830 883 738 549
7 1 1 0 0 0 0 0 0 0 0 0 0 0 0 0 0 0 0 0 0 0 0 0 0 0 0 0 0 0 0 0 0 0 79 92 219 651 668 1055 652 717 820 846 674
2 0 0 0 0 0 0 0 0 0 3 0 0 0 0 0 0 0 0 0 0 0 0 0 0 0 0 0 0 4 0 0 0 0 0 0 82 185 610 539 743 754 496 345 697
0 1 0 0 0 0 0 0 0 0 49 0 0 0 0 0 0 0 0 0 2 0 0 1 0 1 0 0 0 0 0 0 0 0 0 28 64 0 102 14 17 49 769 952 514
0 0 0 0 0 0 0 0 6 42 0 0 0 0 0 0 0 0 0 0 0 0 0 1 0 2 1 7 0 0 0 1 1 0 0 4 0 21 0 156 191 127 220 345 1150
0 0 0 0 0 0 0 22 37 9 2 0 0 0 0 13 6 3 1 2 0 0 5 0 0 0 0 0 0 0 0 0 3 0 0 0 6 0 44 105 151 212 352 27 818
0 0 0 0 0 0 26 90 12 0 0 0 0 1 6 3 6 22 6 0 0 0 41 40 0 0 0 0 0 0 0 0 8 4 11 0 0 0 0 36 87 31 88 299 471
0 0 0 0 0 0 120 12 12 0 0 0 2 1 24 11 43 33 1 0 0 0 0 4 0 0 0 0 0 0 0 0 0 1 5 0 0 17 0 4 7 7 12 201 560
0 0 0 0 0 57 127 18 0 0 0 3 0 11 1 14 27 2 0 0 0 0 0 0 0 0 0 0 0 0 0 0 0 0 2 12 18 1 6 6 9 10 11 22 121
0 0 0 0 116 8 28 0 0 0 0 0 0 0 2 0 7 4 0 0 0 0 0 0 0 0 0 0 0 0 0 0 1 0 0 21 26 7 7 2 4 8 9 10 12
0 0 0 0 67 7 0 0 0 0 0 0 0 0 0 0 2 0 0 0 0 0 0 0 0 0 0 0 0 0 0 0 0 0 6 0 12 8 14 11 4 4 5 5 4
0 0 0 0 0 0 0 0 0 0 0 0 0 0 5 0 2 0 0 0 0 0 0 0 0 0 6 0 0 0 0 0 0 2 22 0 5 9 9 13 12 8 0 0 0
0 0 0 0 0 0 0 0 0 0 0 0 0 0 2 3 0 0 0 0 0 0 0 0 0 0 0 0 0 0 0 0 0 0 1 0 2 5 8 3 2 1 0 0 0
0 0 0 0 0 0 0 0 0 0 0 0 0 0 0 1 5 0 0 0 0 0 0 0 0 0 0 0 0 0 0 0 0 0 0 0 0 4 3 0 0 0 0 0 0
0 0 0 0 0 0 0 0 0 0 0 0 0 0 0 0 0 0 0 0 0 0 0 0 0 0 0 0 0 0 0 0 0 0 0 0 0 0 0 0 0 0 0 0 0

GFSSW_con_sbcape_081.txt.gz
CAPE
3 3 3 4 4 4 3 3 2 2 2 2 1 1 0 0 0 0 0 0 0 0 38 0 3 137 166 256 353 608 825 440 505 455 113 273 209 297 555 372 510 517 116 56 109
3 4 4 4 4 4 3 4 3 2 1 1 1 1 0 0 0 0 0 0 0 171 1 0 0 161 286 299 369 936 661 476 531 424 446 41 116 70 185 310 500 327 65 40 80
2 2 2 3 3 3 3 3 3 2 1 0 1 1 0 0 0 0 0 0 0 134 0 0 0 118 186 193 403 780 308 305 704 555 273 89 10 44 65 397 581 189 93 62 49
2 2 2 2 4 2 3 3 2 2 2 0 0 0 0 0 0 0 0 0 0 0 0 0 0 6 116 204 624 730 451 225 673 532 293 194 82 89 145 545 580 247 82 50 82
2 3 3 3 4 4 3 3 3 2 2 1 0 0 0 0 0 0 0 0 0 0 0 0 0 0 35 163 383 688 300 7 154 108 664 443 467 563 444 512 456 244 64 35 20
3 1 2 4 4 4 4 1 2 2 1 1 0 0 0 0 0 0 0 0 0 0 0 0 0 0 4 197 91 426 472 6 54 2 765 590 481 583 361 474 598 172 78 40 11
3 2 3 3 4 1 1 2 1 2 1 1 0 0 0 0 0 0 0 0 0 0 0 0 0 0 0 82 471 362 130 2 37 195 503 604 632 315 569 337 211 146 104 68 12
3 3 5 3 4 2 3 3 0 1 2 1 0 0 0 0 0 0 0 0 0 0 0 0 0 0 0 13 135 323 237 128 92 145 452 526 570 720 756 485 283 139 68 77 48
6 5 4 5 6 6 2 0 0 0 0 0 0 0 0 0 0 0 0 0 0 0 0 0 0 0 0 8 102 241 251 150 209 317 577 672 729 372 625 373 342 102 120 91 75
11 7 4 7 7 3 0 0 0 0 0 0 0 0 0 0 0 0 0 0 0 0 0 0 0 0 0 3 36 185 205 152 264 561 562 366 554 953 380 396 195 111 67 72 29
9 8 8 7 2 1 0 0 0 0 0 0 0 0 0 0 0 0 0 0 0 0 0 0 0 0 0 0 16 94 122 44 232 296 690 506 599 803 284 213 369 81 37 15 10
8 8 3 1 1 0 0 0 0 0 0 0 0 0 0 0 0 0 0 0 0 0 0 0 0 0 0 0 6 52 156 68 95 149 618 308 603 1099 648 274 94 90 212 8 13
7 5 1 0 0 0 0 0 0 0 0 0 0 0 0 0 0 0 0 0 0 0 0 0 0 0 0 0 1 79 174 63 5 84 67 13 140 707 614 539 172 159 175 211 33
3 2 0 0 0 0 0 0 0 0 0 0 0 0 0 0 0 0 0 0 0 0 0 0 0 0 0 0 0 55 73 35 49 6 84 106 337 345 937 620 585 605 495 656 393
4 2 0 1 0 0 0 0 0 0 9 0 0 0 0 0 0 0 0 0 0 0 0 0 0 0 0 0 0 3 38 63 17 0 136 150 227 18 601 723 530 425 720 699 511
1 0 0 0 0 0 0 0 0 0 50 6 0 0 0 0 2 15 0 0 0 0 0 0 0 0 0 0 0 4 58 60 37 5 37 30 91 49 193 750 803 415 737 557 369
0 0 0 0 0 0 0 0 16 102 80 9 18 1 52 3 16 15 0 12 3 0 0 0 0 8 0 0 0 26 61 68 29 11 14 7 131 49 257 280 250 120 196 575 617
0 0 0 0 0 0 0 36 162 199 113 7 7 32 84 60 44 68 84 36 15 14 0 6 70 42 11 14 2 8 18 25 12 5 4 53 209 186 207 273 164 258 145 515 904
0 0 0 1 0 0 63 147 186 83 3 0 0 31 78 64 110 148 146 51 109 65 57 90 89 25 34 17 2 8 7 1 42 46 31 116 152 139 138 178 49 56 413 741 204
0 1 26 0 0 39 140 113 106 0 0 0 1 18 90 110 99 110 109 0 4 0 0 22 82 0 0 0 0 0 3 9 6 61 57 135 150 212 74 90 11 8 36 360 1182
0 5 1 0 16 226 86 157 2 7 1 5 0 31 2 42 71 55 103 0 0 0 0 12 39 0 0 0 0 0 0 18 49 57 120 109 296 166 43 14 8 9 9 9 24
0 39 0 0 98 181 253 133 0 20 1 20 0 12 0 19 3 0 8 1 0 0 15 15 35 1 0 0 0 0 18 6 24 43 19 26 242 52 32 31 6 10 11 9 9
0 0 0 0 66 189 73 1 1 17 14 25 12 0 4 30 0 32 0 0 0 0 18 0 0 48 0 0 0 0 0 0 23 52 77 44 219 111 88 71 2 2 2 3 3
0 13 0 0 44 122 156 111 38 0 0 5 15 3 19 1 54 58 1 0 0 0 0 0 13 41 47 0 0 0 0 0 0 18 60 267 202 163 72 122 20 0 1 0 0
0 0 0 12 0 7 0 0 0 0 0 11 63 72 13 19 28 48 30 6 1 0 0 6 31 17 0 0 0 2 0 0 0 0 65 445 252 148 68 35 16 10 0 0 1
0 0 0 0 0 0 0 0 0 0 0 0 49 44 88 40 82 24 22 24 17 0 2 0 37 22 0 0 0 0 0 0 0 0 12 175 119 57 17 4 1 0 0 0 0
0 0 0 0 0 0 0 0 0 0 0 0 0 20 42 7 6 12 14 16 30 33 0 2 12 0 9 0 0 0 0 0 0 0 0 208 143 16 8 0 0 0 0 0 0

GFSSW_con_sbcape_084.txt.gz
CAPE
4 3 3 3 4 5 4 3 2 2 2 1 1 0 1 0 0 0 0 0 0 9 3 0 0 0 43 106 148 282 649 532 282 352 574 535 480 384 789 323 382 174 0 0 30
5 4 3 3 1 3 3 3 2 1 1 1 1 0 0 0 0 0 0 0 2 0 0 0 0 21 284 182 315 291 703 543 410 320 497 232 187 95 284 291 287 2 9 1 38
4 2 2 4 4 2 1 3 4 3 1 1 1 0 0 0 0 0 0 0 0 26 0 0 0 87 235 332 436 707 360 626 504 446 271 196 104 75 252 464 117 31 0 0 35
4 2 4 5 5 3 3 1 3 5 2 1 1 0 0 0 0 0 0 0 0 0 0 0 0 55 205 246 438 303 509 783 584 327 98 103 51 100 147 644 150 38 8 3 10
1 2 3 5 4 3 3 3 2 3 3 1 0 0 0 0 0 0 0 0 0 0 0 0 0 8 158 333 586 701 327 573 593 364 148 101 121 68 303 196 264 63 13 4 7
2 3 3 3 3 3 2 2 2 1 3 4 1 0 0 0 0 0 0 0 0 0 0 0 0 0 29 152 472 401 347 74 160 556 395 183 360 317 512 420 388 102 13 9 6
2 3 6 7 4 4 3 2 2 1 4 3 1 0 0 0 0 0 0 0 0 0 0 0 0 0 0 79 413 343 514 42 107 783 713 436 479 463 522 721 431 104 31 19 25
4 4 6 5 7 2 6 3 0 1 2 2 1 0 0 0 0 0 0 0 0 0 0 0 0 0 0 5 502 528 330 79 85 587 583 501 422 398 395 524 211 61 25 23 31
6 4 7 4 5 5 1 0 0 3 0 0 0 0 0 0 0 0 0 0 0 0 0 0 0 0 0 0 119 354 293 163 124 405 608 571 348 500 292 239 141 64 29 25 24
7 5 5 5 6 2 0 0 0 0 0 0 0 0 0 0 0 0 0 0 0 0 0 0 0 0 0 0 17 58 79 56 163 468 606 637 458 480 452 227 176 66 30 45 32
8 6 4 5 2 0 0 0 0 0 0 0 0 0 0 0 0 0 0 0 0 0 0 0 0 0 0 0 5 61 90 143 62 1 641 750 661 380 651 393 194 40 60 56 56
8 5 2 3 0 0 0 0 0 0 0 0 0 0 0 0 0 0 0 0 0 0 0 0 0 0 0 0 0 6 9 107 32 63 258 683 628 637 487 288 221 113 56 80 56
1 0 1 0 0 0 0 0 0 0 0 0 0 0 0 0 0 0 0 0 0 0 0 0 0 0 0 0 0 0 16 45 106 1 0 36 514 11 442 385 221 121 129 83 36
1 2 1 0 0 0 0 0 0 0 0 0 0 0 0 0 0 0 0 0 0 0 0 0 0 0 0 0 0 0 6 6 219 175 208 82 607 697 574 438 335 154 140 98 18
0 0 0 1 0 0 0 0 0 0 0 0 0 0 0 0 0 0 0 0 0 0 0 0 0 0 0 0 0 0 29 1 14 14 8 31 92 506 413 602 2 12 157 98 118
1 0 0 0 0 0 0 0 0 0 17 6 0 0 0 0 0 0 0 0 0 0 0 0 0 0 0 0 0 0 16 54 46 5 5 91 81 272 250 3 140 94 307 5 71
0 0 0 0 0 0 0 0 7 17 69 27 5 0 0 0 0 13 1 0 0 0 0 0 0 0 0 0 0 0 1 42 50 27 9 3 71 134 2 419 227 315 250 124 52
0 0 0 0 0 0 0 10 63 65 79 65 5 20 0 13 0 18 51 3 0 2 0 0 0 0 1 0 0 0 0 56 36 17 15 2 104 122 0 306 422 358 495 46 101
0 0 0 0 2 0 1 174 54 44 23 14 21 22 51 38 44 47 69 16 0 4 19 5 0 0 2 0 14 11 0 39 62 35 27 322 223 222 120 138 163 252 643 546 832
0 0 7 13 0 2 95 0 0 109 0 4 35 18 20 19 6 74 109 64 41 17 32 30 8 10 24 52 63 17 0 8 14 45 87 450 335 273 277 186 57 50 38 4 13
0 0 28 20 0 30 5 1 123 1 0 25 3 67 33 7 85 156 0 58 14 5 10 34 61 71 44 0 5 1 0 5 3 22 41 362 251 248 147 92 15 7 7 8 5
0 38 12 0 0 180 248 71 0 0 0 2 0 0 47 33 14 4 2 0 0 0 0 30 136 32 3 0 0 0 6 1 19 17 25 310 203 56 83 24 4 4 8 12 5
6 0 0 0 107 82 27 9 0 2 15 15 0 0 0 61 40 6 1 1 0 0 0 7 53 18 26 0 0 0 0 0 17 27 145 47 253 158 135 8 1 1 2 7 7
0 4 21 0 19 97 164 179 91 0 0 0 0 0 0 1 6 0 0 0 0 0 0 0 1 44 1 1 0 0 0 0 0 2 49 559 359 224 221 59 0 0 0 2 5
3 0 0 9 1 3 6 9 9 22 1 0 26 0 0 0 12 2 0 0 0 0 0 0 1 11 0 0 3 0 0 0 0 0 444 523 263 257 164 90 10 1 1 0 0
0 5 0 0 0 0 0 0 0 0 0 6 14 53 18 0 6 41 7 1 3 0 0 0 2 20 0 0 0 0 0 0 0 0 117 231 320 89 6 19 11 2 0 0 0
0 0 2 0 7 27 0 0 0 0 0 0 2 84 80 0 2 16 15 1 2 2 9 6 1 0 0 0 0 0 0 0 0 0 485 509 86 30 1 0 3 0 0 0 0

GFSSW_con_sbcape_087.txt.gz
CAPE
2 2 3 2 3 2 4 3 2 3 4 3 2 1 2 1 0 0 0 0 0 0 0 0 0 0 0 100 107 276 164 181 174 123 371 398 435 492 768 185 20 1 0 7 34
4 4 4 3 3 4 3 3 3 1 1 3 3 2 2 1 0 0 0 0 5 0 0 0 0 0 0 12 141 240 104 188 245 343 511 410 415 218 198 161 93 3 13 30 67
4 4 4 3 3 3 3 4 3 3 2 1 2 3 1 0 0 0 0 0 19 0 0 0 0 0 0 30 276 353 290 430 177 431 389 287 96 132 185 155 0 0 2 39 33
1 1 1 0 5 4 4 4 4 4 3 1 1 2 0 0 0 0 16 0 6 0 0 0 0 0 0 101 350 532 301 436 420 310 176 170 108 120 549 456 50 1 0 48 26
1 3 2 2 3 5 4 3 2 2 3 3 1 1 0 0 0 0 0 0 0 0 0 0 0 0 1 42 232 5 104 454 337 160 137 46 124 261 154 292 149 3 1 60 54
2 1 2 5 4 3 1 1 2 3 2 1 5 0 0 0 0 0 0 0 0 0 0 0 0 0 6 19 494 419 261 570 237 104 105 81 100 157 92 0 173 1 0 3 18
6 3 1 1 1 1 1 3 1 1 1 1 2 0 0 0 0 0 0 0 0 0 0 0 0 0 0 4 216 330 326 133 481 230 199 187 120 243 94 9 178 4 0 0 23
4 2 1 3 6 6 6 3 1 1 1 3 2 0 0 0 0 0 0 0 0 0 0 0 0 0 0 0 63 206 204 219 307 406 363 317 195 524 214 62 304 9 1 0 11
3 1 1 12 8 7 3 0 0 0 3 0 0 0 0 0 0 0 0 0 0 0 0 0 0 0 0 0 0 66 144 191 71 654 518 230 343 355 302 489 111 23 22 4 7
1 2 5 8 2 1 0 0 0 0 0 0 0 0 0 0 0 0 0 0 0 0 0 0 0 0 0 0 0 2 116 84 44 598 388 171 54 142 376 300 141 27 27 19 8
6 4 1 3 3 0 0 0 0 0 0 0 0 0 0 0 0 0 0 0 0 0 0 0 0 0 0 0 0 0 54 122 100 116 494 128 269 608 268 190 14 24 39 18 9
4 3 2 2 2 0 0 0 0 0 0 0 0 0 0 0 0 0 0 0 0 0 0 0 0 0 0 0 0 0 1 65 121 151 78 0 109 519 425 187 24 48 40 18 3
1 1 0 1 0 0 0 0 0 0 0 0 0 0 0 0 0 0 0 0 0 0 0 0 0 0 0 0 0 0 0 0 112 163 21 3 140 309 509 286 140 193 120 150 14
2 0 0 0 0 0 0 0 0 0 0 0 0 0 0 0 0 0 0 0 0 0 0 0 0 0 0 0 0 0 0 0 25 28 10 106 186 86 333 319 183 130 149 170 144
2 2 0 3 0 0 0 0 0 0 0 0 0 0 0 0 0 0 0 0 0 0 0 0 0 0 0 0 0 0 1 91 106 57 178 29 275 98 225 294 279 129 130 69 86
0 0 0 0 0 0 0 0 0 0 0 0 0 0 0 0 0 0 0 0 0 0 0 0 0 0 0 0 0 0 0 58 40 49 39 14 51 244 236 406 338 130 192 119 101
0 0 0 0 0 0 0 0 0 0 6 39 36 1 0 0 0 0 1 0 0 0 0 0 0 0 0 0 0 0 0 0 1 0 0 1 69 151 264 448 97 30 141 13 5
0 0 0 0 0 0 0 0 17 33 3 9 42 22 0 0 0 0 0 0 0 0 0 0 0 0 0 0 0 0 0 0 3 6 1 17 199 165 234 246 239 35 177 0 0
0 0 0 0 0 0 0 58 64 5 17 2 0 0 3 2 1 4 9 6 0 0 0 0 0 0 0 0 0 0 0 0 0 1 10 374 158 124 119 123 245 269 101 0 0
0 0 0 0 0 6 3 0 20 43 19 0 0 34 19 4 10 36 48 16 16 13 0 5 0 0 0 1 0 0 0 0 0 0 23 432 293 330 156 22 72 49 65 20 61
0 0 0 0 48 31 0 5 2 21 9 0 1 20 25 58 13 13 42 18 0 16 0 1 0 0 2 0 0 0 0 0 0 0 0 206 204 240 17 8 0 9 36 21 13
0 4 34 15 20 52 7 48 20 17 0 0 0 41 75 104 121 91 9 0 0 0 0 0 0 0 7 11 6 2 0 0 0 0 13 232 158 55 0 0 0 0 17 2 5
0 36 8 0 48 110 93 33 113 25 9 12 3 0 22 78 8 1 7 0 0 0 0 0 0 10 0 0 0 0 0 0 0 0 0 78 203 67 41 0 4 1 1 3 2
0 17 1 6 86 61 31 129 95 0 0 3 1 0 0 5 4 0 2 0 0 0 0 0 0 1 0 0 0 0 0 0 0 0 190 473 151 86 32 4 2 0 0 1 2
12 0 0 0 0 0 0 11 2 4 0 3 64 6 0 2 0 3 0 0 0 0 0 0 0 0 0 0 0 0 0 0 0 370 454 338 189 140 46 0 0 0 0 0 0
0 0 0 0 0 7 0 0 0 0 0 0 3 8 1 0 0 18 2 0 3 3 0 0 0 0 0 0 0 0 0 0 0 294 365 358 251 134 2 1 7 1 0 0 0
3 0 127 86 2 0 0 0 0 0 0 0 0 51 0 0 0 0 0 0 0 0 0 0 0 0 0 0 0 0 0 0 100 569 450 261 142 82 23 0 0 0 0 0 0

GFSSW_con_sbcape_090.txt.gz
CAPE
2 5 4 5 4 5 4 3 3 3 5 4 3 2 2 3 0 0 0 0 0 9 0 0 0 0 0 0 52 234 232 90 115 68 129 354 215 558 36 0 5 0 0 13 142
1 1 4 2 6 5 6 4 3 3 4 4 4 2 2 3 0 0 0 0 0 6 0 0 0 0 0 0 21 204 172 30 156 27 224 369 444 377 10 0 7 4 40 24 147
1 1 1 0 1 2 5 6 6 5 4 4 3 2 1 0 0 0 0 0 0 1 0 0 0 0 0 0 197 244 206 68 27 271 535 357 270 205 127 166 0 0 0 2 62
0 2 3 2 4 3 5 3 3 3 3 4 2 3 0 0 0 0 0 0 0 0 0 0 0 0 0 0 407 253 478 513 117 536 243 276 224 501 283 63 0 21 15 3 9
2 4 2 0 1 1 1 2 1 4 3 4 0 1 0 0 0 0 34 0 0 0 0 0 0 0 0 14 416 498 243 413 262 161 206 157 311 425 147 263 2 17 15 18 20
6 3 1 1 0 1 0 0 0 1 4 0 0 1 0 0 0 0 0 0 0 0 0 0 0 0 0 1 176 151 488 531 211 69 32 168 296 100 151 59 16 32 15 10 11
4 3 3 1 1 1 1 1 3 3 3 2 0 0 0 0 0 0 0 0 0 0 0 0 0 0 0 0 281 164 193 293 214 173 116 142 149 162 118 16 2 65 64 38 30
1 1 2 1 2 2 1 8 3 1 1 1 1 0 0 0 0 0 0 0 0 0 0 0 0 0 0 0 0 211 336 258 189 176 218 47 87 117 97 54 148 8 30 38 39
3 1 2 3 4 1 1 1 1 0 1 3 0 0 0 0 0 0 0 0 0 0 0 0 0 0 0 0 0 0 149 136 268 378 283 241 28 158 155 100 79 1 14 9 62
2 2 2 0 0 1 0 0 0 0 0 0 0 0 0 0 0 0 0 0 0 0 0 0 0 0 0 0 0 0 22 101 139 409 318 145 119 475 114 157 153 5 12 4 11
2 0 1 0 0 0 0 0 0 0 0 0 0 0 0 0 0 0 0 0 0 0 0 0 0 0 0 0 0 0 0 0 109 187 0 54 75 106 376 267 151 2 9 1 9
1 2 0 0 0 1 0 0 0 0 0 0 0 0 0 0 0 0 0 0 0 0 0 0 0 0 0 0 0 0 0 50 261 3 0 0 4 0 157 246 204 40 23 3 7
5 0 1 0 0 0 0 0 0 0 0 0 0 0 0 0 0 0 0 0 0 0 0 0 0 0 0 0 0 0 0 0 317 3 10 4 0 4 116 176 83 123 46 10 1
4 1 1 0 0 0 0 0 0 0 0 0 0 0 0 0 0 0 0 0 0 0 0 0 0 0 0 0 0 0 0 0 214 77 9 0 23 28 190 285 172 153 182 105 8
3 3 0 0 0 0 0 0 0 0 0 0 0 0 0 0 0 0 0 0 0 0 0 0 0 0 0 0 0 0 0 0 192 24 21 2 125 41 151 343 140 139 157 63 45
0 0 0 0 0 0 0 0 0 0 0 0 0 0 0 0 0 0 0 0 0 0 0 0 0 0 0 0 0 0 0 21 127 33 0 0 37 113 42 292 298 129 122 60 32
0 0 0 0 0 0 0 0 0 0 0 8 3 0 0 0 0 0 0 0 0 0 0 0 0 0 0 0 0 0 0 0 23 53 10 0 3 51 83 294 319 206 127 43 22
0 0 0 0 0 0 0 0 3 0 0 0 0 0 0 0 0 0 0 0 0 0 0 0 0 0 0 0 0 0 0 0 10 0 26 103 6 156 162 307 355 229 156 88 45
0 0 0 0 0 0 0 0 3 0 1 0 0 0 0 0 0 0 0 0 0 0 0 0 0 0 0 0 0 0 0 0 0 0 0 124 55 53 111 204 98 31 185 97 43
0 0 0 0 0 0 0 0 0 0 0 0 0 0 0 0 0 10 35 3 0 0 0 0 0 0 0 0 0 0 0 0 0 0 0 146 104 79 165 202 180 212 22 59 59
0 0 0 0 0 0 0 0 0 0 0 0 0 0 0 0 1 7 34 2 0 0 0 0 0 0 0 0 0 0 0 0 0 0 0 107 101 180 69 25 19 20 33 52 45
0 0 0 0 0 0 0 0 0 3 0 0 0 0 32 81 29 44 83 6 0 0 0 0 0 0 0 0 0 0 0 0 0 0 1 145 190 35 0 1 8 23 6 3 2
0 0 0 0 1 0 0 0 2 40 6 0 0 0 0 19 7 52 72 21 0 0 0 0 0 0 0 0 0 0 0 0 0 0 0 58 68 26 1 0 0 0 13 2 3
0 0 0 0 0 0 3 4 2 11 10 0 0 0 0 0 2 0 15 9 0 0 177 0 0 0 0 0 0 0 0 0 0 0 154 118 137 84 5 8 3 1 2 2 4
0 0 0 0 0 0 0 9 0 0 0 0 2 10 0 0 0 0 0 0 0 249 0 0 0 0 0 0 0 0 0 0 0 0 47 128 55 61 1 0 0 0 0 0 0
0 0 0 0 0 0 0 0 0 0 0 0 34 0 0 0 0 0 0 0 0 0 0 0 0 0 0 0 0 0 0 0 74 290 396 214 74 4 0 0 0 0 0 0 0
0 0 0 0 0 0 0 0 0 0 0 0 0 7 0 0 0 0 0 0 0 0 0 0 0 0 0 0 0 0 0 0 258 543 421 190 61 0 0 0 0 0 0 0 0

GFSSW_con_sbcape_093.txt.gz
CAPE
1 1 1 1 2 5 4 4 4 4 2 4 3 4 4 3 0 0 0 0 0 0 41 0 0 0 0 0 14 202 152 31 103 77 107 263 2 122 51 50 11 49 20 0 25
3 2 1 1 1 1 3 3 2 4 4 1 4 4 4 3 0 0 0 0 0 123 0 0 0 0 0 0 21 96 112 35 101 55 119 154 20 11 59 36 69 16 0 0 14
4 0 0 0 0 2 2 6 2 2 3 3 1 4 3 1 0 0 0 0 0 34 0 0 0 0 0 0 8 158 199 48 18 65 133 231 228 14 10 52 19 30 25 11 0
0 1 3 3 2 1 0 0 0 0 3 3 2 4 2 0 0 0 1 0 0 0 0 0 0 0 0 0 207 171 124 102 134 65 327 317 276 1 38 53 82 83 136 58 40
3 4 1 2 0 0 0 1 0 0 0 3 2 2 0 0 0 0 7 0 0 0 0 0 0 0 0 0 390 292 259 451 253 352 361 182 344 152 300 28 47 47 141 93 59
1 1 2 0 1 0 1 0 0 0 0 3 2 1 0 0 0 0 0 0 0 0 0 0 0 0 0 0 260 353 239 385 184 172 152 263 131 99 30 29 26 43 74 65 48
3 1 2 2 0 1 0 0 0 0 1 0 0 0 0 0 0 0 0 0 0 0 0 0 0 0 0 0 42 424 438 278 135 75 187 98 197 1 37 37 46 42 37 9 0
3 2 1 0 0 0 1 3 2 4 0 0 0 0 0 0 0 0 0 0 0 0 0 0 0 0 0 0 0 323 392 170 287 250 120 13 59 166 48 16 39 30 11 0 0
1 1 1 1 2 2 2 2 2 1 1 2 0 0 0 0 0 0 0 0 0 0 0 0 0 0 0 0 0 18 261 126 305 225 167 37 26 141 85 19 37 40 24 0 4
1 3 3 1 1 1 2 0 0 0 0 0 0 0 0 0 0 0 0 0 0 0 0 0 0 0 0 0 0 0 4 120 141 281 164 87 2 101 93 25 98 13 39 3 8
5 1 1 3 0 0 0 0 0 0 0 0 0 0 0 0 0 0 0 0 0 0 0 0 0 0 0 0 0 0 0 0 375 94 5 8 30 134 129 136 133 14 0 0 37
6 3 1 2 0 0 0 0 0 0 0 0 0 0 0 0 0 0 0 0 0 0 0 0 0 0 0 0 0 0 0 261 97 56 78 26 3 9 96 89 141 27 0 12 35
3 5 0 0 1 0 0 0 0 0 0 0 0 0 0 0 0 0 0 0 0 0 0 0 0 0 0 0 0 0 0 119 120 6 16 17 0 0 6 141 146 35 74 11 4
1 3 1 0 0 0 0 0 0 0 0 0 0 0 0 0 0 0 0 0 0 0 0 0 0 0 0 0 0 0 0 0 189 49 16 3 0 2 0 111 139 44 61 0 1
1 1 0 0 0 0 0 0 0 0 0 0 0 0 0 0 0 0 0 0 0 0 0 0 0 0 0 0 0 0 0 0 142 17 2 0 11 6 82 140 108 102 102 47 0
0 0 0 0 0 0 0 0 0 0 0 0 0 0 0 0 0 0 0 0 0 0 0 0 0 0 0 0 0 0 0 0 17 14 0 0 14 41 80 205 184 116 96 34 2
0 0 0 0 0 0 0 0 0 0 0 0 0 0 0 0 0 0 0 0 0 0 0 0 0 0 0 0 0 0 0 0 37 13 0 0 0 6 43 172 279 176 130 34 51
0 0 0 0 0 0 0 0 0 0 0 0 0 0 0 0 0 0 0 0 0 0 0 0 0 0 0 0 0 0 0 0 16 0 1 1 0 0 131 59 272 224 86 33 24
0 0 0 0 0 0 0 0 0 0 0 0 0 0 0 0 0 0 0 0 0 0 0 0 0 0 0 0 0 0 0 0 0 0 0 1 16 58 254 117 131 131 80 23 34
0 0 0 0 0 0 0 0 0 0 0 0 0 0 0 0 0 0 7 0 0 0 0 0 0 0 0 0 0 0 0 0 0 2 0 3 16 28 200 194 91 16 28 7 3
0 0 0 0 0 0 0 0 0 0 0 0 0 0 0 0 0 0 0 0 0 0 0 0 0 0 0 0 0 0 0 0 0 0 0 0 0 115 68 50 75 0 46 12 13
0 0 0 0 0 0 0 0 0 0 0 0 0 0 0 0 5 2 15 0 0 0 0 0 0 0 0 0 0 0 0 0 0 0 0 0 10 2 13 0 0 2 7 33 37
0 0 0 0 0 0 0 0 0 0 0 0 0 0 0 0 0 3 12 4 0 0 0 0 0 0 0 0 0 0 0 0 0 0 89 68 0 39 0 1 1 0 0 2 25
0 0 0 0 0 0 0 0 0 0 0 0 0 0 0 0 0 0 0 15 0 10 110 1 0 0 0 0 0 0 0 0 0 0 0 0 78 23 10 0 15 12 3 1 3
0 0 0 0 0 0 0 0 0 0 0 0 0 0 0 0 0 0 0 0 0 234 0 0 0 0 0 0 0 0 0 0 0 0 14 23 65 73 1 0 15 1 1 4 4
0 0 0 0 0 0 0 0 0 0 0 0 0 0 0 0 0 0 0 0 0 0 0 0 0 0 0 0 0 0 0 0 32 143 82 46 43 63 0 0 0 0 0 2 3
0 0 0 0 0 0 0 0 0 0 0 0 0 0 0 0 0 0 0 0 0 0 0 0 0 0 0 0 0 0 0 0 84 311 125 37 29 0 0 2 0 0 0 0 0

GFSSW_con_sbcape_096.txt.gz
CAPE
1 1 1 0 0 0 3 5 4 4 3 2 3 1 4 3 0 0 0 0 0 0 0 0 0 0 0 0 3 203 135 41 33 63 62 165 39 48 5 0 0 18 0 26 70
1 1 1 2 0 0 2 2 4 1 2 3 1 3 4 4 0 0 0 0 0 29 0 0 0 0 0 0 6 153 90 101 70 96 121 54 58 43 0 0 0 18 19 71 22
2 1 1 1 1 1 1 0 0 1 0 1 3 1 2 0 0 0 0 0 0 27 0 0 0 0 0 0 0 159 87 52 59 33 129 78 45 35 20 0 0 0 19 38 3
5 4 1 4 1 2 1 2 0 0 1 0 3 3 1 0 0 0 0 0 0 1 0 0 0 0 0 0 0 114 161 181 127 66 113 144 191 51 51 2 0 1 5 30 2
1 2 1 1 1 0 2 1 1 0 0 0 3 0 0 0 0 0 35 0 0 0 0 0 0 0 0 0 20 208 163 410 362 145 179 254 97 54 116 18 10 34 0 0 0
1 2 2 3 1 1 3 2 3 1 1 0 2 0 0 0 0 0 0 0 0 0 0 0 0 0 0 0 59 254 233 532 497 210 244 200 57 44 101 63 40 66 6 0 9
2 2 0 0 0 0 3 2 1 2 0 0 0 0 0 0 0 0 0 0 0 0 0 0 0 0 0 0 0 392 232 247 330 321 231 178 75 56 56 88 60 87 65 4 22
3 1 0 1 4 5 3 3 3 2 1 0 1 0 0 0 0 0 0 0 0 0 0 0 0 0 0 0 0 366 153 124 176 162 90 51 105 189 91 74 90 65 92 29 1
2 1 1 0 1 2 1 1 3 2 0 0 0 0 0 0 0 0 0 0 0 0 0 0 0 0 0 0 0 6 118 94 226 205 92 21 147 120 57 62 87 55 61 31 0
4 2 1 2 0 0 0 0 0 0 0 0 0 0 0 0 0 0 0 0 0 0 0 0 0 0 0 0 0 0 12 67 138 259 127 31 25 62 58 68 79 56 40 9 17
0 1 0 0 1 1 0 0 0 0 0 0 0 0 0 0 0 0 0 0 0 0 0 0 0 0 0 0 0 0 0 12 184 176 72 59 17 55 35 47 40 34 8 0 35
5 0 0 0 0 0 0 0 0 0 0 0 0 0 0 0 0 0 0 0 0 0 0 0 0 0 0 0 0 0 38 259 146 169 25 1 8 33 82 34 37 52 4 3 8
1 4 0 0 0 0 0 0 0 0 0 0 0 0 0 0 0 0 0 0 0 0 0 0 0 0 0 0 0 0 0 187 186 13 17 1 0 3 5 38 95 91 68 1 1
0 2 2 0 0 0 0 0 0 0 0 0 0 0 0 0 0 0 0 0 0 0 0 0 0 0 0 0 0 0 0 143 111 8 0 0 0 0 0 71 82 55 22 10 20
0 0 0 0 0 0 0 0 0 0 0 0 0 0 0 0 0 0 0 0 0 0 0 0 0 0 0 0 0 0 0 80 124 2 0 0 0 0 0 0 69 74 56 26 0
0 2 0 0 0 0 0 0 0 0 0 0 0 0 0 0 0 0 0 0 0 0 0 0 0 0 0 0 0 0 0 0 3 0 0 0 0 0 3 0 10 74 75 53 0
0 0 0 0 0 0 0 0 0 0 0 0 0 0 0 0 0 0 0 0 0 0 0 0 0 0 0 0 0 0 0 0 37 21 0 0 0 0 14 41 35 127 72 36 1
0 0 0 0 0 0 0 0 0 0 0 0 0 0 0 0 0 0 0 0 0 0 0 0 0 0 0 0 0 0 0 0 1 1 0 0 0 0 84 78 148 169 108 61 0
0 0 0 0 0 0 0 0 0 0 0 0 0 0 0 0 0 0 0 0 0 0 0 0 0 0 0 0 0 0 0 0 0 0 5 0 0 9 148 121 156 121 33 18 15
0 0 0 0 0 0 0 0 0 0 0 0 0 0 0 0 0 0 0 0 0 0 0 0 0 0 0 0 0 0 0 0 0 0 0 0 0 0 236 189 89 137 47 18 32
0 0 0 0 0 0 0 0 0 0 0 0 0 0 0 0 0 0 0 0 0 0 0 0 0 0 0 0 0 0 0 0 0 0 0 0 0 68 114 190 123 49 12 15 24
0 0 0 0 0 0 0 0 0 0 0 0 0 0 0 0 0 0 0 0 0 0 0 0 0 0 0 0 0 0 0 0 0 0 0 0 0 35 107 200 18 5 8 1 0
0 0 0 0 0 0 0 0 0 0 0 0 0 0 0 0 0 0 0 0 0 0 0 0 0 0 0 0 0 0 0 0 0 0 2 0 0 84 81 80 12 2 1 18 15
0 0 0 0 0 0 0 0 0 0 0 0 0 0 0 0 0 0 0 0 0 0 59 0 0 0 0 0 0 0 0 0 0 0 0 0 0 100 61 7 48 13 3 17 12
0 0 0 0 0 0 0 0 0 0 0 0 0 0 0 0 0 0 0 0 1 88 0 0 0 0 0 0 0 0 0 0 0 0 0 0 0 4 43 21 87 12 2 2 4
0 0 0 0 0 0 0 0 0 0 0 0 0 0 0 0 0 0 0 0 0 0 0 0 0 0 0 0 0 0 0 0 1 21 95 14 45 5 13 65 13 1 4 4 10
0 0 0 0 0 0 0 0 0 0 0 0 0 0 0 0 0 0 0 0 0 0 0 0 0 0 0 0 0 0 0 0 0 74 96 91 36 79 55 26 0 0 1 5 7

GFSSW_con_sbcape_099.txt.gz
CAPE
1 1 1 0 5 2 1 1 3 2 0 1 3 2 2 3 0 0 0 0 0 0 0 0 0 3 0 0 20 127 297 141 156 16 107 156 60 70 15 0 22 0 12 63 189
2 1 1 2 0 1 3 4 2 1 1 2 2 3 3 1 0 0 0 0 0 3 0 0 0 0 0 0 0 178 249 165 107 103 122 153 63 0 0 5 33 67 100 122 200
2 2 4 1 0 0 0 1 5 1 1 0 0 3 1 5 0 0 0 0 0 1 0 0 0 0 0 0 1 225 140 94 62 53 164 83 16 0 0 0 0 91 88 100 120
2 1 3 4 1 1 0 0 0 4 2 2 1 3 0 0 0 0 0 0 1 0 0 0 0 0 0 0 0 163 145 104 18 40 106 58 30 0 0 10 0 18 76 57 0
2 1 1 1 1 3 4 0 0 0 2 2 2 0 0 0 0 0 0 0 6 0 0 0 0 0 2 0 0 74 177 131 54 58 189 73 60 0 94 0 0 29 34 0 0
0 3 2 2 4 1 1 0 1 1 3 4 1 0 0 0 0 0 0 0 0 0 0 0 0 0 0 0 0 178 183 388 270 182 180 77 22 7 71 0 21 41 45 73 85
0 2 1 0 0 1 1 1 2 2 1 0 0 0 0 0 0 0 0 0 0 0 0 0 0 0 0 0 0 276 227 231 182 242 94 22 2 86 98 14 85 76 80 103 76
2 0 1 0 1 1 1 0 1 1 0 2 0 0 0 0 0 0 0 0 0 0 0 0 0 0 0 0 0 352 201 203 255 248 153 61 45 90 133 64 90 126 138 133 176
1 1 0 1 0 0 0 0 1 0 1 1 0 0 0 0 0 0 0 0 0 0 0 0 0 0 0 0 0 92 174 156 391 240 187 3 26 160 157 114 138 155 164 162 222
0 3 0 0 0 0 0 0 0 0 0 0 0 0 0 0 0 0 0 0 0 0 0 0 0 0 0 0 0 0 46 150 213 233 37 18 26 210 164 147 146 118 191 210 189
2 1 0 1 1 1 0 0 0 0 0 0 0 0 0 0 0 0 0 0 0 0 0 0 0 0 0 0 0 0 0 159 397 188 133 104 149 180 146 136 109 154 188 188 179
2 3 0 1 0 0 0 0 0 0 0 0 0 0 0 0 0 0 0 0 0 0 0 0 0 0 0 0 0 0 122 241 295 217 146 115 130 212 191 164 91 137 150 163 111
0 1 1 0 1 0 0 0 0 0 0 0 0 0 0 0 0 0 0 0 0 0 0 0 0 0 0 0 0 0 0 238 273 95 13 29 30 12 195 139 142 137 172 123 68
0 2 0 0 0 0 0 0 0 0 0 0 0 0 0 0 0 0 0 0 0 0 0 0 0 0 0 0 0 0 0 295 179 47 10 16 53 31 92 172 111 66 122 139 91
1 4 0 0 0 0 0 0 0 0 0 0 0 0 0 0 0 0 0 0 0 0 0 0 0 0 0 0 0 0 0 171 163 65 24 2 26 11 81 73 131 145 120 165 101
2 0 0 0 0 0 0 0 0 0 0 0 0 0 0 0 0 0 0 0 0 0 0 0 0 0 0 0 0 0 17 90 24 26 1 0 0 88 47 94 47 78 97 166 137
0 0 1 0 0 0 0 0 0 0 0 0 0 0 0 0 0 0 0 0 0 0 0 0 0 0 0 0 0 0 0 20 0 1 0 0 14 4 97 57 3 146 169 125 149
0 0 0 0 0 0 0 0 0 0 0 0 0 0 0 0 0 0 0 0 0 0 0 0 0 0 0 0 0 0 0 15 23 2 0 24 58 81 95 248 101 46 255 200 148
0 0 0 0 0 0 0 0 0 0 0 0 0 0 0 0 0 0 0 0 0 0 0 0 0 0 0 0 0 0 0 0 24 0 23 89 46 37 309 343 320 136 350 250 202
0 0 0 0 0 0 0 0 0 0 0 0 0 0 0 2 0 4 0 0 0 0 0 0 0 0 0 0 0 0 0 0 0 11 9 0 59 49 507 479 583 530 342 263 216
0 0 0 0 0 0 0 0 0 0 0 0 0 0 0 8 20 8 12 0 0 0 0 0 0 0 0 0 0 0 0 0 0 0 0 0 0 209 435 491 655 700 592 442 268
0 0 0 0 0 0 0 0 0 0 0 0 0 0 0 3 8 24 27 9 0 0 1 0 0 0 0 0 0 0 0 0 0 0 0 0 0 260 380 528 517 584 422 478 399
0 0 0 0 6 0 0 0 0 0 0 0 0 0 0 0 0 0 1 0 0 2 0 4 9 0 0 0 0 0 0 0 0 0 0 0 0 119 228 472 429 303 306 365 375
0 0 0 0 0 0 0 0 0 0 0 0 0 0 0 0 0 0 0 0 0 0 81 2 4 25 0 0 0 0 0 0 0 0 0 0 7 242 292 410 281 395 339 356 430
0 0 0 0 0 0 0 0 0 0 0 0 0 0 0 0 0 0 0 0 15 67 0 8 89 1 0 0 0 0 0 0 0 0 0 0 91 370 420 298 270 199 263 357 337
0 0 0 0 0 0 0 0 0 0 0 0 0 0 0 0 1 0 0 0 0 5 2 0 107 29 25 0 0 0 0 0 0 0 0 84 67 249 369 264 226 201 217 245 235
0 0 0 0 0 0 0 0 0 0 0 0 0 0 0 0 0 0 0 0 0 0 10 37 111 123 47 0 0 3 0 0 4 44 88 191 298 506 359 325 232 121 109 117 124

GFSSW_con_sbcape_102.txt.gz
CAPE
2 3 2 1 1 3 3 3 3 3 1 2 2 3 2 2 0 0 0 0 0 0 0 0 0 3 0 0 103 63 547 447 318 294 513 432 317 264 217 187 94 113 11 295 501
4 2 4 3 4 4 1 2 3 1 4 1 3 3 1 0 0 0 0 0 0 0 0 0 3 1 1 4 3 360 577 370 388 147 505 306 313 182 216 237 140 39 110 244 431
3 4 5 3 4 3 3 1 1 1 2 3 2 1 0 0 0 0 0 0 0 7 0 0 0 1 26 0 62 383 419 427 101 124 437 313 196 120 127 208 260 226 210 247 246
1 1 5 4 5 4 3 2 1 3 2 2 2 1 0 0 0 0 0 0 0 0 0 0 0 0 17 39 0 317 435 132 82 220 329 281 112 26 4 47 125 117 95 59 24
1 2 1 1 0 0 1 3 1 2 1 1 0 1 0 0 0 0 0 0 0 0 0 0 0 18 220 101 13 248 445 41 62 204 256 172 75 62 42 18 28 2 0 0 0
3 2 1 3 2 1 3 2 2 1 0 1 0 0 0 0 0 0 0 0 0 0 0 0 0 44 314 30 22 190 299 81 62 215 293 223 100 22 16 14 0 0 0 0 0
2 1 3 1 1 1 2 1 1 0 1 1 0 0 0 0 0 0 0 0 0 0 0 0 0 30 0 0 0 255 472 321 183 487 81 139 130 138 0 0 0 2 2 0 0
2 3 1 1 1 2 0 0 0 1 0 0 0 0 0 0 0 0 0 0 0 0 0 0 0 10 0 0 0 403 507 451 248 392 105 52 219 212 25 5 43 54 23 68 79
1 2 1 1 0 1 1 1 1 1 0 0 0 0 0 0 0 0 0 0 0 0 0 0 0 0 0 0 35 534 523 243 382 222 74 0 126 79 162 41 93 175 155 163 232
2 3 1 3 1 1 0 0 0 0 0 0 0 0 0 0 0 0 0 0 0 0 0 0 0 0 15 0 25 298 189 233 259 131 6 3 35 67 209 121 121 209 220 174 216
0 1 3 3 3 0 0 0 0 0 0 0 0 0 0 0 0 0 0 0 0 0 0 0 0 33 325 30 0 17 123 195 200 31 0 1 46 97 145 248 208 215 223 295 269
0 0 1 0 0 0 0 0 0 0 0 0 0 0 0 0 0 0 0 0 0 0 0 0 0 1 66 0 0 177 293 436 221 173 187 94 98 124 95 124 161 172 224 215 221
0 2 1 0 0 0 0 0 0 0 0 0 0 0 0 0 0 0 0 0 0 0 0 0 0 0 0 0 0 0 106 321 344 205 147 3 3 148 102 107 122 137 191 227 269
1 3 0 0 0 0 0 0 0 0 0 0 0 0 0 0 0 0 0 0 0 0 0 0 0 0 0 0 0 4 19 141 399 230 103 117 50 11 225 264 56 12 141 266 298
2 0 0 0 0 0 0 0 0 0 3 0 0 0 0 0 0 0 0 0 0 0 0 0 0 0 0 0 0 0 0 3 86 78 106 204 88 86 122 431 411 58 132 169 223
2 1 0 0 0 0 0 0 0 0 5 0 0 0 0 0 0 0 0 0 0 0 0 0 0 0 0 0 0 0 73 31 0 0 69 61 91 254 180 222 429 262 298 174 178
0 0 1 0 0 0 0 0 0 23 0 0 0 0 0 0 0 0 0 0 0 0 0 0 0 0 0 0 0 0 7 26 44 46 93 81 81 134 360 325 530 506 252 197 173
0 0 0 0 0 0 0 0 0 0 0 0 0 0 9 0 0 0 0 0 0 0 0 0 0 0 0 0 1 0 0 3 68 72 63 132 113 248 275 308 268 504 474 333 230
0 0 0 0 0 0 0 0 6 0 0 0 1 8 2 0 0 1 14 15 6 0 16 1 0 0 0 0 0 0 11 0 1 56 59 160 83 262 244 415 367 287 239 468 280
0 0 0 0 0 0 0 0 0 0 0 15 48 29 35 19 11 0 12 13 21 0 8 16 9 0 0 0 0 0 0 13 40 61 63 157 119 176 548 564 556 316 456 494 313
0 0 0 0 0 4 0 0 0 0 4 12 12 41 50 54 55 26 57 27 0 0 0 42 1 9 0 0 0 0 0 0 4 12 21 79 72 503 563 767 803 574 625 665 535
0 9 0 0 1 0 1 0 0 0 0 0 0 0 30 25 49 51 84 82 2 9 9 20 40 50 0 0 0 2 0 0 0 0 2 44 194 638 857 978 996 1030 727 640 475
0 0 0 0 5 3 0 0 0 1 0 0 0 0 2 29 53 10 18 39 27 79 78 76 21 65 59 28 0 0 0 0 1 5 11 3 0 626 883 1092 997 1143 1279 1177 893
0 10 0 0 0 0 2 0 0 0 0 0 0 0 0 5 31 45 1 18 1 66 40 37 94 66 81 92 56 10 0 0 0 1 0 3 1 632 675 987 1100 928 875 1027 984
0 0 0 2 0 0 0 0 0 0 0 0 2 0 7 38 59 25 2 3 30 181 106 155 137 106 48 14 5 53 41 0 0 0 6 7 1 6 665 975 1135 860 714 781 684
0 0 0 0 0 0 0 0 0 0 0 0 0 0 0 68 129 92 22 67 143 137 187 146 214 172 82 64 64 38 4 0 0 0 0 2 20 341 798 975 995 824 693 688 830
0 0 0 0 0 0 0 0 0 0 0 0 0 0 1 2 0 0 0 0 12 167 180 152 188 231 102 129 110 88 63 15 17 38 29 17 137 624 1011 963 916 867 764 778 638

GFSSW_con_sbcape_105.txt.gz
CAPE
4 2 1 5 2 1 1 2 2 0 1 0 1 0 1 0 0 0 0 0 0 0 0 2 25 49 4 0 83 81 412 578 237 319 449 254 349 339 321 345 243 290 84 320 187
4 3 1 1 1 1 1 2 2 2 1 1 0 0 0 0 0 0 0 0 0 0 0 1 52 50 28 0 156 656 591 488 444 383 615 512 397 390 269 243 223 161 196 162 232
1 5 6 3 2 1 4 6 1 2 1 1 1 0 0 0 0 0 0 0 0 0 0 0 78 76 22 105 107 673 615 395 507 479 249 302 338 131 137 109 162 340 302 240 98
3 2 2 1 1 1 1 2 1 2 2 1 0 0 0 0 0 0 0 0 0 0 0 0 0 123 72 98 139 388 652 342 390 370 232 258 245 82 74 125 212 234 108 59 41
1 2 2 3 1 1 2 2 3 1 1 1 1 0 0 0 0 0 0 0 0 0 0 0 0 54 101 214 221 439 447 111 96 289 383 211 82 78 57 123 137 100 38 13 9
1 4 2 2 1 1 1 0 0 0 1 0 0 0 0 0 0 0 0 0 0 0 0 0 0 0 246 329 221 316 453 362 320 585 274 172 62 11 3 89 89 40 7 0 5
3 2 3 1 1 2 1 0 0 0 1 2 0 0 0 0 0 0 0 0 0 0 0 0 0 0 272 237 48 455 365 251 139 355 285 263 91 32 8 14 4 10 3 6 4
0 1 2 3 2 1 1 0 1 1 0 0 0 0 0 0 0 0 0 0 0 0 0 0 0 0 240 30 73 572 211 249 132 386 230 404 129 20 29 23 3 8 11 9 17
0 0 0 1 1 0 0 0 0 1 0 0 0 0 0 0 0 0 0 0 0 0 0 0 0 32 218 90 55 215 351 147 290 139 112 110 217 136 29 29 31 36 38 53 61
0 0 0 0 1 0 0 0 0 0 0 0 0 0 0 0 0 0 0 0 0 0 0 0 0 139 210 156 20 48 114 251 204 12 13 26 81 261 55 65 54 60 76 66 81
0 0 0 2 1 1 0 0 0 0 0 0 0 0 0 0 0 0 0 0 0 0 0 0 0 14 212 144 15 182 87 236 127 12 4 38 98 73 225 256 113 107 66 81 72
0 0 1 1 1 2 0 0 0 0 0 0 0 0 0 0 0 0 0 0 0 0 0 0 0 0 148 188 0 54 363 175 104 40 32 74 94 25 71 306 267 128 72 129 126
0 1 1 0 0 0 0 0 0 0 0 0 0 0 0 0 0 0 0 0 0 0 0 0 0 0 167 247 9 104 181 107 61 124 98 79 31 82 66 99 230 262 156 176 171
0 3 0 0 0 0 0 0 0 0 17 0 0 0 0 0 0 0 0 0 0 0 0 0 0 0 108 144 69 35 296 178 19 170 25 54 18 17 95 128 105 89 161 170 142
1 0 0 0 0 0 0 0 0 0 26 0 0 0 0 0 0 0 0 0 0 0 0 0 0 0 0 63 41 27 30 184 149 163 21 81 44 22 218 169 79 42 80 223 117
1 0 1 0 0 0 0 0 0 2 61 1 0 0 3 0 0 0 0 0 0 0 0 1 0 0 0 4 17 22 78 147 200 134 96 153 173 39 65 280 132 24 11 39 185
0 0 1 0 0 0 0 0 2 55 3 1 2 0 1 2 8 0 0 0 0 0 0 0 0 0 1 6 0 121 264 186 119 98 100 107 126 233 173 159 347 257 21 7 159
0 0 0 0 0 0 0 17 57 4 37 0 0 2 29 4 22 14 0 2 0 5 12 0 0 0 0 39 14 28 130 264 167 178 151 234 122 287 343 316 589 590 150 16 116
0 0 0 0 0 0 4 95 65 59 17 27 2 59 43 3 16 16 37 20 26 9 61 20 8 0 0 0 22 16 79 112 196 12 74 148 307 303 450 349 402 632 626 238 298
0 0 0 0 0 0 33 0 2 2 10 18 20 21 50 41 4 0 60 42 45 11 21 67 45 0 0 0 0 2 32 50 37 34 109 74 208 310 345 415 403 507 692 747 493
0 11 0 0 0 35 48 9 5 0 1 54 30 40 68 30 3 44 18 29 4 21 0 28 31 3 0 0 0 0 0 2 52 35 51 94 213 422 621 646 755 700 544 787 497
2 34 0 0 32 40 37 11 1 2 0 7 10 32 54 39 79 34 9 72 2 0 18 3 44 58 32 3 0 2 0 0 13 27 22 52 443 683 632 595 721 645 579 879 665
18 0 0 0 58 28 0 0 5 16 1 8 16 8 5 97 68 53 51 50 28 2 61 104 13 75 70 31 2 0 4 3 0 14 63 47 371 793 940 1068 1030 889 907 1066 1088
2 15 0 1 0 19 28 20 3 0 0 0 0 0 16 97 107 131 76 52 28 36 88 38 52 65 30 24 0 27 0 6 13 51 32 50 231 776 743 1080 1359 1464 1369 1205 1019
0 15 5 22 0 1 1 0 1 2 0 0 10 0 5 146 165 200 73 82 34 53 57 14 75 57 34 7 10 9 20 5 4 3 57 67 66 79 739 911 1389 1563 1453 1713 1489
34 4 0 0 0 0 0 0 0 0 0 0 0 0 0 157 286 195 140 142 173 191 96 103 95 120 97 9 17 19 42 27 40 15 11 10 33 214 1057 1213 1568 1391 991 1139 1110
0 0 0 0 0 0 2 0 0 0 0 0 0 0 0 86 51 94 73 124 159 220 210 159 128 124 113 47 64 34 41 53 32 29 44 67 38 744 712 984 1302 1292 944 894 1279

GFSSW_con_sbcape_111.txt.gz
CAPE
1 1 1 0 2 2 3 3 2 1 2 1 1 1 2 1 0 0 0 0 0 0 0 0 0 0 17 63 152 140 87 133 130 146 53 202 243 515 95 12 5 16 1 0 72
0 2 1 1 2 4 2 2 2 2 1 1 1 1 1 0 0 0 0 0 0 0 0 0 0 0 70 5 114 214 123 152 293 360 241 235 267 71 91 65 40 10 0 14 78
2 1 3 3 3 2 2 1 1 1 1 1 2 1 1 0 0 0 0 0 0 0 0 0 0 79 89 2 100 348 82 29 1 201 245 275 301 144 136 47 43 0 0 2 11
2 2 3 4 2 3 3 3 2 1 1 0 1 1 0 0 0 0 0 0 0 0 0 0 0 12 107 56 95 216 125 39 0 72 48 345 399 129 138 23 13 11 0 1 0
3 2 2 1 2 2 2 2 2 1 1 0 0 0 0 0 0 0 0 0 0 0 0 0 0 1 167 85 163 268 6 2 23 1 41 336 219 148 146 42 9 0 8 0 0
1 1 2 3 2 2 2 2 1 1 1 1 0 0 0 0 0 0 0 0 0 0 0 0 0 0 89 94 229 361 153 50 93 204 498 179 83 192 169 68 22 5 0 8 2
0 1 1 1 0 2 2 1 0 1 1 1 2 0 0 0 0 0 0 0 0 0 0 0 0 0 8 181 262 291 406 332 365 540 311 446 91 94 74 55 5 0 0 6 2
0 0 0 0 1 2 1 1 0 0 1 1 0 0 0 0 0 0 0 0 0 0 0 0 0 0 0 121 418 539 273 146 218 503 92 305 126 48 42 13 4 0 4 5 5
0 0 0 0 2 1 0 0 0 0 0 0 0 0 0 0 0 0 0 0 0 0 0 0 0 0 0 0 99 61 53 0 19 133 12 115 45 58 69 23 13 0 10 5 19
0 0 0 0 2 0 0 0 0 0 0 0 0 0 0 0 0 0 0 0 0 0 0 0 0 0 0 0 22 85 15 1 11 68 87 125 122 138 48 27 29 1 7 7 12
0 0 0 1 2 0 0 0 0 0 0 0 0 0 0 0 0 0 0 0 0 0 0 0 0 0 0 0 177 51 23 73 34 78 74 70 119 150 104 68 24 9 9 14 4
0 0 0 1 0 1 0 0 0 0 0 0 0 0 0 0 0 0 0 0 0 0 0 0 0 0 0 203 124 159 46 4 49 22 27 26 47 63 82 79 108 113 12 24 24
0 0 2 1 1 0 0 0 0 0 0 0 0 0 0 0 0 0 0 0 0 0 0 0 0 0 0 255 316 130 83 22 21 1 24 72 22 2 57 47 52 56 123 60 30
0 3 0 0 0 0 0 0 0 0 0 0 0 0 0 0 0 0 0 0 0 0 0 0 0 0 0 36 221 190 124 82 38 0 0 37 40 0 4 11 26 39 34 63 75
3 0 0 3 0 0 0 0 0 0 0 0 0 0 0 0 0 0 0 0 0 0 0 0 0 0 0 89 294 125 23 150 32 3 28 15 50 6 0 1 0 4 5 59 40
0 0 0 0 0 0 0 0 0 0 6 0 0 0 0 0 0 0 0 0 0 0 0 0 0 0 0 260 159 298 307 130 77 29 12 9 34 1 3 0 0 0 0 31 32
0 0 1 0 0 0 0 0 0 3 10 12 0 0 0 1 1 0 0 0 0 0 0 0 0 0 0 176 252 164 76 2 62 63 61 3 32 63 13 10 0 0 0 0 16
0 0 0 0 0 0 0 0 19 56 38 1 0 4 21 13 1 1 0 0 0 0 0 0 0 0 0 11 144 199 177 116 17 47 73 92 63 44 11 36 4 0 0 5 50
0 0 0 0 0 0 0 2 31 0 0 0 4 25 2 2 14 8 0 0 0 0 0 3 19 0 0 0 0 0 103 34 24 7 1 62 15 227 75 71 66 8 0 0 4
0 0 0 0 0 0 0 24 0 0 0 5 5 30 27 15 16 16 16 2 18 36 0 0 19 26 0 0 0 27 12 0 2 78 48 52 22 166 94 55 53 58 0 0 0
0 0 0 0 0 0 5 16 0 0 0 0 0 3 0 8 11 26 23 11 0 0 0 0 7 22 3 0 0 0 0 0 0 0 13 130 31 79 0 50 15 37 65 1 0
0 0 0 0 0 0 0 0 0 0 0 0 0 0 3 8 16 33 3 0 0 0 0 0 0 0 0 2 0 0 0 0 0 0 0 9 41 12 9 110 56 2 14 31 12
0 0 0 0 0 1 0 0 0 0 0 0 0 0 0 0 55 37 10 8 0 0 0 0 0 0 1 6 12 1 0 0 0 0 0 0 14 90 102 0 70 29 143 180 89
0 2 7 0 0 2 2 10 1 0 0 0 0 0 0 0 10 74 5 15 0 0 0 0 0 0 0 0 0 5 6 6 0 0 0 1 344 80 18 23 5 0 17 388 156
0 0 6 6 0 0 0 0 0 0 0 0 0 0 0 0 0 3 43 10 15 0 0 0 0 0 1 4 0 0 0 2 4 0 0 180 475 189 48 33 111 0 170 304 168
0 0 0 0 0 0 0 0 0 0 0 0 0 0 0 0 20 28 24 6 110 51 101 2 0 2 7 3 1 2 5 0 0 8 3 413 327 88 8 166 112 28 448 759 687
3 56 51 3 0 0 0 0 0 0 0 0 0 0 0 1 2 0 0 0 0 174 204 125 176 159 7 31 3 0 14 16 30 314 355 691 470 350 0 2 43 0 70 32 283

GFSSW_con_sbcape_114.txt.gz
CAPE
0 3 4 2 3 4 3 3 3 3 4 3 3 3 3 0 0 0 0 0 0 0 0 0 0 0 0 25 189 164 116 106 172 230 138 116 40 85 35 67 29 69 53 80 98
3 4 2 1 2 3 3 4 3 4 4 3 3 3 2 1 0 0 0 0 0 0 0 0 0 0 0 71 161 162 116 95 112 127 185 55 190 42 2 9 27 3 63 84 34
2 3 3 4 3 3 2 3 4 3 3 2 3 2 1 0 0 0 0 0 0 0 0 0 0 0 0 0 211 168 53 1 1 26 98 121 37 49 16 41 1 3 45 46 4
2 3 4 4 2 3 1 3 4 3 3 3 1 1 0 0 0 0 0 0 0 0 0 0 0 0 30 43 233 69 0 5 2 0 28 105 157 89 83 36 3 4 49 60 103
1 0 1 2 4 3 3 3 2 3 2 2 1 1 0 0 0 0 4 0 0 0 0 0 0 0 86 72 170 10 19 2 2 0 27 72 463 177 101 29 4 1 37 57 48
0 0 0 0 1 3 3 4 2 2 2 1 1 0 0 0 0 0 0 0 0 0 0 0 0 0 33 108 80 97 4 4 14 51 377 334 178 60 52 17 2 0 0 0 3
0 0 0 0 0 2 2 1 1 1 1 1 1 0 0 0 0 0 0 0 0 0 0 0 0 0 0 346 449 42 45 28 134 225 412 303 101 56 27 4 0 0 0 0 41
0 0 0 0 0 1 1 0 1 1 1 1 0 0 0 0 0 0 0 0 0 0 0 0 0 0 0 258 241 8 176 207 169 145 119 195 90 67 14 2 9 0 0 4 31
0 0 0 0 0 2 0 0 0 0 1 0 0 0 0 0 0 0 0 0 0 0 0 0 0 0 0 38 120 13 25 1 10 81 30 122 46 114 49 20 29 0 0 2 20
0 0 0 0 1 0 0 0 0 0 0 0 0 0 0 0 0 0 0 0 0 0 0 0 0 0 0 0 31 51 11 2 9 64 80 56 32 121 52 52 25 0 1 0 21
0 0 0 1 2 1 0 0 0 0 0 0 0 0 0 0 0 0 0 0 0 0 0 0 0 0 0 0 61 62 40 48 43 79 83 54 42 41 91 80 22 0 1 12 15
0 0 3 2 0 0 0 0 0 0 0 0 0 0 0 0 0 0 0 0 0 0 0 0 0 0 0 156 220 157 20 4 17 139 119 44 55 34 37 76 59 92 2 5 0
0 2 0 0 1 0 0 0 0 0 0 0 0 0 0 0 0 0 0 0 0 0 0 0 0 0 105 266 59 170 104 11 42 4 27 33 12 3 2 50 39 45 63 8 1
2 1 0 0 0 0 0 0 0 0 0 0 0 0 0 0 0 0 0 0 0 0 0 0 0 0 0 325 167 171 144 115 32 1 0 38 1 0 0 0 26 20 18 38 9
1 1 0 2 0 0 0 0 0 0 0 0 0 0 0 0 0 0 0 0 0 0 0 0 0 0 0 325 65 60 222 126 25 34 13 0 0 0 0 0 9 8 12 47 5
0 1 0 0 0 0 0 0 0 0 0 0 0 0 0 0 0 0 0 0 0 0 0 0 0 0 2 253 77 111 248 114 26 24 9 0 16 11 0 1 3 9 10 16 11
0 0 0 0 0 0 0 0 0 0 0 16 0 0 0 0 0 0 0 0 0 0 0 0 0 48 426 209 360 223 71 56 19 5 3 2 11 18 3 0 7 4 1 4 46
0 0 0 0 0 0 0 0 0 6 12 0 0 0 0 0 0 0 0 0 0 0 0 0 0 115 269 356 418 204 43 30 35 27 50 78 28 22 16 0 0 0 10 2 43
0 0 0 0 0 0 0 0 0 0 0 0 0 0 0 0 0 0 0 0 0 0 0 0 0 0 149 232 468 308 221 65 19 7 9 61 16 56 31 0 0 0 0 0 0
0 0 0 0 0 0 0 0 0 0 0 0 0 0 0 0 0 4 3 20 6 0 0 0 0 0 0 24 302 133 51 9 0 59 21 67 56 70 45 40 0 2 7 0 13
0 0 0 0 0 0 0 0 0 0 0 0 0 0 0 0 0 0 0 12 0 0 0 0 0 0 0 0 0 0 0 0 0 0 10 51 14 48 35 71 129 44 10 0 13
0 0 0 0 0 0 0 0 0 0 0 0 0 0 0 0 0 1 0 1 6 0 0 0 0 0 0 0 0 0 0 0 0 0 0 1 0 24 24 31 98 150 156 0 15
0 0 0 0 0 0 0 0 0 0 0 0 0 0 0 0 0 0 0 5 0 0 0 0 0 0 1 0 0 0 0 0 0 0 0 0 0 20 21 1 3 0 64 202 5
0 0 0 0 0 0 0 0 0 0 0 0 0 0 0 0 0 3 0 4 0 0 0 14 0 0 0 0 0 0 0 0 0 0 0 0 0 33 132 106 116 267 0 16 61
0 0 0 0 0 0 0 0 0 0 0 0 0 0 0 0 0 0 0 0 0 5 0 0 0 0 0 0 0 0 0 0 0 0 0 3 162 82 257 43 0 8 4 21 31
0 0 0 0 0 0 0 0 0 0 0 0 0 0 0 0 0 0 0 0 0 0 4 0 1 0 0 0 0 0 19 313 275 168 392 363 332 72 65 23 0 59 7 0 0
0 0 0 0 3 2 0 0 0 0 0 0 0 0 0 0 0 0 0 0 0 0 0 0 0 4 0 0 0 33 199 340 271 462 435 186 72 0 0 36 106 50 27 10 4

GFSSW_con_sbcape_117.txt.gz
CAPE
3 4 4 4 3 3 4 3 2 2 0 4 3 4 3 1 0 0 0 0 0 0 0 0 0 0 0 8 201 104 61 78 75 106 137 42 44 17 62 121 118 160 129 135 334
2 2 3 4 2 2 0 1 1 3 3 1 5 4 2 1 0 0 0 0 0 0 0 0 0 0 0 27 81 131 4 106 118 133 186 16 44 49 29 48 127 73 151 266 316
3 3 4 2 2 1 1 0 0 3 3 3 3 3 2 0 0 0 0 0 0 0 0 0 0 0 0 81 198 199 0 28 15 62 91 286 46 52 26 71 71 102 130 191 20
3 2 2 4 3 2 2 0 0 1 2 3 2 2 0 0 0 0 0 0 5 0 0 0 0 0 0 1 188 76 67 25 32 39 97 86 118 22 11 36 62 84 67 79 32
1 0 1 2 2 3 3 3 2 3 2 2 1 1 0 0 0 0 230 0 0 0 0 0 0 0 0 29 125 123 14 8 28 61 71 64 159 100 44 16 43 61 33 43 54
1 0 0 1 1 1 2 2 2 3 2 2 1 0 0 0 0 0 0 0 0 0 0 0 0 0 0 12 126 82 53 14 23 45 84 316 362 382 53 25 62 37 7 13 81
0 0 0 0 0 1 1 1 1 2 2 2 1 0 0 0 0 0 0 0 0 0 0 0 0 0 0 38 231 134 83 18 134 137 79 188 120 49 24 28 65 57 36 63 98
0 0 0 0 0 1 1 1 1 1 1 1 0 0 0 0 0 0 0 0 0 0 0 0 0 0 0 59 71 51 61 64 80 38 79 100 46 43 7 5 16 0 11 0 3
0 0 0 1 2 2 3 2 0 0 1 0 0 0 0 0 0 0 0 0 0 0 0 0 0 0 0 2 77 50 62 9 47 13 111 88 58 57 8 0 8 0 0 0 28
0 0 2 3 0 0 0 0 0 0 0 0 0 0 0 0 0 0 0 0 0 0 0 0 0 0 0 0 0 68 74 21 64 45 116 33 73 97 22 14 0 0 0 0 5
0 2 0 0 0 0 0 0 0 0 0 0 0 0 0 0 0 0 0 0 0 0 0 0 0 0 0 0 30 92 73 62 50 59 76 16 46 87 40 61 13 0 0 0 1
1 2 3 0 0 1 0 0 0 0 0 0 0 0 0 0 0 0 0 0 0 0 0 0 0 0 0 7 169 113 102 56 68 122 111 52 34 60 11 75 53 25 0 0 0
1 3 1 0 1 0 0 0 0 0 0 0 0 0 0 0 0 0 0 0 0 0 0 0 0 0 215 226 205 130 120 44 64 5 16 57 54 49 20 29 54 13 3 0 1
1 4 0 1 0 0 0 0 0 0 0 0 0 0 0 0 0 0 0 0 0 0 0 0 0 0 308 156 131 203 132 59 36 8 0 28 0 1 1 1 2 7 0 0 0
1 2 0 0 0 0 0 0 0 0 0 0 0 0 0 0 0 0 0 0 0 0 0 0 0 0 0 318 132 74 143 50 3 17 0 5 2 0 16 5 5 0 0 0 0
0 1 0 0 0 0 0 0 0 0 0 0 0 0 0 0 0 0 0 0 0 0 0 0 0 0 0 20 119 214 72 23 6 0 0 1 9 0 0 0 0 0 1 0 0
0 0 0 0 0 0 0 0 0 0 0 0 0 0 0 0 0 0 0 0 0 0 0 0 0 420 356 312 291 188 52 29 19 15 0 4 7 1 2 0 0 0 0 1 0
0 0 0 0 0 0 0 0 0 0 0 0 0 0 0 0 0 0 0 0 0 0 0 0 385 578 429 286 302 114 38 36 2 20 10 51 7 3 0 0 0 0 2 0 13
0 0 0 0 0 0 0 0 0 0 0 0 0 0 0 0 0 0 0 0 0 0 0 0 0 0 538 450 300 305 118 8 3 4 15 63 54 2 19 9 0 0 5 15 16
0 0 0 0 0 0 0 0 0 0 0 0 0 0 0 0 0 0 0 14 1 0 0 0 0 0 19 560 355 213 88 85 6 42 22 30 55 61 62 12 5 6 10 4 0
0 0 0 0 0 0 0 0 0 0 0 0 0 0 0 0 0 0 3 2 0 0 0 0 0 1 0 16 391 0 1 0 0 0 3 30 26 11 33 7 0 1 5 8 1
0 0 0 0 0 0 0 0 0 0 0 0 0 0 0 0 0 0 0 1 0 0 0 0 0 0 0 0 0 0 0 0 0 0 0 0 0 1 33 11 50 27 24 0 0
0 0 0 0 0 0 0 0 0 0 0 0 0 0 0 0 0 1 0 0 0 0 0 0 0 0 0 1 0 1 0 0 0 0 0 0 0 154 163 236 230 36 22 45 1
0 0 0 0 0 0 0 0 0 0 0 0 0 0 0 0 0 0 0 3 0 0 0 26 0 0 0 0 0 0 0 0 0 0 0 0 62 167 13 60 7 66 94 30 36
0 0 0 0 0 0 0 0 0 0 0 0 0 0 0 0 0 0 0 0 0 18 0 0 0 0 0 0 0 0 207 190 65 5 0 77 180 122 181 6 28 1 5 29 44
0 0 0 0 0 0 0 0 0 0 0 0 0 0 0 0 0 0 0 0 0 0 0 0 0 0 0 0 0 332 237 165 210 321 307 292 149 0 204 135 84 44 0 0 2
0 0 0 0 0 0 0 0 0 0 0 0 0 0 0 0 0 0 0 0 0 0 0 0 0 0 0 0 8 0 89 225 244 329 199 38 20 20 82 10 11 4 5 1 1

GFSSW_con_sbcape_120.txt.gz
CAPE
2 3 1 1 1 1 2 2 1 2 2 2 2 1 2 3 0 0 0 0 0 0 0 0 0 0 0 30 194 72 42 86 93 31 34 35 95 128 147 98 54 127 116 146 416
3 4 3 1 1 2 2 2 2 2 2 2 3 2 2 3 0 0 0 0 0 0 0 0 0 0 0 59 119 62 36 111 110 135 177 32 74 120 131 93 101 87 173 303 98
2 2 3 2 3 3 1 2 3 0 1 3 3 2 1 0 0 0 0 0 0 0 0 0 0 0 0 106 172 172 4 50 64 68 143 308 32 58 79 78 64 84 182 213 29
1 1 1 2 2 2 3 3 1 0 0 2 2 2 1 0 0 0 0 0 0 0 0 0 0 0 0 23 156 83 109 53 75 38 76 164 133 8 29 100 48 93 150 159 10
1 0 1 1 2 2 2 2 3 1 0 2 2 1 0 0 0 0 61 2 0 0 0 0 0 0 0 22 163 128 65 46 64 85 74 109 176 50 23 124 105 100 126 43 0
1 1 0 0 0 1 2 3 3 2 1 2 1 0 0 0 0 0 0 0 0 0 0 0 0 0 0 0 131 121 67 29 36 69 101 71 307 114 41 99 102 70 41 0 12
1 0 0 1 1 2 3 2 2 2 2 1 0 0 0 0 0 0 0 0 0 0 0 0 0 0 0 40 274 71 90 56 54 113 75 71 193 305 44 75 74 45 1 0 9
0 0 1 1 2 1 0 0 1 1 1 1 0 0 0 0 0 0 0 0 0 0 0 0 0 0 0 111 87 190 79 67 70 25 87 106 26 62 45 43 42 33 0 0 13
0 1 2 0 0 0 0 1 0 0 0 0 0 0 0 0 0 0 0 0 0 0 0 0 0 0 1 37 44 33 10 8 49 20 67 73 38 14 14 26 27 44 32 0 2
1 2 0 0 0 0 0 0 0 0 0 0 0 0 0 0 0 0 0 0 0 0 0 0 0 0 0 0 0 36 5 0 1 25 86 30 52 12 2 24 34 12 2 1 0
2 3 3 0 0 0 0 0 0 0 0 0 0 0 0 0 0 0 0 0 0 0 0 0 0 0 0 0 18 113 92 15 24 25 66 32 61 19 10 11 8 0 0 0 0
2 3 2 0 1 1 0 0 0 0 0 0 0 0 0 0 0 0 0 0 0 0 0 0 0 0 0 0 180 175 134 85 75 61 96 69 55 59 45 31 1 0 0 0 0
2 4 0 0 0 0 0 0 0 0 0 0 0 0 0 0 0 0 0 0 0 0 0 0 0 0 154 221 225 191 130 68 54 67 23 56 25 51 60 34 18 7 0 0 0
2 2 0 1 0 0 0 0 0 0 0 0 0 0 0 0 0 0 0 0 0 0 0 0 0 0 281 260 224 179 103 117 48 0 16 30 12 4 37 18 0 0 0 0 0
3 1 0 0 0 0 0 0 0 0 0 0 0 0 0 0 0 0 0 0 0 0 0 0 0 0 300 242 42 150 171 94 23 0 0 8 7 0 9 11 5 0 0 0 0
2 1 0 0 0 0 0 0 0 0 0 0 0 0 0 0 0 0 0 0 0 0 0 0 0 0 0 42 197 180 124 43 6 0 0 0 1 0 2 0 10 2 0 0 0
0 0 0 0 0 0 0 0 0 0 0 0 0 0 0 0 0 0 0 0 0 0 0 0 0 446 514 438 296 142 39 17 8 1 0 1 1 0 0 1 9 1 0 0 0
0 0 0 0 0 0 0 0 0 0 0 0 0 0 0 0 0 0 0 0 0 0 0 0 45 602 488 498 513 156 42 10 13 23 3 75 25 3 0 0 15 24 0 0 0
0 0 0 0 0 0 0 0 0 0 0 0 0 0 0 0 0 0 0 0 0 0 0 0 0 3 539 572 419 248 82 0 0 0 0 12 50 2 22 6 0 30 8 9 4
0 0 0 0 0 0 0 0 0 0 0 0 0 0 0 0 0 0 0 0 0 0 0 0 2 0 391 537 315 179 7 18 11 21 27 0 27 16 0 3 0 0 0 0 0
0 0 0 0 0 0 0 0 0 0 0 0 0 0 0 0 0 0 0 0 0 0 0 0 0 6 1 210 353 33 93 0 0 0 3 13 0 18 27 0 0 0 0 0 16
0 0 0 0 0 0 0 0 0 0 0 0 0 0 0 0 0 0 0 0 0 0 0 0 0 0 0 0 0 0 0 0 0 0 0 0 0 75 125 147 13 22 0 0 18
0 0 0 0 0 0 0 0 0 0 0 0 0 0 0 0 0 0 0 0 0 0 0 0 1 18 3 0 0 0 0 0 0 0 0 0 0 62 55 29 19 1 12 0 4
0 0 0 0 0 0 0 0 0 0 0 0 0 0 0 0 0 0 0 0 0 5 26 0 0 1 9 0 0 0 0 0 0 0 0 0 118 141 47 63 17 6 10 15 14
0 0 0 0 0 0 0 0 0 0 0 0 0 0 0 0 0 0 0 0 0 0 0 0 0 0 0 0 0 0 155 261 211 32 0 32 215 88 79 75 81 1 0 52 69
0 0 0 0 0 0 0 0 0 0 0 0 0 0 0 0 0 0 0 0 0 0 0 0 0 0 0 0 186 369 219 167 371 412 234 151 29 27 75 9 2 82 21 1 11
0 0 0 0 0 0 0 0 0 0 0 0 0 0 0 0 0 0 0 0 0 0 0 0 0 0 0 0 39 1 50 223 172 142 85 68 63 213 36 13 8 4 6 6 3

GFSSW_con_sbcape_123.txt.gz
CAPE
3 3 3 1 0 0 0 0 1 2 1 1 1 1 2 2 0 0 0 0 0 0 0 0 0 0 0 313 342 125 211 135 60 44 41 94 157 157 186 76 91 324 94 321 822
3 1 1 2 2 2 2 0 0 1 1 2 1 1 2 3 0 0 0 0 0 0 0 0 0 0 75 215 277 87 209 181 148 269 87 78 81 93 47 58 213 354 537 676 740
1 1 2 1 1 2 3 3 2 0 1 1 2 2 1 1 0 0 0 0 0 0 0 0 0 6 65 266 357 150 115 143 158 189 218 91 66 76 60 41 200 167 535 544 463
1 0 0 1 1 1 2 3 2 2 1 2 2 2 1 0 0 0 1 0 0 0 0 0 0 31 85 123 292 288 167 137 126 113 257 172 158 84 78 75 93 200 407 449 502
1 1 0 1 1 2 2 3 3 2 2 1 1 0 0 0 0 0 26 0 0 0 0 0 24 4 31 47 310 326 155 131 84 121 224 231 222 74 74 144 85 223 331 374 505
1 1 1 1 2 2 3 1 0 1 1 1 1 0 0 0 0 0 0 0 0 0 0 0 2 0 0 23 369 138 132 73 104 164 183 259 307 92 155 130 164 244 234 259 321
1 1 2 3 1 1 0 1 1 0 1 1 0 0 0 0 0 0 0 0 0 0 0 0 0 0 0 409 381 203 160 130 128 117 130 202 290 164 191 136 236 226 261 213 174
2 2 3 0 0 0 2 2 1 1 0 0 0 0 0 0 0 0 0 0 0 0 0 0 0 0 4 311 216 148 79 196 14 95 90 204 173 349 209 113 164 200 196 179 175
2 3 0 0 0 1 1 0 0 0 0 0 0 0 0 0 0 0 0 0 0 0 0 0 0 0 214 117 85 141 63 88 43 17 81 199 149 197 170 98 125 164 177 181 191
3 4 0 0 0 1 0 0 0 0 0 0 0 0 0 0 0 0 0 0 0 0 0 0 0 0 1 5 25 87 119 31 22 3 80 89 113 147 155 71 111 173 157 168 149
3 5 0 3 0 0 0 0 0 0 0 0 0 0 0 0 0 0 0 0 0 0 0 0 0 0 0 0 0 38 138 38 3 18 1 44 143 140 131 85 92 155 157 184 171
4 1 0 0 1 0 0 0 0 0 0 0 0 0 0 0 0 0 0 0 0 0 0 0 0 0 0 0 20 154 176 114 92 27 26 78 86 140 100 58 75 119 147 156 147
5 0 0 1 0 0 0 0 0 0 0 0 0 0 0 0 0 0 0 0 0 0 0 1 0 0 0 0 103 218 177 146 132 133 81 83 19 26 88 110 29 0 17 88 94
5 0 0 0 0 0 0 0 0 0 0 0 0 0 0 0 0 0 0 0 0 0 0 0 0 0 0 0 191 126 164 167 127 113 67 39 36 0 42 76 67 4 0 0 0
4 1 0 0 0 0 0 0 0 0 0 0 0 0 0 0 0 0 0 0 0 0 0 0 0 0 9 6 308 190 268 230 140 73 59 72 45 16 4 59 106 61 38 0 0
2 1 0 0 0 0 0 0 0 0 0 0 0 0 0 0 0 0 0 0 0 0 0 0 0 0 0 317 349 401 255 186 105 75 70 29 61 15 63 142 93 78 47 18 0
0 0 0 0 0 0 0 0 0 0 0 0 0 0 0 0 0 0 0 0 0 0 0 0 0 307 221 319 541 350 298 211 196 150 75 7 19 22 4 20 78 63 80 78 4
0 0 0 0 0 0 0 0 0 0 0 0 0 0 0 0 0 0 0 0 0 0 0 0 70 577 669 349 365 377 59 115 107 133 79 128 91 61 23 0 2 61 60 116 64
0 0 0 0 0 0 0 0 0 0 0 0 0 0 0 0 0 0 0 0 0 0 0 0 0 580 722 743 577 415 168 84 86 35 29 41 120 62 29 22 5 1 18 49 85
0 0 0 0 0 0 0 0 0 0 0 0 0 0 0 0 0 0 0 0 0 0 0 0 14 69 852 767 388 559 330 272 150 73 0 15 80 134 155 152 51 54 43 69 77
0 0 0 0 0 0 0 0 0 0 0 0 0 0 0 0 0 0 0 1 1 0 0 0 9 36 715 839 757 512 496 83 38 39 47 41 20 192 217 179 99 38 97 157 102
0 0 0 0 0 0 0 0 0 0 0 0 0 0 0 0 0 0 0 0 0 0 0 0 3 134 56 0 0 230 294 315 197 32 29 25 13 228 239 196 189 112 94 85 136
0 0 0 0 0 0 0 0 0 0 0 0 0 0 0 0 0 0 0 0 0 0 0 0 31 203 189 56 1 89 14 0 0 0 0 0 0 345 290 264 262 261 220 131 137
0 0 0 0 0 0 0 0 0 0 0 0 0 0 0 0 0 0 0 0 0 5 0 2 31 128 131 159 8 88 227 42 0 0 0 0 87 522 387 296 212 181 250 199 204
0 0 0 0 0 0 0 0 0 0 0 0 0 0 0 0 0 0 0 0 0 0 0 0 28 7 5 28 3 555 604 715 352 334 0 9 332 528 363 233 181 147 194 211 325
0 0 0 0 0 0 0 0 0 0 0 0 0 0 0 0 0 0 0 0 0 0 5 0 38 25 0 2 38 464 340 333 695 577 446 473 432 352 278 232 149 16 12 15 14
0 0 0 0 0 0 0 0 0 0 0 0 0 0 0 0 0 0 0 0 0 0 12 28 64 64 2 0 67 141 207 161 548 666 644 560 593 520 254 49 7 7 8 8 7